[[{"header":{"parameterUnit":"m.s-1","parameterCategory":1,"la1":30.6,"la2":28.766,"lo1":-90.7593,"lo2":-88.6598,"dx":0.0162,"dy":0.0183,"nx":116,"ny":114,"refTime":"2022-11-08T18:00:00:Z","depth":0,"parameterNumber":2,"parameterNumberName":"U-component_of_WINDS"},"data":[0.0,0.0,0.0,0.0,0.0,0.0,0.0,0.0,0.0,0.0,0.0,0.0,0.0,0.0,0.0,0.0,0.0,0.0,0.0,0.0,0.0,0.0,0.0,0.0,0.0,0.0,0.0,0.0,0.0,0.0,0.0,0.0,0.0,0.0,0.0,0.0,0.0,0.0,0.0,0.0,0.0,0.0,0.0,0.0,0.0,0.0,0.0,0.0,0.0,0.0,0.0,0.0,0.0,0.0,0.0,0.0,0.0,0.0,0.0,0.0,0.0,0.0,0.0,0.0,0.0,0.0,0.0,0.0,0.0,0.0,0.0,0.0,0.0,0.0,0.0,0.0,0.0,0.0,0.0,0.0,0.0,0.0,0.0,0.0,0.0,0.0,0.0,0.0,0.0,0.0,0.0,0.0,0.0,0.0,0.0,0.0,0.0,0.0,0.0,0.0,0.0,0.0,0.0,0.0,0.0,0.0,0.0,0.0,0.0,0.0,0.0,0.0,0.0,0.0,0.0,0.0,0.0,0.0,0.0,0.0,0.0,0.0,0.0,0.0,0.0,0.0,0.0,0.0,0.0,0.0,0.0,0.0,0.0,0.0,0.0,0.0,0.0,0.0,0.0,0.0,0.0,0.0,0.0,0.0,0.0,0.0,0.0,0.0,0.0,0.0,0.0,0.0,0.0,0.0,0.0,0.0,0.0,0.0,0.0,0.0,0.0,0.0,0.0,0.0,0.0,0.0,0.0,0.0,0.0,0.0,0.0,0.0,0.0,0.0,0.0,0.0,0.0,0.0,0.0,0.0,0.0,0.0,0.0,0.0,0.0,0.0,0.0,0.0,0.0,0.0,0.0,0.0,0.0,0.0,0.0,0.0,0.0,0.0,0.0,0.0,0.0,0.0,0.0,0.0,0.0,0.0,0.0,0.0,0.0,0.0,0.0,0.0,0.0,0.0,0.0,0.0,0.0,0.0,0.0,0.0,0.0,0.0,0.0,0.0,0.0,0.0,0.0,0.0,0.0,0.0,0.0,0.0,0.0,0.0,0.0,0.0,0.0,0.0,0.0,0.0,0.0,0.0,0.0,0.0,0.0,0.0,0.0,0.0,0.0,0.0,0.0,0.0,0.0,0.0,0.0,0.0,0.0,0.0,0.0,0.0,0.0,0.0,0.0,0.0,0.0,0.0,0.0,0.0,0.0,0.0,0.0,0.0,0.0,0.0,0.0,0.0,0.0,0.0,0.0,0.0,0.0,0.0,0.0,0.0,0.0,0.0,0.0,0.0,0.0,0.0,0.0,0.0,0.0,0.0,0.0,0.0,0.0,0.0,0.0,0.0,0.0,0.0,0.0,0.0,0.0,0.0,0.0,0.0,0.0,0.0,0.0,0.0,0.0,0.0,0.0,0.0,0.0,0.0,0.0,0.0,0.0,0.0,0.0,0.0,0.0,0.0,0.0,0.0,0.0,0.0,0.0,0.0,0.0,0.0,0.0,0.0,0.0,0.0,0.0,0.0,0.0,0.0,0.0,0.0,0.0,0.0,0.0,0.0,0.0,0.0,0.0,0.0,0.0,0.0,0.0,0.0,0.0,0.0,0.0,0.0,0.0,0.0,0.0,0.0,0.0,0.0,0.0,0.0,0.0,0.0,0.0,0.0,0.0,0.0,0.0,0.0,0.0,0.0,0.0,0.0,0.0,0.0,0.0,0.0,0.0,0.0,0.0,0.0,0.0,0.0,0.0,0.0,0.0,0.0,0.0,0.0,0.0,0.0,0.0,0.0,0.0,0.0,0.0,0.0,0.0,0.0,0.0,0.0,0.0,0.0,0.0,0.0,0.0,0.0,0.0,0.0,0.0,0.0,0.0,0.0,0.0,0.0,0.0,0.0,0.0,0.0,0.0,0.0,0.0,0.0,0.0,0.0,0.0,0.0,0.0,0.0,0.0,0.0,0.0,0.0,0.0,0.0,0.0,0.0,0.0,0.0,0.0,0.0,0.0,0.0,0.0,0.0,0.0,0.0,0.0,0.0,0.0,0.0,0.0,0.0,0.0,0.0,0.0,0.0,0.0,0.0,0.0,0.0,0.0,0.0,0.0,0.0,0.0,0.0,0.0,0.0,0.0,0.0,0.0,0.0,0.0,0.0,0.0,0.0,0.0,0.0,0.0,0.0,0.0,0.0,0.0,0.0,0.0,0.0,0.0,0.0,0.0,0.0,0.0,0.0,0.0,0.0,0.0,0.0,0.0,0.0,0.0,0.0,0.0,0.0,0.0,0.0,0.0,0.0,0.0,0.0,0.0,0.0,0.0,0.0,0.0,0.0,0.0,0.0,0.0,0.0,0.0,0.0,0.0,0.0,0.0,0.0,0.0,0.0,0.0,0.0,0.0,0.0,0.0,0.0,0.0,0.0,0.0,0.0,0.0,0.0,0.0,0.0,0.0,0.0,0.0,0.0,0.0,0.0,0.0,0.0,0.0,0.0,0.0,0.0,0.0,0.0,0.0,0.0,0.0,0.0,0.0,0.0,0.0,0.0,0.0,0.0,0.0,0.0,0.0,0.0,0.0,0.0,0.0,0.0,0.0,0.0,0.0,0.0,0.0,0.0,0.0,0.0,0.0,0.0,0.0,0.0,0.0,0.0,0.0,0.0,0.0,0.0,0.0,0.0,0.0,0.0,0.0,0.0,0.0,0.0,0.0,0.0,0.0,0.0,0.0,0.0,0.0,0.0,0.0,0.0,0.0,0.0,0.0,0.0,0.0,0.0,0.0,0.0,0.0,0.0,0.0,0.0,0.0,0.0,0.0,0.0,0.0,0.0,0.0,0.0,0.0,0.0,0.0,0.0,0.0,0.0,0.0,0.0,0.0,0.0,0.0,0.0,0.0,0.0,0.0,0.0,0.0,0.0,0.0,0.0,0.0,0.0,0.0,0.0,0.0,0.0,0.0,0.0,0.0,0.0,0.0,0.0,0.0,0.0,0.0,0.0,0.0,0.0,0.0,0.0,0.0,0.0,0.0,0.0,0.0,0.0,0.0,0.0,0.0,0.0,0.0,0.0,0.0,0.0,0.0,0.0,0.0,0.0,0.0,0.0,0.0,0.0,0.0,0.0,0.0,0.0,0.0,0.0,0.0,0.0,0.0,0.0,0.0,0.0,0.0,0.0,0.0,0.0,0.0,0.0,0.0,0.0,0.0,0.0,0.0,0.0,0.0,0.0,0.0,0.0,0.0,0.0,0.0,0.0,0.0,0.0,0.0,0.0,0.0,0.0,0.0,0.0,0.0,0.0,0.0,0.0,0.0,0.0,0.0,0.0,0.0,0.0,0.0,0.0,0.0,0.0,0.0,0.0,0.0,0.0,0.0,0.0,0.0,0.0,0.0,0.0,0.0,0.0,0.0,0.0,0.0,0.0,0.0,0.0,0.0,0.0,0.0,0.0,0.0,0.0,0.0,0.0,0.0,0.0,0.0,0.0,0.0,0.0,0.0,0.0,0.0,0.0,0.0,0.0,0.0,0.0,0.0,0.0,0.0,0.0,0.0,0.0,0.0,0.0,0.0,0.0,0.0,0.0,0.0,0.0,0.0,0.0,0.0,0.0,0.0,0.0,0.0,0.0,0.0,0.0,0.0,0.0,0.0,0.0,0.0,0.0,0.0,0.0,0.0,0.0,0.0,0.0,0.0,0.0,0.0,0.0,0.0,0.0,0.0,0.0,0.0,0.0,0.0,0.0,0.0,0.0,0.0,0.0,0.0,0.0,0.0,0.0,0.0,0.0,0.0,0.0,0.0,0.0,0.0,0.0,0.0,0.0,0.0,0.0,0.0,0.0,0.0,0.0,0.0,0.0,0.0,0.0,0.0,0.0,0.0,0.0,0.0,0.0,0.0,0.0,0.0,0.0,0.0,0.0,0.0,0.0,0.0,0.0,0.0,0.0,0.0,0.0,0.0,0.0,0.0,0.0,0.0,0.0,0.0,0.0,0.0,0.0,0.0,0.0,0.0,0.0,0.0,0.0,0.0,0.0,0.0,0.0,0.0,0.0,0.0,0.0,0.0,0.0,0.0,0.0,0.0,0.0,0.0,0.0,0.0,0.0,0.0,0.0,0.0,0.0,0.0,0.0,0.0,0.0,0.0,0.0,0.0,0.0,0.0,0.0,0.0,0.0,0.0,0.0,0.0,0.0,0.0,0.0,0.0,0.0,0.0,0.0,0.0,0.0,0.0,0.0,0.0,0.0,0.0,0.0,0.0,0.0,0.0,0.0,0.0,0.0,0.0,0.0,0.0,0.0,0.0,0.0,0.0,0.0,0.0,0.0,0.0,0.0,0.0,0.0,0.0,0.0,0.0,0.0,0.0,0.0,0.0,0.0,0.0,0.0,0.0,0.0,0.0,0.0,0.0,0.0,0.0,0.0,0.0,0.0,0.0,0.0,0.0,0.0,0.0,0.0,0.0,0.0,0.0,0.0,0.0,0.0,0.0,0.0,0.0,0.0,0.0,0.0,0.0,0.0,0.0,0.0,0.0,0.0,0.0,0.0,0.0,0.0,0.0,0.0,0.0,0.0,0.0,0.0,0.0,0.0,0.0,0.0,0.0,0.0,0.0,0.0,0.0,0.0,0.0,0.0,0.0,0.0,0.0,0.0,0.0,0.0,0.0,0.0,0.0,0.0,0.0,0.0,0.0,0.0,0.0,0.0,0.0,0.0,0.0,0.0,0.0,0.0,0.0,0.0,0.0,0.0,0.0,0.0,0.0,0.0,0.0,0.0,0.0,0.0,0.0,0.0,0.0,0.0,0.0,0.0,0.0,0.0,0.0,0.0,0.0,0.0,0.0,0.0,0.0,0.0,0.0,0.0,0.0,0.0,0.0,0.0,0.0,0.0,0.0,0.0,0.0,0.0,0.0,0.0,0.0,0.0,0.0,0.0,0.0,0.0,0.0,0.0,0.0,0.0,0.0,0.0,0.0,0.0,0.0,0.0,0.0,0.0,0.0,0.0,0.0,0.0,0.0,0.0,0.0,0.0,0.0,0.0,0.0,0.0,0.0,0.0,0.0,0.0,0.0,0.0,0.0,0.0,0.0,0.0,0.0,0.0,0.0,0.0,0.0,0.0,0.0,0.0,0.0,0.0,0.0,0.0,0.0,0.0,0.0,0.0,0.0,0.0,0.0,0.0,0.0,0.0,0.0,0.0,0.0,0.0,0.0,0.0,0.0,0.0,0.0,0.0,0.0,0.0,0.0,0.0,0.0,0.0,0.0,0.0,0.0,0.0,0.0,0.0,0.0,0.0,0.0,0.0,0.0,0.0,0.0,0.0,0.0,0.0,0.0,0.0,0.0,0.0,0.0,0.0,0.0,0.0,0.0,0.0,0.0,0.0,0.0,0.0,0.0,0.0,0.0,0.0,0.0,0.0,0.0,0.0,0.0,0.0,0.0,0.0,0.0,0.0,0.0,0.0,0.0,0.0,0.0,0.0,0.0,0.0,0.0,0.0,0.0,0.0,0.0,0.0,0.0,0.0,0.0,0.0,0.0,0.0,0.0,0.0,0.0,0.0,0.0,0.0,0.0,0.0,0.0,0.0,0.0,0.0,0.0,0.0,0.0,0.0,0.0,0.0,0.0,0.0,0.0,0.0,0.0,0.0,0.0,0.0,0.0,0.0,0.0,0.0,0.0,0.0,0.0,0.0,0.0,0.0,0.0,0.0,0.0,0.0,0.0,0.0,0.0,0.0,0.0,0.0,0.0,0.0,0.0,0.0,0.0,0.0,0.0,0.0,0.0,0.0,0.0,0.0,0.0,0.0,0.0,0.0,0.0,0.0,0.0,0.0,0.0,0.0,0.0,0.0,0.0,0.0,0.0,0.0,0.0,0.0,0.0,0.0,0.0,0.0,0.0,0.0,0.0,0.0,0.0,0.0,0.0,0.0,0.0,0.0,0.0,0.0,0.0,0.0,0.0,0.0,0.0,0.0,0.0,0.0,0.0,0.0,0.0,0.0,0.0,0.0,0.0,0.0,0.0,0.0,0.0,0.0,0.0,0.0,0.0,0.0,0.0,0.0,0.0,0.0,0.0,0.0,0.0,0.0,0.0,0.0,0.0,0.0,0.0,0.0,0.0,0.0,3.8721,0.0,0.0,0.0,0.0,0.0,0.0,0.0,0.0,0.0,0.0,0.0,0.0,0.0,0.0,0.0,0.0,0.0,0.0,0.0,0.0,0.0,0.0,0.0,0.0,2.361,2.361,2.361,2.361,0.0,0.0,0.0,0.0,0.0,0.0,0.0,2.4088,2.4088,2.4567,2.5495,2.5555,2.6063,2.7021,2.6662,2.5974,2.5046,0.0,0.0,0.0,0.0,0.0,0.0,0.0,0.0,0.0,0.0,0.0,0.0,0.0,0.0,0.0,0.0,0.0,0.0,0.0,0.0,0.0,0.0,0.0,0.0,0.0,0.0,0.0,0.0,0.0,0.0,0.0,0.0,0.0,0.0,0.0,0.0,0.0,0.0,0.0,0.0,0.0,0.0,0.0,0.0,0.0,0.0,0.0,0.0,0.0,0.0,0.0,0.0,0.0,0.0,0.0,0.0,0.0,0.0,0.0,0.0,0.0,0.0,0.0,0.0,0.0,0.0,0.0,0.0,0.0,0.0,0.0,3.9738,0.0,0.0,0.0,0.0,0.0,0.0,0.0,0.0,0.0,0.0,0.0,0.0,0.0,0.0,0.0,0.0,0.0,0.0,0.0,0.0,0.0,2.364,2.3759,2.3789,2.3819,2.3939,2.3939,2.3909,2.3789,2.3789,0.0,0.0,2.3789,2.4088,2.4731,2.4926,2.5824,2.761,2.75,2.8068,2.9295,2.9834,2.9205,2.759,2.6811,0.0,0.0,0.0,0.0,0.0,0.0,0.0,0.0,0.0,0.0,0.0,0.0,0.0,0.0,0.0,0.0,0.0,0.0,0.0,0.0,0.0,0.0,0.0,0.0,0.0,0.0,0.0,0.0,0.0,0.0,0.0,0.0,0.0,0.0,0.0,0.0,0.0,0.0,0.0,0.0,0.0,0.0,0.0,0.0,0.0,0.0,0.0,0.0,0.0,0.0,0.0,0.0,0.0,0.0,0.0,0.0,0.0,0.0,0.0,0.0,0.0,0.0,0.0,4.1205,4.1833,4.288,4.288,4.3449,4.4377,4.2192,4.1504,4.1833,0.0,0.0,0.0,0.0,0.0,0.0,0.0,0.0,0.0,0.0,0.0,0.0,0.0,0.0,0.0,0.0,0.0,0.0,0.0,0.0,2.3819,2.4373,2.4462,2.4717,2.5285,2.5345,2.5106,2.4537,2.4462,2.4462,2.4462,2.4462,2.4761,2.5465,2.6033,2.6752,2.761,2.9804,3.127,3.2018,3.2078,3.1988,3.1689,3.0402,2.9564,2.9026,0.0,0.0,0.0,0.0,0.0,0.0,0.0,0.0,0.0,0.0,0.0,0.0,0.0,0.0,0.0,0.0,0.0,0.0,0.0,0.0,0.0,0.0,0.0,0.0,0.0,0.0,0.0,0.0,0.0,0.0,0.0,0.0,0.0,0.0,0.0,0.0,0.0,0.0,0.0,0.0,0.0,3.6357,3.7075,0.0,0.0,0.0,0.0,0.0,0.0,0.0,0.0,0.0,0.0,0.0,0.0,0.0,0.0,4.2102,4.2581,4.315,4.3808,4.4377,4.4736,4.4915,4.4915,4.5005,4.5155,4.4796,0.0,4.3928,4.3838,0.0,0.0,0.0,0.0,0.0,0.0,0.0,0.0,0.0,0.0,0.0,0.0,0.0,0.0,0.0,0.0,0.0,0.0,0.0,0.0,0.0,2.4956,2.5435,2.6093,2.6512,2.6422,2.5764,2.5734,2.5555,2.5196,2.5166,2.5644,2.6692,2.738,2.8577,3.0342,3.2647,3.3724,3.3634,3.4023,3.4203,3.4173,3.3574,3.2347,3.0672,3.0372,0.0,0.0,0.0,0.0,0.0,0.0,0.0,0.0,0.0,0.0,0.0,0.0,0.0,0.0,0.0,0.0,0.0,0.0,0.0,0.0,0.0,0.0,0.0,0.0,0.0,0.0,0.0,0.0,0.0,0.0,0.0,0.0,0.0,0.0,0.0,0.0,0.0,0.0,0.0,3.5609,3.6447,3.7793,3.7644,3.7404,0.0,0.0,0.0,0.0,0.0,0.0,0.0,0.0,0.0,4.2013,4.2402,4.306,4.3988,4.4287,4.4586,4.4855,4.5155,4.5514,4.5873,4.6262,4.6621,4.701,4.7369,4.7369,4.695,4.5095,4.4197,4.3988,0.0,0.0,0.0,0.0,4.4347,4.4227,0.0,0.0,0.0,0.0,0.0,0.0,0.0,0.0,0.0,0.0,0.0,0.0,2.5046,2.5884,2.6632,2.729,2.7799,2.7799,2.7141,2.6931,2.6632,2.6123,2.5944,2.6482,2.7799,2.8996,3.0731,3.3006,3.4681,3.525,3.4741,3.528,3.5579,3.5759,3.5759,3.4562,3.2527,3.2168,3.118,2.9804,0.0,0.0,0.0,0.0,0.0,0.0,0.0,0.0,0.0,0.0,0.0,0.0,0.0,0.0,0.0,0.0,0.0,0.0,0.0,0.0,0.0,0.0,0.0,0.0,0.0,0.0,0.0,0.0,0.0,0.0,0.0,0.0,0.0,0.0,0.0,0.0,0.0,3.6507,3.7045,3.8482,3.8512,3.8362,0.0,0.0,0.0,0.0,0.0,0.0,4.2102,4.2611,4.315,4.3808,4.4317,4.4885,4.5544,4.5723,4.5903,4.6052,4.6232,4.6591,4.71,4.7578,4.8087,4.8566,4.9045,4.9254,4.9075,4.6591,4.5753,4.6022,4.5514,4.5514,4.5903,4.6561,4.6501,4.6292,0.0,0.0,0.0,0.0,0.0,0.0,0.0,0.0,0.0,0.0,0.0,2.5764,2.6422,2.7679,2.8727,2.9385,2.9475,2.9205,2.8547,2.7889,2.75,2.752,2.6871,2.7171,2.8517,3.1031,3.3006,3.4382,3.513,3.5489,3.5459,3.5489,3.5848,3.6447,3.6447,3.6028,3.522,3.3933,3.3335,3.3095,3.118,0.0,0.0,0.0,0.0,0.0,0.0,0.0,0.0,0.0,0.0,0.0,0.0,0.0,0.0,0.0,0.0,0.0,0.0,0.0,0.0,0.0,0.0,0.0,0.0,0.0,0.0,0.0,0.0,0.0,0.0,0.0,0.0,0.0,0.0,0.0,0.0,0.0,0.0,3.9349,4.0427,0.0,0.0,0.0,0.0,4.2162,4.2282,4.2851,4.4107,4.4197,4.4526,4.5185,4.5214,4.5574,4.6262,4.689,4.7519,4.8147,4.8775,4.9075,4.9134,4.9164,4.9194,4.9224,4.9254,4.9254,4.9254,4.9075,4.8656,4.8147,4.8087,4.7728,4.7279,4.7938,4.8177,4.8237,0.0,0.0,0.0,2.361,2.361,2.361,2.361,2.361,2.361,2.361,2.4777,2.5854,2.6512,2.8158,2.9475,3.0133,3.0582,3.0552,2.9864,2.9235,2.9056,2.9445,2.8846,2.9535,3.1719,3.3095,3.4233,3.513,3.5818,3.6118,3.6148,3.6537,3.6866,3.7075,3.7075,3.6956,3.6686,3.6207,3.5549,3.4711,3.4023,3.2946,0.0,0.0,0.0,0.0,0.0,0.0,0.0,0.0,0.0,0.0,0.0,0.0,0.0,0.0,0.0,0.0,0.0,0.0,0.0,0.0,0.0,0.0,0.0,0.0,0.0,0.0,0.0,0.0,0.0,0.0,0.0,0.0,0.0,0.0,0.0,0.0,0.0,4.0576,4.1085,0.0,4.1654,4.2252,4.291,4.3569,4.4018,4.4466,4.4915,4.5364,4.5903,4.6561,4.701,4.7549,4.8207,4.8446,4.8686,4.8925,4.9164,4.9254,4.9284,4.9703,4.9883,4.9912,5.0331,5.0511,5.0418,4.961,4.9321,4.9553,4.9553,4.9673,4.9853,5.0092,5.0182,5.012,0.0,0.0,0.0,2.361,2.361,2.361,2.361,2.361,2.3759,2.4208,2.5435,2.6602,2.75,2.9175,3.0402,3.0821,3.127,3.133,3.0881,3.003,2.9796,3.0492,3.0342,3.127,3.3455,3.4382,3.516,3.5848,3.6477,3.6806,3.6806,3.7225,3.7524,3.7734,3.7734,3.7853,3.8093,3.8093,3.7345,3.6118,3.5908,3.504,3.3724,0.0,0.0,0.0,0.0,0.0,0.0,0.0,0.0,0.0,0.0,0.0,0.0,0.0,0.0,0.0,0.0,0.0,0.0,0.0,0.0,0.0,0.0,0.0,0.0,0.0,0.0,0.0,0.0,0.0,0.0,0.0,0.0,0.0,0.0,0.0,4.0397,4.1265,4.1953,4.2462,4.2671,4.3479,4.4257,4.4945,4.5394,4.5843,4.6292,4.6741,4.7279,4.7938,4.7911,4.8326,4.9254,4.858,4.8698,4.9613,4.8904,4.8805,4.9238,4.915,4.945,4.9887,4.9794,5.0095,5.0508,4.9582,4.9417,4.9858,4.9858,5.0436,5.1229,5.1229,5.0917,5.0412,0.0,0.0,2.361,2.361,2.361,2.361,2.361,2.361,2.4088,2.5435,2.6782,2.815,2.9445,3.0761,3.1482,3.1482,3.1511,3.1511,3.1482,3.0192,2.9726,3.0496,3.127,3.2287,3.3574,3.4891,3.5878,3.6507,3.7135,3.7434,3.7434,3.7464,3.7823,3.8422,3.8422,3.8781,3.9409,3.9409,3.8661,3.7434,3.6836,3.6567,3.6327,0.0,0.0,0.0,0.0,0.0,0.0,0.0,0.0,0.0,0.0,0.0,0.0,0.0,0.0,0.0,0.0,0.0,0.0,0.0,0.0,0.0,0.0,0.0,0.0,0.0,0.0,0.0,0.0,0.0,0.0,0.0,0.0,0.0,4.0457,4.1025,4.1444,4.1474,4.318,4.4107,4.3479,4.4586,4.5633,4.6322,4.6381,4.695,4.8237,4.8327,4.8626,4.9284,4.7911,4.7817,4.9314,4.7247,4.7433,5.0087,4.8056,4.7808,4.9063,4.7707,4.7836,4.9092,4.7735,4.7864,4.9219,4.912,4.912,4.9219,4.919,4.9999,5.1165,5.1165,5.025,4.9207,2.361,2.361,2.361,2.361,2.3231,2.3098,2.3537,2.3644,2.4141,2.5448,2.72,2.8637,2.9475,3.0761,3.1482,3.1482,3.1958,3.2048,3.1511,3.1129,3.1218,3.1928,3.3993,3.531,3.5669,3.6477,3.6985,3.7165,3.7793,3.8123,3.8123,3.8631,3.896,3.914,3.914,3.923,3.9409,3.9409,3.92,3.8841,3.8691,3.8302,3.7764,0.0,0.0,0.0,0.0,0.0,0.0,0.0,0.0,0.0,0.0,0.0,0.0,0.0,0.0,0.0,0.0,0.0,0.0,0.0,0.0,0.0,0.0,0.0,0.0,0.0,0.0,0.0,0.0,0.0,0.0,0.0,0.0,4.1833,4.1833,4.2372,4.297,4.3449,4.4407,4.5155,4.5484,4.5843,4.6501,4.7668,4.7758,4.8117,4.8955,4.811,4.8311,4.9851,4.7663,4.7278,4.9251,4.76,4.7151,4.7985,4.7318,4.7299,4.7605,4.7299,4.7549,4.8275,4.7861,4.811,4.8869,4.7782,4.7996,4.8917,4.9494,5.0051,5.0208,4.9632,4.8526,4.7379,2.361,2.361,2.3523,2.3275,2.292,2.283,2.3143,2.3518,2.4363,2.6225,2.7709,2.9056,3.0253,3.1091,3.1571,3.187,3.2287,3.2139,3.1427,3.1337,3.1928,3.3166,3.5026,3.6327,3.6866,3.7494,3.7823,3.7823,3.8482,3.8811,3.8841,3.923,3.9409,3.9409,3.9409,3.9409,3.9409,3.9409,3.9409,3.9409,3.9409,3.917,3.8751,3.8063,3.7195,3.6207,3.5549,3.4891,3.4352,3.4352,0.0,0.0,0.0,0.0,0.0,0.0,0.0,0.0,0.0,0.0,0.0,0.0,0.0,0.0,0.0,0.0,0.0,0.0,0.0,0.0,0.0,0.0,0.0,0.0,4.2312,4.3111,4.2836,4.3337,4.3988,4.4646,4.5304,4.5709,4.5814,4.6604,4.7286,4.7818,4.7815,4.8383,4.9643,4.7759,4.7663,4.9728,4.7075,4.6531,4.8339,4.637,4.5978,4.7094,4.6114,4.6036,4.6567,4.6169,4.6571,0.0,4.6783,4.7106,4.7866,4.6986,4.7207,0.0,0.0,0.0,0.0,0.0,4.7427,4.6705,2.361,2.361,2.3406,2.2785,2.2694,2.2649,2.2603,2.3299,2.4713,2.714,2.8166,2.9445,3.133,3.1482,3.175,3.2467,3.2647,3.2435,3.1758,3.1666,3.2449,3.4254,3.5274,3.6357,3.7494,3.8153,3.8512,3.8512,3.911,3.9409,3.9409,3.9409,3.9409,3.9409,3.9409,3.9409,3.9409,3.9409,3.9409,3.9409,3.9409,3.9409,3.9349,3.8751,3.8153,3.7554,3.7015,3.6447,3.5938,3.5938,0.0,0.0,0.0,0.0,0.0,0.0,0.0,0.0,0.0,0.0,0.0,0.0,0.0,0.0,0.0,0.0,0.0,0.0,0.0,0.0,0.0,0.0,0.0,0.0,4.3278,4.3843,4.3401,4.3799,4.4466,4.5168,4.5798,4.6019,4.5417,4.7019,4.7877,4.7128,4.7186,4.8072,4.9808,0.0,0.0,0.0,0.0,4.5449,4.6888,4.4396,4.4313,4.6687,4.4797,4.4546,4.5747,4.4941,4.5311,4.6559,4.5247,4.5387,4.6638,4.6717,4.6769,4.6821,4.6915,4.7558,4.8491,4.7245,4.6821,4.69,2.361,2.361,2.3406,2.2785,2.2694,2.2512,2.1993,2.3407,2.5061,2.6607,2.8343,2.9953,3.139,3.1482,3.175,3.2467,3.3484,3.4259,3.4669,3.4634,3.4877,3.5264,3.6918,3.7943,3.8182,3.8871,3.923,3.923,3.9349,3.9409,3.9409,3.9409,3.9409,3.9409,3.9409,3.9409,3.9409,3.9409,3.9409,3.9409,3.9409,3.9409,3.9409,3.926,3.914,3.902,3.8901,3.8781,3.8661,3.8661,3.7853,3.6836,3.6836,3.5968,0.0,0.0,0.0,0.0,0.0,0.0,0.0,0.0,0.0,0.0,0.0,0.0,0.0,0.0,0.0,0.0,0.0,0.0,0.0,4.2212,4.2164,4.2161,4.2592,4.3194,4.3737,4.45,4.5573,4.6114,4.6045,4.6835,4.7062,4.6389,4.7332,4.7909,4.7712,4.6102,0.0,4.7503,4.4833,4.4016,4.5342,4.4258,4.3953,4.4489,0.0,0.0,4.4788,4.4684,4.4986,4.5766,4.5439,4.5691,4.6476,4.6787,4.7218,4.7643,4.8003,4.7808,4.7496,4.7567,4.7622,4.7744,2.361,2.361,2.3319,2.2392,2.2512,2.2459,2.1735,2.3081,2.4685,2.6186,2.7903,2.9339,3.0308,3.019,3.0188,3.0513,3.1389,3.2611,3.428,3.4662,3.5333,3.6417,3.7704,3.8542,3.8901,3.926,3.9409,3.9409,3.9409,3.9409,3.9409,3.9409,3.9409,3.9409,3.9409,3.9409,3.9409,3.9409,3.9409,3.9409,3.9409,3.9409,3.9409,3.9409,3.9409,3.9409,3.9409,3.9409,3.9409,3.9409,3.896,3.8422,3.8422,3.7734,3.6806,0.0,0.0,0.0,0.0,0.0,0.0,0.0,0.0,0.0,0.0,0.0,0.0,0.0,0.0,3.9905,4.1594,0.0,4.094,4.2205,4.2453,4.2383,4.2463,4.3421,4.4263,4.434,4.5071,4.5552,4.5172,4.607,4.6289,4.5597,4.6243,4.679,4.7094,4.5155,4.4643,4.5978,4.4126,4.3422,4.4428,4.3979,4.394,4.4217,4.4794,4.5045,4.507,4.5347,4.5623,4.5924,4.62,4.6476,4.6753,4.7305,4.7682,4.8007,4.8442,4.8095,4.7556,4.7807,4.7908,4.7908,2.361,2.3523,2.3098,2.2086,2.2459,2.2621,2.1741,2.2926,2.444,2.5682,2.7088,2.8226,2.8826,2.857,2.8455,2.8857,2.9529,3.092,3.3215,3.4254,3.5565,3.7276,3.8182,3.8841,3.9409,3.9409,3.9409,3.9409,3.9409,3.9409,3.9409,3.9409,3.9409,3.9409,3.9409,3.9409,3.9409,3.9409,3.9409,3.9409,3.9409,3.9409,3.9409,3.9409,3.9409,3.9409,3.9409,3.9409,3.9409,3.9409,3.9409,3.9409,3.9409,3.905,3.8452,3.7793,3.7584,0.0,0.0,0.0,0.0,0.0,0.0,0.0,0.0,3.9265,3.9491,4.1406,4.0786,4.043,4.208,4.148,4.1104,4.2289,4.278,4.2735,4.2262,4.3531,4.4401,4.3913,4.4493,4.4678,4.4124,4.5196,4.557,4.4699,4.4833,4.5342,4.6265,4.4209,4.3543,4.4692,4.3755,4.3413,4.3966,4.4066,4.4342,4.4794,4.5372,4.5698,4.5824,4.6276,4.6527,4.6652,4.7104,4.7355,4.7481,4.7908,4.8134,4.8284,4.8761,4.8711,4.8385,4.8284,4.8309,4.8385,2.361,2.3143,2.274,2.2603,2.3155,2.313,2.1794,2.3719,2.5117,2.4627,2.5791,2.6858,2.7443,2.7502,2.8116,2.9764,3.119,3.2645,3.3975,3.5908,3.7187,3.7404,3.8631,3.9349,3.9409,3.9409,3.9409,3.9409,3.9409,3.9409,3.9409,3.9409,3.9409,3.9409,3.9409,3.9409,3.9409,3.9409,3.9409,3.9409,3.9409,3.9409,3.9409,3.9409,3.9409,3.9409,3.9409,3.9409,3.9409,3.9409,3.9409,3.9409,3.9409,3.9379,3.917,3.8482,3.8272,3.8123,3.7494,3.8272,3.9439,4.0038,4.0606,4.1504,0.0,4.232,4.1443,4.2853,4.2157,4.1487,4.2353,4.1869,4.1584,4.2245,4.1854,4.1473,4.1443,4.203,4.2551,4.25,4.3438,4.4203,4.4072,4.4758,4.4565,4.327,4.4318,4.4535,4.3492,4.3184,4.3299,4.3891,4.3828,4.3966,4.4518,4.5045,4.5321,4.5397,4.5949,4.6476,4.6954,4.7004,4.728,4.7732,4.7782,4.8109,4.8586,4.8661,4.8962,4.9414,4.9464,4.9766,5.0067,4.959,4.9715,5.0142,2.361,2.3102,2.2724,2.2676,2.3207,2.3328,2.222,2.363,2.4858,2.4824,2.532,2.5972,2.6569,2.5676,2.5432,2.6469,2.8733,3.075,3.2273,3.5184,3.7015,3.7404,3.8302,3.902,3.9409,3.9409,3.9409,3.9409,3.9409,3.9409,3.9409,3.9409,3.9409,3.9409,3.9409,3.9409,3.9409,3.9409,3.9409,3.9409,3.9409,3.9409,3.9409,3.9409,3.9409,3.9409,3.9409,3.9409,0.0,3.9858,3.9978,4.0068,4.0427,4.0307,3.9948,3.9649,3.929,3.917,4.0068,4.0696,4.1384,4.2432,4.2296,4.2164,4.2982,4.1967,4.1271,4.2593,4.1835,4.1287,4.2226,4.1533,4.1106,0.0,4.1752,4.1806,4.1806,4.2283,4.2635,4.2635,4.3161,4.3464,4.3464,4.3669,4.3602,4.3098,4.3492,4.3755,4.3438,4.3463,4.3714,4.4267,4.4292,4.4543,4.5121,4.5372,4.5799,4.6451,4.6677,4.7079,4.7581,4.7581,4.7883,4.841,4.841,4.8736,4.9264,4.959,4.9866,5.0117,5.0444,5.072,5.0845,5.0293,5.0444,5.0921,2.3432,2.2836,2.2498,2.2595,2.3073,2.3133,2.2326,2.3311,2.4205,2.4305,2.4236,2.4326,2.4872,2.3804,2.3232,2.3739,2.6569,2.9038,3.0665,3.4109,3.6446,3.7375,3.8033,3.8721,3.9409,3.9409,3.9409,3.9409,3.9409,3.9409,3.9409,3.9409,3.9409,3.9409,3.9409,3.9409,3.9409,3.9409,3.9409,3.9409,3.9409,3.9409,3.9409,3.9409,3.9409,3.9409,3.9409,3.9409,3.9499,3.9978,4.0127,4.0217,4.0696,4.0516,4.0157,4.0337,4.0068,4.0038,4.1654,4.2222,4.2671,4.3988,4.372,4.3195,4.3027,4.198,4.1297,4.2058,4.1382,4.0815,4.1722,4.1358,4.1103,4.1505,4.2032,4.2384,4.2384,4.2735,4.2986,4.2986,4.2986,4.2986,4.2986,4.2986,4.2986,4.2986,4.3112,4.3388,4.379,4.394,4.4292,4.4844,4.4869,4.5146,4.5698,4.5874,4.6351,4.7129,4.728,4.7631,4.8159,4.8309,4.8611,4.9012,4.9163,4.9464,4.9866,5.0419,5.067,5.0695,5.1122,5.1373,5.1448,5.1046,5.1147,5.1498,2.2859,2.2189,2.1927,2.2586,2.2696,2.2451,2.1744,2.2769,2.3385,2.259,2.1988,2.1625,2.1625,2.2078,2.2548,2.304,2.6074,2.8541,3.0016,3.3214,3.5769,3.7306,3.8033,3.8721,3.9409,3.9409,3.9409,3.9409,3.9409,3.9409,3.9409,3.9409,3.9409,3.9409,3.9409,3.9409,3.9409,3.9409,3.9409,3.9409,3.9409,3.9409,3.9409,3.9409,3.9409,3.9409,3.9409,3.9409,3.9409,3.9439,3.9439,3.9439,3.9469,3.9469,3.9589,4.0217,4.0397,4.0516,4.1235,4.1863,4.2671,4.3988,4.4796,4.506,4.4442,4.3364,4.2261,4.1728,4.1054,4.0475,4.0501,4.1379,4.2108,4.2133,4.2585,4.2961,4.2961,4.2961,4.2986,4.2986,4.2986,4.2986,0.0,4.2986,4.2986,4.2986,4.3463,4.379,4.379,4.4317,4.4869,4.5447,4.5472,4.5723,4.6276,4.6803,4.7104,4.7154,4.7631,4.8184,4.8761,4.9289,4.9565,4.959,5.0142,5.0368,5.0444,5.1021,5.1247,5.1247,5.1272,5.1599,5.2076,5.2076,5.2076,5.2076,2.3374,2.3502,2.3453,2.2768,2.3045,2.2853,2.1289,2.2522,2.3485,2.3226,2.3339,0.0,0.0,0.0,0.0,0.0,2.597,2.7878,2.9107,3.2083,3.4592,3.6353,3.7307,3.8272,3.9409,3.9409,3.9409,3.9409,3.9409,3.9409,3.9409,3.9409,3.9409,3.9409,3.9409,3.9409,3.9409,3.9409,3.9409,3.9409,3.9409,3.9409,3.9469,3.9918,3.9798,3.9409,0.0,3.9409,3.9349,3.8901,3.905,3.9499,3.9918,3.9768,3.9384,3.9308,4.014,4.1232,4.1975,4.3264,4.4452,4.4936,4.4582,4.3878,4.2766,4.1789,4.1079,4.0875,4.0967,4.1178,4.153,4.1907,4.2283,4.2635,4.2861,4.2986,4.2986,4.2986,4.2986,4.2986,4.2986,0.0,0.0,0.0,0.0,4.3514,4.4041,4.4518,4.4895,4.5095,4.5447,4.6024,4.6401,4.6677,4.6853,4.738,4.7832,4.8234,4.8761,4.9138,4.9314,4.9515,4.9791,5.0142,5.0343,5.0645,5.1046,5.1599,5.1825,5.1875,5.2226,5.2477,5.2653,5.2653,5.2653,5.2653,0.0,2.3961,2.4143,2.3456,2.3549,0.0,0.0,0.0,0.0,0.0,0.0,0.0,0.0,0.0,0.0,0.0,0.0,2.6778,2.8053,3.0317,3.2563,3.4711,3.5259,3.612,3.7667,3.7811,3.8144,3.8516,3.8907,3.917,3.9409,3.9409,3.9409,3.9409,3.9409,3.9409,3.9409,3.9409,3.9679,4.0068,3.9619,3.9709,4.0127,4.0068,3.9798,0.0,3.914,3.8835,3.85,3.8202,3.8482,3.914,3.9559,3.9888,4.004,3.9718,4.079,4.2276,4.3289,4.4418,4.5382,4.5631,4.506,4.4054,4.2545,4.1827,4.1304,4.0908,4.1254,4.1731,4.2082,4.2308,4.2559,4.2911,4.2986,4.2986,4.2986,4.2986,4.3062,4.3237,4.3263,4.3489,0.0,0.0,0.0,4.4116,4.4618,4.5095,4.5472,4.5673,4.6024,4.6602,4.6954,4.723,4.7405,4.7933,4.851,4.9063,4.9615,4.9891,4.9891,5.0117,5.0393,5.0745,5.0921,5.1222,5.1624,5.2176,5.2402,5.2427,5.2779,5.303,5.3206,5.3206,5.3331,5.3482,0.0,0.0,2.397,0.0,0.0,0.0,0.0,0.0,0.0,0.0,0.0,0.0,0.0,0.0,0.0,0.0,0.0,0.0,2.6913,2.8027,2.9847,3.2553,3.2152,3.275,3.451,3.4954,3.5697,3.6835,3.7765,3.8579,3.9277,3.9337,3.9337,3.9379,3.9409,3.9409,3.9379,3.9409,4.0127,4.1115,3.9785,4.0054,4.1085,3.9815,3.9337,3.9247,3.8631,3.7794,3.7026,3.7337,3.7883,3.8512,3.8542,3.9888,4.1474,4.1428,4.2354,4.3638,4.487,4.5257,4.545,4.5936,4.5995,4.5571,4.3584,4.3152,4.2762,4.1544,4.1781,4.2158,4.2108,4.2559,4.2936,4.2936,4.2961,4.2986,4.2986,4.3011,4.3212,4.374,4.3815,4.4066,4.4618,4.5171,0.0,4.4744,0.0,4.5522,4.5522,4.605,4.6602,4.7104,4.7179,4.7456,4.7958,4.8535,4.9088,4.9615,5.0142,5.0419,5.0444,5.1021,5.1297,5.1348,5.1875,5.2126,5.2176,5.2703,5.2955,5.298,5.298,5.3281,5.3758,5.3758,5.4084,5.4486,0.0,0.0,0.0,0.0,0.0,0.0,0.0,0.0,0.0,0.0,0.0,0.0,0.0,0.0,0.0,0.0,0.0,0.0,2.5345,2.7053,2.8798,3.0384,3.1406,3.2556,3.3973,3.4052,3.4506,3.5218,3.5892,3.6653,3.7623,3.8015,3.8355,3.8691,3.92,3.914,3.8691,3.92,3.932,3.9038,3.8032,3.8237,3.9098,3.8561,3.8294,3.8206,3.8317,3.7693,3.6924,3.7267,3.8512,3.9978,4.0457,4.1654,4.2753,4.2363,4.3455,4.465,4.4105,4.4972,4.5637,4.4239,4.3983,4.3531,4.2106,4.2144,4.2239,4.143,4.1781,4.2032,4.163,4.2007,4.2359,4.2359,4.271,4.2986,4.2986,4.3338,4.3639,4.379,4.4166,4.4644,4.5221,4.5397,0.0,0.0,4.6024,4.61,4.61,4.6627,4.6979,4.7129,4.7933,4.841,4.856,4.9113,4.9464,4.9615,5.0142,5.0419,5.0444,5.1021,5.1498,5.19,5.2051,5.2327,5.2729,5.2879,5.3155,5.3507,5.3507,5.3858,5.4336,5.4336,5.4436,5.4612,0.0,0.0,0.0,0.0,0.0,0.0,0.0,0.0,0.0,0.0,0.0,0.0,0.0,0.0,0.0,0.0,0.0,0.0,0.0,2.5755,2.7037,2.8248,2.9072,3.0067,3.1269,3.146,3.2218,3.3533,3.379,3.4678,3.6269,3.6228,3.6474,3.6939,3.7734,3.7913,3.7614,3.8242,3.8661,0.0,0.0,3.7491,3.874,3.7536,3.7053,3.7053,3.7579,3.7682,3.7717,3.7989,3.9327,4.0935,4.1594,4.2701,4.3707,4.3755,4.4684,4.5509,4.4556,4.5295,4.5704,4.3659,4.3414,4.331,4.2005,4.1932,4.2007,4.1455,4.158,4.1706,4.1404,4.1781,4.2158,4.2158,4.2811,4.3338,4.3338,4.3815,4.4267,4.4518,4.4819,4.5221,4.5799,4.5849,4.6075,0.0,4.6677,4.6677,4.6677,4.7179,4.7581,4.7832,4.846,4.8887,4.9138,4.9665,4.9967,4.9967,5.077,5.1172,5.1172,5.1749,5.2176,5.2477,0.0,5.2628,5.2955,5.3181,5.3432,5.3733,5.3984,5.4436,5.4938,5.4938,5.5089,5.534,0.0,0.0,0.0,0.0,0.0,0.0,0.0,0.0,0.0,0.0,2.2341,2.283,2.2565,2.3148,0.0,0.0,0.0,0.0,0.0,0.0,2.53,2.6527,2.6501,2.7012,2.8091,2.8386,2.9566,3.1672,3.1541,3.2643,3.4754,3.4101,3.4134,3.4802,3.5769,3.6261,3.6387,3.688,3.7804,3.8859,3.6619,3.6924,3.8585,0.0,3.5885,3.6043,3.6675,3.7699,3.8755,3.916,4.0418,4.1893,4.2551,4.3658,4.4825,4.5394,4.5992,4.6248,4.5566,4.5652,4.556,4.3694,4.352,4.3672,4.2486,4.2158,4.1982,4.1354,4.1229,4.1204,4.1128,4.163,4.2082,4.2158,4.3087,4.3815,4.389,4.4392,4.492,4.5422,4.5547,4.5773,4.625,4.6376,4.6627,4.7104,4.728,4.7305,4.723,4.7732,4.8284,4.8862,4.8887,4.9138,4.969,5.0167,5.0444,5.0544,5.1599,5.2101,5.2126,5.2678,5.2929,5.2929,0.0,0.0,5.3055,5.3507,5.3783,5.3984,5.4486,5.5013,5.5491,5.5491,5.5792,5.6219,0.0,0.0,0.0,0.0,0.0,0.0,0.0,0.0,0.0,0.0,2.4848,2.4106,0.0,0.0,0.0,0.0,0.0,0.0,0.0,0.0,0.0,2.7026,2.6738,2.7156,2.8438,2.7857,2.7957,2.8819,2.9221,3.0095,3.1342,3.1675,3.24,3.357,3.4254,3.4986,3.5633,3.5458,3.6006,3.682,3.4797,3.4754,3.5735,3.5363,0.0,0.0,3.711,3.7814,3.8312,4.0258,4.2186,4.3928,4.4586,4.5693,4.68,4.692,4.704,4.6815,4.5464,4.5274,4.4911,4.3367,4.3068,4.3017,4.2368,4.2158,4.1856,4.0852,4.0651,4.0526,4.0074,4.0802,4.163,4.2082,4.3087,4.3966,4.4418,4.497,4.5372,4.5472,4.5899,4.62,4.6301,4.6728,4.7029,0.0,0.0,4.8284,4.7807,4.8309,4.8887,4.9439,4.9464,4.9715,5.0268,5.0368,5.067,5.1147,5.18,5.2101,5.2126,5.2678,5.2929,5.2929,5.2929,0.0,5.3582,5.3658,5.426,5.5114,5.5214,5.5591,5.6068,5.6068,5.6118,5.6219,0.0,0.0,0.0,0.0,0.0,0.0,0.0,2.7026,2.7773,2.8126,2.8228,2.7681,2.6236,2.638,2.6078,0.0,0.0,0.0,0.0,0.0,0.0,2.6519,2.7003,2.7354,2.7481,2.7507,2.7736,2.8097,0.0,2.8769,2.9667,3.0431,3.101,3.1434,3.227,3.3089,3.3931,3.366,3.4259,3.5365,3.3945,3.3772,3.4502,3.4848,0.0,0.0,3.691,3.7453,3.7848,4.0081,4.2402,4.4436,4.5095,4.6232,4.7309,4.7309,4.7309,4.7051,4.6044,4.547,4.4819,4.3883,4.3288,4.276,4.1932,4.1731,4.143,4.0325,4.0099,3.9998,3.9747,4.035,4.1103,4.163,4.2886,4.3991,4.4543,4.5372,4.5924,4.5924,4.6401,4.6753,4.6753,4.723,4.7657,4.7958,0.0,4.8661,4.836,4.8887,4.9314,4.959,4.9866,5.0142,5.0419,5.0996,5.1423,5.1724,5.2277,5.2528,5.2553,5.2804,5.2929,5.2955,5.3206,0.0,5.3758,5.4336,5.4888,5.5415,5.5691,5.5968,5.6219,5.6219,5.6219,5.6219,0.0,0.0,0.0,0.0,0.0,0.0,2.7905,2.861,2.9342,3.0309,3.1308,3.1307,2.9696,2.9086,2.8426,0.0,0.0,0.0,0.0,0.0,0.0,0.0,2.7516,2.7769,2.7338,0.0,0.0,2.8543,2.7919,0.0,0.0,0.0,0.0,0.0,3.046,3.1384,3.2497,3.2145,3.2786,0.0,0.0,3.3532,3.4025,0.0,0.0,0.0,0.0,3.7167,3.7066,3.953,4.1709,4.3567,4.4534,4.5992,4.7279,4.713,4.7189,4.7109,4.6339,4.5621,4.4966,4.4492,4.3682,4.2796,4.1986,4.1544,4.1028,3.9923,3.9697,3.9722,3.9848,4.0325,4.0902,4.158,4.2886,4.4041,4.4719,4.5573,4.6175,4.6301,4.6803,4.7129,4.7129,4.7707,0.0,4.8736,0.0,0.0,4.8937,4.9364,4.964,4.9766,5.0193,5.0544,5.077,5.1649,5.2176,5.2277,5.2729,5.2929,5.2929,5.2929,5.298,5.3105,5.3532,0.0,0.0,5.5013,5.5465,5.5616,5.6043,5.6219,5.6219,5.6219,5.6219,5.6219,0.0,0.0,0.0,0.0,0.0,0.0,2.9122,2.9899,3.1031,3.2885,3.3214,3.3275,3.3065,3.1394,2.9518,0.0,0.0,0.0,0.0,0.0,0.0,0.0,0.0,0.0,0.0,0.0,0.0,2.9866,2.817,0.0,0.0,0.0,0.0,0.0,0.0,3.0425,3.2437,3.1587,0.0,0.0,0.0,0.0,0.0,0.0,0.0,0.0,0.0,3.7357,3.5466,3.9156,4.03,4.0604,4.2773,4.5244,4.7189,4.6591,4.683,4.6993,4.5593,4.5145,4.5075,4.4997,4.3965,4.2992,4.318,4.2237,4.1028,3.9923,3.9697,3.9848,4.035,4.0902,4.1605,4.266,4.3388,4.4192,4.5246,4.5497,4.5748,4.625,4.6803,4.7129,4.7129,4.8083,4.8711,0.0,0.0,0.0,0.0,4.9565,4.9816,5.0318,5.0393,5.0921,5.1925,5.2051,5.2352,5.2854,5.2904,5.2929,5.2929,5.2929,5.3181,5.3632,5.3683,0.0,0.0,5.534,5.5691,5.6143,5.6194,5.6219,5.6219,5.6219,5.6219,5.6219,0.0,0.0,0.0,0.0,0.0,0.0,2.9834,3.0342,3.136,3.3784,3.4083,3.4083,3.4083,3.3036,3.1634,2.9959,0.0,0.0,0.0,0.0,0.0,0.0,0.0,0.0,0.0,0.0,2.9405,3.0044,3.0207,0.0,0.0,0.0,0.0,0.0,0.0,3.0942,3.19,3.1355,0.0,0.0,0.0,0.0,0.0,0.0,0.0,0.0,0.0,0.0,3.5949,3.8102,3.9295,4.0039,4.1644,4.3256,4.4699,4.5973,4.6501,4.681,4.7415,4.6976,4.6587,4.7298,4.5603,4.3698,4.3414,4.2059,4.0626,3.9848,3.9697,3.9772,3.9973,4.0199,4.0701,4.1806,4.2459,4.3187,4.4317,4.4744,4.5171,4.5748,4.6602,4.7255,4.7581,0.0,0.0,0.0,0.0,0.0,0.0,5.0092,5.0193,5.0419,5.1071,5.1649,5.2101,5.2427,5.2703,5.2929,5.2929,5.2929,5.2929,5.3256,5.3507,5.3733,5.4411,0.0,0.0,5.5742,5.6018,5.6219,5.6219,5.6219,5.6219,5.6219,5.6219,5.6219,0.0,0.0,0.0,0.0,0.0,2.8008,3.0163,3.0492,3.139,3.3873,3.4173,3.4173,3.4173,3.3604,3.2826,3.1898,3.0689,0.0,0.0,0.0,0.0,0.0,0.0,0.0,0.0,0.0,3.0732,3.0928,3.1678,3.2074,0.0,0.0,3.262,3.1824,0.0,0.0,0.0,0.0,0.0,0.0,0.0,0.0,0.0,0.0,0.0,0.0,0.0,0.0,0.0,0.0,0.0,3.9431,4.0694,4.1401,4.2299,4.5149,4.5888,4.6164,4.791,4.7829,4.7425,4.8614,4.6514,4.4124,4.4055,4.219,4.035,3.9798,3.9697,3.9747,3.9898,4.0074,4.0501,4.143,4.2032,4.2735,4.3664,4.4141,4.4593,4.5171,4.6075,4.6928,4.7606,4.8837,0.0,0.0,0.0,0.0,0.0,5.0569,5.0745,5.0921,5.1699,5.2176,5.2352,5.2729,5.2929,5.2929,5.2929,5.2929,5.2955,5.3457,5.3808,5.4009,0.0,0.0,0.0,5.6043,5.6219,5.6219,5.6219,5.6219,5.6219,5.6219,5.6219,5.6219,0.0,0.0,0.0,0.0,0.0,0.0,3.0103,3.0492,3.121,3.3245,3.3514,3.3514,3.3514,3.2916,3.2527,3.2497,3.184,0.0,0.0,0.0,0.0,0.0,0.0,0.0,0.0,0.0,3.2457,3.3054,3.219,3.273,3.4409,3.2663,3.2388,3.3393,0.0,0.0,0.0,0.0,0.0,0.0,0.0,0.0,3.789,0.0,0.0,0.0,0.0,0.0,0.0,0.0,0.0,0.0,0.0,4.003,4.0394,4.4169,4.4961,4.4844,4.5901,4.6706,4.7338,4.8067,4.621,4.4436,4.5238,4.2884,4.035,3.9798,3.9697,3.9848,4.04,4.0953,4.1505,4.2057,4.261,4.3162,4.3714,4.3815,4.4016,4.4568,4.5146,4.5924,4.7029,4.8636,0.0,0.0,0.0,0.0,0.0,5.0971,5.1523,5.2076,5.2101,5.2377,5.2904,5.2929,5.2929,5.2929,5.2929,5.2929,5.2955,5.3457,5.4009,0.0,0.0,0.0,0.0,5.6219,5.6219,5.6219,5.6219,5.6219,5.6219,5.6219,5.6219,5.6219,0.0,0.0,0.0,0.0,0.0,0.0,2.8996,2.9205,2.9924,3.1898,3.2168,3.2497,3.3395,3.2916,3.2527,3.2527,3.1928,0.0,0.0,0.0,0.0,0.0,0.0,0.0,0.0,3.2576,3.3245,3.4061,3.4244,3.461,3.519,3.461,3.4257,3.4143,3.3179,3.2644,0.0,0.0,0.0,0.0,0.0,3.6589,3.6838,0.0,0.0,0.0,0.0,0.0,0.0,0.0,0.0,0.0,0.0,0.0,0.0,4.2828,4.3961,4.3889,4.385,4.5239,4.6497,4.591,4.4375,4.3141,4.346,4.1722,3.9898,3.9722,3.9697,3.9747,3.9923,4.0099,4.0526,4.1455,4.1756,4.2183,4.3112,4.3564,4.4141,4.5095,4.6702,4.8008,0.0,0.0,0.0,0.0,0.0,0.0,0.0,5.1548,5.1925,5.2101,5.2477,5.2754,5.2929,5.2929,5.2929,5.2929,5.2929,5.3105,5.3482,5.4034,0.0,0.0,0.0,0.0,0.0,5.6219,5.6219,5.6219,5.6219,5.6219,5.6219,5.6219,5.6219,5.6219,0.0,0.0,0.0,0.0,0.0,0.0,2.8487,2.8607,2.9205,3.0911,3.115,3.1659,3.2976,3.2527,3.2228,3.2497,3.1928,0.0,0.0,0.0,0.0,0.0,0.0,0.0,3.234,3.301,3.3774,3.4706,3.527,3.5639,3.5878,3.5878,3.5519,3.4831,3.3903,3.3275,0.0,0.0,0.0,0.0,3.6752,3.7128,3.7482,0.0,0.0,0.0,0.0,0.0,0.0,0.0,0.0,0.0,0.0,0.0,0.0,0.0,4.2067,4.2363,4.2918,4.4061,4.4854,4.4077,4.2928,4.2001,4.2001,4.0511,3.912,3.9346,3.9371,3.9446,3.9647,4.0023,4.0551,4.1229,4.1681,4.2258,4.3162,4.3589,4.4217,4.5347,4.723,0.0,0.0,0.0,0.0,0.0,0.0,0.0,0.0,0.0,5.2201,5.2402,5.2754,5.2929,5.2929,5.2929,5.303,5.3231,5.3231,5.3507,5.4059,5.4612,0.0,0.0,0.0,0.0,0.0,5.6219,5.6219,5.6219,5.6219,5.6219,5.6219,5.6219,5.6219,5.6219,0.0,0.0,0.0,0.0,0.0,0.0,0.0,2.8517,2.8966,3.0193,3.0402,3.0941,3.2228,3.1869,3.1779,3.2377,3.1898,0.0,0.0,0.0,0.0,0.0,0.0,0.0,3.2118,3.3114,3.4031,3.4958,3.5363,3.5878,3.6477,3.6477,3.6118,3.5459,3.4113,3.3484,3.3423,3.2553,0.0,0.0,3.6383,3.7344,0.0,0.0,0.0,0.0,0.0,0.0,0.0,0.0,0.0,0.0,0.0,0.0,0.0,0.0,0.0,0.0,0.0,4.2951,4.2574,4.2426,4.1518,4.0711,4.0711,3.9303,0.0,3.8693,3.8843,3.9044,3.9597,4.0576,4.1304,4.1379,4.2258,4.3112,4.3714,4.394,4.4443,4.5522,4.7054,0.0,0.0,0.0,0.0,0.0,0.0,0.0,0.0,0.0,5.2402,5.2904,5.2929,5.2929,5.2929,5.2929,5.3181,5.3708,5.3708,5.4034,5.4637,5.5164,0.0,0.0,0.0,0.0,0.0,5.6219,5.6219,5.6219,5.6219,5.6219,5.6219,5.6219,5.6219,5.6219,0.0,0.0,0.0,0.0,0.0,0.0,0.0,0.0,0.0,0.0,2.9475,3.0103,3.0881,3.13,3.1541,0.0,0.0,0.0,0.0,0.0,0.0,0.0,0.0,0.0,3.2405,3.3662,3.4409,3.4664,3.5753,3.6327,3.6477,3.6477,3.6118,3.5459,3.4113,3.3484,3.3484,3.33,0.0,0.0,3.6663,3.7105,0.0,0.0,0.0,0.0,3.909,3.9265,0.0,0.0,0.0,0.0,0.0,0.0,0.0,0.0,3.8714,3.7623,3.9921,0.0,4.028,3.8843,3.862,3.8659,0.0,3.8288,3.804,3.8191,3.8567,3.9044,3.9597,4.0249,4.0978,4.1831,4.2183,4.2685,4.3664,4.5271,4.6602,4.7255,4.8435,4.9188,0.0,0.0,0.0,0.0,0.0,0.0,0.0,0.0,5.2804,5.2929,5.2929,5.2929,5.2929,5.2929,5.3181,5.3708,5.3708,5.4235,5.5189,5.534,0.0,0.0,0.0,0.0,5.6219,5.6219,5.6219,5.6219,5.6219,5.6219,5.6219,5.6219,5.6219,5.6219,0.0,0.0,0.0,0.0,0.0,0.0,0.0,0.0,0.0,0.0,2.9175,2.9714,3.0043,3.0941,3.1362,0.0,0.0,0.0,0.0,0.0,0.0,0.0,0.0,3.2198,3.2497,3.3215,3.4023,3.4951,3.5669,3.6178,3.6477,3.6477,3.5968,3.4981,3.3963,3.3484,3.3514,3.3814,3.528,3.7345,3.6746,0.0,0.0,0.0,0.0,0.0,3.8502,3.8694,0.0,3.8694,3.8694,3.8797,0.0,0.0,0.0,0.0,3.8286,3.6956,3.8473,3.8445,3.7774,3.7304,3.7191,3.7262,3.7262,3.7262,3.7337,3.7588,3.809,3.8642,3.922,4.0375,4.1379,4.1731,4.2635,4.3589,4.4443,4.5824,4.7054,4.7807,4.8686,0.0,0.0,0.0,0.0,0.0,0.0,0.0,0.0,0.0,5.2929,5.2929,5.2929,5.2929,5.2929,5.2929,5.3331,5.411,5.411,5.4687,5.5767,5.5767,5.5942,0.0,0.0,0.0,5.6219,5.6219,5.6219,5.6219,5.6219,5.6219,5.6219,5.6219,5.6219,5.6219,0.0,0.0,0.0,0.0,0.0,0.0,0.0,0.0,0.0,0.0,0.0,0.0,0.0,0.0,0.0,0.0,0.0,0.0,0.0,0.0,0.0,0.0,3.1482,3.1839,3.2497,3.2527,3.3395,3.519,3.5519,3.5938,3.6477,3.6567,3.5818,3.4292,3.3754,3.3484,3.3544,3.4203,3.5549,3.7225,3.6596,0.0,0.0,0.0,0.0,0.0,0.0,0.0,0.0,3.7965,3.7919,3.7994,3.9017,0.0,0.0,0.0,0.0,0.0,3.8005,3.705,3.6157,3.6828,3.6845,3.6615,3.6351,3.6307,3.6483,3.696,3.7563,3.8216,3.8868,4.0651,4.1932,4.163,4.3288,4.4844,4.5522,4.615,4.6928,4.7933,4.8535,0.0,0.0,0.0,0.0,0.0,0.0,0.0,0.0,0.0,0.0,5.2929,5.2929,5.2929,5.2929,5.3005,5.3557,5.4561,5.4637,5.5214,5.6219,5.6219,5.6219,0.0,0.0,0.0,5.6219,5.6219,5.6219,5.6219,5.6219,5.6219,5.6219,5.6219,5.6219,5.6219,0.0,0.0,0.0,0.0,0.0,0.0,0.0,0.0,0.0,0.0,0.0,0.0,0.0,0.0,0.0,0.0,0.0,0.0,0.0,0.0,0.0,3.1482,3.1482,3.1839,3.2497,3.2527,3.2946,3.3814,3.5489,3.6387,3.6507,3.7015,3.5968,3.3634,3.3544,3.3484,3.3544,3.4203,3.531,3.6567,3.5908,0.0,0.0,0.0,0.0,0.0,0.0,0.0,0.0,3.8693,3.8546,3.7994,3.9017,0.0,0.0,0.0,0.0,0.0,3.8239,3.8308,3.7738,3.6674,3.7164,3.7456,3.5941,3.6031,3.6383,3.6458,3.7287,3.8316,3.9371,4.0601,4.1731,4.2585,4.379,4.4995,4.6024,4.7029,4.7908,4.856,0.0,0.0,0.0,0.0,0.0,0.0,0.0,0.0,0.0,0.0,0.0,5.2929,5.2929,5.2929,5.2929,5.3356,5.3909,5.4587,5.5039,5.5591,5.6219,5.6219,5.6219,0.0,0.0,5.6219,5.6219,5.6219,5.6219,5.6219,5.6219,5.6219,5.6219,5.6219,5.6219,5.6219,0.0,0.0,0.0,0.0,0.0,0.0,0.0,0.0,0.0,0.0,0.0,0.0,0.0,0.0,0.0,0.0,0.0,0.0,0.0,0.0,3.1631,3.2048,3.2048,3.2198,3.2497,3.3215,3.3903,3.4592,3.6207,3.6985,3.6956,3.6178,3.4981,3.3484,3.3484,3.3484,3.3574,3.4592,3.5609,3.6417,0.0,0.0,0.0,0.0,0.0,0.0,0.0,0.0,0.0,0.0,3.7434,3.7387,3.8139,0.0,0.0,0.0,0.0,0.0,3.7203,3.7564,3.7915,3.8588,3.9925,4.0935,4.0201,3.9607,3.9136,3.8947,3.8911,3.9247,4.0514,4.1559,4.2785,4.4493,4.4694,4.5121,4.6552,4.6928,4.7481,0.0,0.0,0.0,0.0,0.0,0.0,0.0,0.0,0.0,0.0,0.0,0.0,0.0,5.2929,5.3055,5.3331,5.3884,5.431,5.4587,5.5114,5.5666,5.6219,5.6219,5.6219,5.6219,0.0,5.6219,5.6219,5.6219,5.6219,5.6219,5.6219,5.6219,5.6219,5.6219,5.6219,5.6219,0.0,0.0,0.0,0.0,0.0,0.0,0.0,0.0,0.0,0.0,0.0,0.0,0.0,0.0,0.0,0.0,0.0,0.0,0.0,3.1482,3.1839,3.2497,3.2527,3.2736,3.3215,3.4053,3.4891,3.5729,3.6866,3.7404,3.7375,3.5729,3.4502,3.3724,3.3724,3.3724,3.3814,3.5011,3.5789,3.6207,0.0,0.0,0.0,0.0,0.0,0.0,0.0,0.0,0.0,0.0,0.0,0.0,0.0,0.0,0.0,3.5892,3.5852,3.6239,3.6377,3.7226,3.8496,4.0526,4.1967,4.2978,4.3491,4.2304,4.1029,4.1099,4.0711,4.0594,4.1458,4.246,4.3765,4.5623,4.5296,4.5397,4.7079,4.6954,0.0,0.0,0.0,0.0,0.0,0.0,0.0,0.0,0.0,0.0,0.0,0.0,0.0,5.2929,5.2929,5.3181,5.3683,5.4285,5.4637,5.4762,5.5315,5.5792,5.6219,5.6219,5.6219,5.6219,5.6219,5.6219,5.6219,5.6219,5.6219,5.6219,5.6219,5.6219,5.6219,5.6219,5.6219,5.6219,0.0,0.0,0.0,0.0,0.0,0.0,0.0,0.0,0.0,0.0,0.0,0.0,0.0,0.0,0.0,0.0,0.0,0.0,0.0,3.1482,3.1839,3.2497,3.2527,3.3395,3.525,3.4771,3.51,3.6417,3.7075,3.7404,3.7404,3.6686,3.5639,3.4412,3.4412,3.4412,3.4442,3.519,3.5519,3.5579,3.5519,0.0,0.0,0.0,0.0,0.0,0.0,0.0,0.0,0.0,0.0,0.0,0.0,0.0,3.5598,3.5991,3.6156,3.6322,3.693,3.8771,4.0775,4.1579,4.0838,4.0456,4.2558,4.0962,3.9517,4.1267,4.206,4.216,4.1423,4.2585,4.3966,4.4644,4.5121,4.5999,4.7631,0.0,0.0,0.0,0.0,0.0,0.0,0.0,0.0,0.0,0.0,0.0,0.0,0.0,0.0,5.2929,5.2929,5.3181,5.3683,5.4285,5.4813,5.534,5.5892,5.6168,5.6219,5.6219,5.6219,5.6219,5.6219,5.6219,5.6219,5.6219,5.6219,5.6219,5.6219,5.6219,5.6219,5.6219,5.6219,5.6219,0.0,0.0,0.0,0.0,0.0,0.0,0.0,0.0,0.0,0.0,0.0,0.0,0.0,0.0,0.0,0.0,0.0,0.0,0.0,3.13,3.1839,3.2497,3.2916,3.3664,3.4831,3.5429,3.6357,3.7674,3.7913,3.7823,3.7375,3.5908,3.4741,3.3873,3.3873,3.3873,3.3933,3.504,3.5519,3.5519,3.5519,3.5519,0.0,0.0,0.0,0.0,0.0,0.0,0.0,0.0,3.5467,3.5337,3.5918,3.5896,3.5582,3.5128,3.5739,3.657,3.6563,3.8625,4.1047,4.1901,4.206,4.2503,4.4809,4.4115,4.3506,4.5427,4.4656,4.331,4.2452,4.4811,4.6547,4.5396,4.6397,4.7452,0.0,0.0,0.0,0.0,0.0,0.0,0.0,0.0,0.0,0.0,0.0,0.0,0.0,0.0,0.0,5.2929,5.2929,5.3356,5.4235,5.4461,5.5013,5.5892,5.6118,5.6219,5.6219,5.6219,5.6219,5.6219,5.6219,5.6219,5.6219,5.6219,5.6219,5.6219,5.6219,5.6219,5.6219,5.6219,5.6219,5.6219,0.0,0.0,0.0,0.0,0.0,0.0,0.0,0.0,0.0,0.0,0.0,0.0,0.0,0.0,0.0,0.0,0.0,0.0,3.0791,3.1061,3.1599,3.2467,3.2946,3.3694,3.4771,3.5908,3.7015,3.8093,3.8093,3.7644,3.6776,3.522,3.4233,3.3814,3.3814,3.3933,3.4203,3.51,3.5519,3.5519,3.5519,3.5519,0.0,0.0,0.0,0.0,0.0,0.0,0.0,0.0,3.4835,3.4744,3.5221,3.5241,3.5079,3.4836,3.6184,3.7691,3.7394,3.9247,4.1565,4.2533,4.279,4.3484,4.6101,4.5591,4.5219,4.8018,4.6689,4.5049,4.4692,4.6541,4.7752,4.6373,4.7496,0.0,0.0,0.0,0.0,0.0,0.0,0.0,0.0,0.0,0.0,0.0,0.0,0.0,0.0,0.0,0.0,0.0,5.2929,5.3457,5.4561,5.4561,5.5114,5.6219,5.6219,5.6219,5.6219,5.6219,5.6219,5.6219,5.6219,5.6219,5.6219,5.6219,5.6219,5.6219,5.6219,5.6219,5.6219,5.6219,5.6219,5.6219,0.0,0.0,0.0,0.0,0.0,0.0,0.0,0.0,0.0,0.0,0.0,0.0,0.0,0.0,0.0,0.0,0.0,0.0,3.1362,3.0881,3.1091,3.2437,3.2497,3.3425,3.5429,3.6118,3.6776,3.7404,3.7404,3.6746,3.5489,3.4771,3.4472,3.4472,3.4472,3.4861,3.5489,3.5489,3.5489,3.5489,3.5489,3.5489,3.5519,0.0,0.0,0.0,0.0,0.0,0.0,0.0,3.4013,3.4128,3.4831,3.4299,3.3761,3.5381,3.7728,3.9765,3.9765,4.1106,4.2585,4.351,4.2707,4.2565,4.5921,4.4414,4.3571,4.8207,4.8139,4.7288,4.8,4.7325,4.6975,4.7581,0.0,0.0,0.0,0.0,0.0,0.0,0.0,0.0,0.0,0.0,0.0,0.0,0.0,0.0,0.0,0.0,0.0,0.0,5.2929,5.3457,5.4561,5.4561,5.5114,5.6219,5.6219,5.6219,5.6219,5.6219,5.6219,5.6219,5.6219,5.6219,5.6219,5.6219,5.6219,5.6219,5.6219,5.6219,5.6219,5.6219,5.6219,5.6219,0.0,0.0,0.0,0.0,0.0,0.0,0.0,0.0,0.0,0.0,0.0,0.0,0.0,0.0,0.0,0.0,0.0,0.0,3.0133,2.9983,3.0223,3.1061,3.1569,3.2108,3.2706,3.3814,3.537,3.7404,3.6956,3.6088,3.4771,3.4113,3.3784,3.3814,3.4262,3.4322,3.4113,3.4592,3.4771,3.4771,3.4771,3.507,3.5519,0.0,0.0,0.0,0.0,0.0,0.0,0.0,0.0,0.0,3.5274,3.5457,3.5536,3.5222,3.6895,3.8649,3.7924,4.094,4.4146,4.307,4.4917,4.717,4.7674,4.6446,4.5816,4.8028,4.8066,4.7471,4.6625,4.6933,4.6996,4.6218,0.0,0.0,0.0,0.0,0.0,0.0,0.0,0.0,0.0,0.0,0.0,0.0,0.0,0.0,0.0,0.0,0.0,0.0,5.2929,5.3457,5.4561,5.4561,5.5114,5.6219,5.6219,5.6219,5.6219,5.6219,5.6219,5.6219,5.6219,5.6219,5.6219,5.6219,5.6219,5.6219,5.6219,5.6219,5.6219,5.6219,5.6219,5.6219,0.0,0.0,0.0,0.0,0.0,0.0,0.0,0.0,0.0,0.0,3.1482,3.1482,0.0,0.0,0.0,0.0,0.0,0.0,2.9953,2.9953,3.0253,3.0881,3.1569,3.2168,3.2677,3.3754,3.4801,3.5848,3.5489,3.4891,3.4083,3.3694,3.3634,3.3903,3.4592,3.4502,3.3903,3.4292,3.4472,3.4472,3.4472,3.4891,3.5519,0.0,0.0,0.0,0.0,0.0,0.0,0.0,0.0,0.0,3.5359,3.5466,3.5642,3.6131,3.8263,4.0368,4.0499,4.3442,4.6381,4.5992,4.7399,4.8805,4.8351,4.8282,4.8159,4.7443,4.8534,4.9005,4.6967,4.805,0.0,0.0,0.0,0.0,0.0,0.0,0.0,0.0,0.0,0.0,0.0,0.0,0.0,0.0,0.0,0.0,0.0,0.0,0.0,0.0,5.2929,5.3457,5.4561,5.4561,5.5114,5.6219,5.6219,5.6219,5.6219,5.6219,5.6219,5.6219,5.6219,5.6219,5.6219,5.6219,5.6219,5.6219,5.6219,5.6219,5.6219,5.6219,5.6219,5.6219,0.0,0.0,0.0,0.0,0.0,0.0,0.0,0.0,0.0,3.1302,3.1452,3.1482,0.0,0.0,0.0,3.1482,3.0911,3.0492,3.0492,3.0462,3.0761,3.1452,3.2228,3.3155,3.4352,3.4951,3.4622,3.3395,3.3455,3.3455,3.3395,3.3455,3.3844,3.4502,3.513,3.504,3.4382,3.4322,3.4292,3.4292,3.4352,3.4771,3.534,3.54,0.0,0.0,0.0,0.0,0.0,0.0,0.0,0.0,3.5222,3.489,3.4669,3.7327,4.0398,4.3379,4.5281,4.707,4.8716,5.0511,4.9733,4.8476,4.8354,4.9685,5.0048,4.6705,4.907,5.0875,4.8235,4.9775,0.0,0.0,0.0,0.0,0.0,0.0,0.0,0.0,0.0,0.0,0.0,0.0,0.0,0.0,0.0,0.0,0.0,0.0,0.0,0.0,5.298,5.3507,5.4561,5.4612,5.5164,0.0,5.6219,5.6219,5.6219,5.6219,5.6219,5.6219,5.6219,5.6219,5.6219,5.6219,5.6219,5.6219,5.6219,5.6219,5.6219,5.6219,5.6219,5.6219,0.0,0.0,0.0,0.0,0.0,0.0,0.0,0.0,3.0552,3.0702,3.121,3.1482,3.1482,3.1482,0.0,3.1482,3.0911,3.0492,3.0492,3.0043,3.0313,3.1422,3.2647,3.3425,3.3694,3.3335,3.3006,3.2736,3.3245,3.3215,3.2736,3.3245,3.3844,3.4472,3.4622,3.4322,3.3664,3.3155,3.2946,3.2976,3.3484,3.3784,3.3993,3.4502,3.4711,0.0,0.0,0.0,0.0,0.0,0.0,0.0,3.5302,3.5317,3.5552,3.5677,3.809,4.0949,4.2157,4.5304,4.8386,4.8805,4.9763,5.0258,4.9194,4.9368,4.9092,4.7212,4.7349,4.7866,4.7615,0.0,0.0,0.0,0.0,0.0,0.0,0.0,0.0,0.0,0.0,0.0,0.0,0.0,0.0,0.0,0.0,0.0,0.0,0.0,0.0,5.2929,5.3331,5.3858,5.4561,5.4988,5.5541,0.0,5.6219,5.6219,5.6219,5.6219,5.6219,5.6219,5.6219,5.6219,5.6219,5.6219,5.6219,5.6219,5.6219,5.6219,5.6219,5.6219,5.6219,5.6219,0.0,0.0,0.0,0.0,0.0,0.0,0.0,0.0,3.0492,3.0492,3.1091,3.1362,3.1091,3.1031,0.0,0.0,3.0522,3.0372,3.0073,3.0342,3.1091,3.2407,3.3125,3.3484,3.3484,3.2856,3.2347,3.2048,3.2048,3.2228,3.2527,3.2856,3.3365,3.3993,3.3993,3.3634,3.3006,3.2647,3.2527,3.2527,3.2886,3.3215,3.3544,3.3873,3.3993,3.4053,3.4352,0.0,0.0,0.0,0.0,0.0,0.0,0.0,3.5597,3.6173,3.8005,4.0437,4.282,4.5832,4.8506,4.9464,4.9957,4.9873,4.8539,4.8738,4.861,4.6303,4.689,4.7999,0.0,0.0,0.0,0.0,0.0,0.0,0.0,0.0,0.0,0.0,0.0,0.0,0.0,0.0,0.0,0.0,0.0,0.0,0.0,5.3291,5.2929,5.2929,5.3432,5.3984,5.4561,5.5114,5.5666,5.6219,5.6219,5.6219,5.6219,5.6219,5.6219,5.6219,5.6219,5.6219,5.6219,5.6219,5.6219,5.6219,5.6219,5.6219,5.6219,5.6219,5.6219,5.6219,0.0,0.0,0.0,0.0,0.0,0.0,0.0,0.0,0.0,3.0342,3.1031,3.127,3.0582,3.0492,3.0253,0.0,0.0,0.0,2.9624,3.0821,3.2078,3.3275,3.3425,3.3484,3.3484,3.2736,3.2078,3.1482,3.0731,3.0971,3.2168,3.2287,3.2766,3.3484,3.3365,3.3036,3.2497,3.2407,3.2347,3.2347,3.2467,3.2766,3.3155,3.3275,3.3335,3.3395,3.3933,3.4203,3.4442,3.522,0.0,0.0,0.0,0.0,3.4839,3.6859,3.8294,4.002,4.4037,4.6668,4.8745,5.072,5.0383,4.9161,4.7503,4.8239,4.8477,4.5883,4.7207,0.0,0.0,0.0,0.0,0.0,0.0,0.0,0.0,0.0,0.0,0.0,0.0,0.0,0.0,0.0,0.0,0.0,0.0,0.0,0.0,5.3674,5.2929,5.2929,5.3532,5.4084,5.4561,5.5214,5.5767,5.6219,5.6219,5.6219,5.6219,5.6219,5.6219,5.6219,5.6219,5.6219,5.6219,5.6219,5.6219,5.6219,5.6219,5.6219,5.6219,5.6219,5.6219,5.6219,0.0,0.0,0.0,0.0,0.0,0.0,0.0,0.0,0.0,0.0,3.0761,3.127,3.0582,3.0492,3.0253,2.9624,3.0133,3.0253,2.9624,0.0,0.0,3.2617,3.3185,3.3484,3.3484,3.2287,3.1571,3.1482,3.0313,3.0073,3.0791,3.139,3.2317,3.3455,3.2886,3.2587,3.2467,3.1898,3.1601,3.1661,3.2287,3.2228,3.1869,3.2437,3.2647,3.2647,3.2736,3.3155,3.3814,3.507,3.4905,0.0,0.0,0.0,3.303,3.548,3.6375,3.7428,4.1704,4.549,4.8745,5.072,5.1105,5.0287,4.7707,4.8239,4.9109,0.0,0.0,0.0,0.0,0.0,0.0,0.0,0.0,0.0,0.0,0.0,0.0,0.0,0.0,0.0,0.0,0.0,0.0,0.0,0.0,0.0,0.0,5.3042,5.2929,5.2929,5.3909,5.4486,5.4561,5.5591,5.6143,5.6219,5.6219,5.6219,5.6219,5.6219,5.6219,5.6219,5.6219,5.6219,5.6219,5.6219,5.6219,5.6219,5.6219,5.6219,5.6219,5.6219,5.6219,5.6219,0.0,0.0,0.0,0.0,0.0,0.0,0.0,0.0,0.0,0.0,0.0,3.127,3.0582,3.0492,3.0103,2.9116,2.9624,2.9864,2.9594,3.0432,3.127,3.1928,3.2228,3.2407,3.2407,3.145,3.0791,3.0432,2.9505,2.9535,3.0492,3.0462,3.115,3.2377,3.2108,3.1958,3.1958,3.1601,3.1482,3.1511,3.178,3.2467,3.3095,3.2287,3.2647,3.3514,3.2766,3.2706,3.3155,3.4472,3.4634,3.4398,3.5045,0.0,0.0,0.0,3.5322,3.6684,4.1744,4.5255,4.7965,5.0534,5.0603,4.9582,4.7503,4.8239,4.8679,4.6967,0.0,0.0,0.0,0.0,0.0,0.0,0.0,0.0,0.0,0.0,0.0,0.0,0.0,0.0,0.0,0.0,0.0,0.0,0.0,0.0,5.2929,5.2929,5.2929,5.2929,5.4009,5.4561,5.4561,5.5666,5.6219,5.6219,5.6219,5.6219,5.6219,5.6219,5.6219,5.6219,5.6219,5.6219,5.6219,5.6219,5.6219,5.6219,5.6219,5.6219,5.6219,5.6219,5.6219,5.6219,0.0,0.0,0.0,0.0,0.0,0.0,0.0,0.0,0.0,0.0,0.0,3.1091,3.0552,0.0,0.0,0.0,2.9205,2.9594,2.9594,2.9864,3.0342,3.1001,3.118,3.121,3.1031,3.0522,2.9953,2.9325,2.8667,2.8996,3.0253,2.9804,3.0283,3.1482,3.1482,3.1571,3.1749,3.142,3.1422,3.175,3.1958,3.3006,3.4382,3.3395,3.3933,3.5011,3.3544,3.3006,3.3155,3.3963,3.4077,3.4006,3.4688,3.4612,0.0,0.0,0.0,3.642,4.1254,4.4007,4.625,4.9608,4.9887,4.8982,4.7853,4.8439,4.8578,0.0,0.0,0.0,0.0,0.0,0.0,0.0,0.0,0.0,0.0,0.0,0.0,0.0,0.0,0.0,0.0,0.0,0.0,0.0,0.0,0.0,5.2929,5.2929,5.2929,5.2929,5.4009,5.4561,5.4561,5.5666,5.6219,5.6219,5.6219,5.6219,5.6219,5.6219,5.6219,5.6219,5.6219,5.6219,5.6219,5.6219,5.6219,5.6219,5.6219,5.6219,5.6219,5.6219,5.6219,5.6219,0.0,0.0,0.0,0.0,0.0,0.0,0.0,0.0,0.0,0.0,0.0,3.0552,3.0492,3.0492,2.9983,2.8697,2.9205,2.9594,2.9594,2.9026,2.8996,2.9654,3.0253,0.0,2.9684,2.9654,2.9295,2.8637,2.7949,2.8308,2.9624,2.9594,3.0283,3.1482,3.1482,3.1869,3.2377,3.1091,3.13,3.2527,3.3155,3.3814,3.4651,3.6417,3.7165,3.7015,3.507,3.4382,3.4292,3.3724,3.2926,3.2378,3.3078,3.3078,3.272,0.0,0.0,0.0,3.8672,4.0716,4.3076,4.7346,4.8895,4.9278,4.9097,4.9161,4.9109,0.0,0.0,0.0,0.0,0.0,0.0,0.0,0.0,0.0,0.0,0.0,0.0,0.0,0.0,0.0,0.0,0.0,0.0,0.0,0.0,0.0,5.2929,5.2929,5.2929,5.2929,5.4009,5.4561,5.4561,5.5666,5.6219,5.6219,5.6219,5.6219,5.6219,5.6219,5.6219,5.6219,5.6219,5.6219,5.6219,5.6219,5.6219,5.6219,5.6219,5.6219,5.6219,5.6219,5.6219,5.6219,0.0,0.0,0.0,0.0,0.0,0.0,0.0,0.0,0.0,0.0,0.0,0.0,0.0,3.0761,3.0163,2.9295,2.8637,2.8098,2.7679,2.7829,2.8038,2.8329,2.9325,2.9804,2.9594,2.9594,2.9265,2.8607,2.7919,2.8038,2.8966,2.9385,3.0043,3.0881,3.0881,3.124,3.1809,3.0911,3.1031,3.2018,3.3514,3.5011,3.6447,3.7135,3.8482,3.9709,3.7704,3.6477,3.5789,3.5938,3.4966,3.3672,3.3972,3.3529,3.2873,3.2399,3.2775,3.4061,3.7295,3.8596,4.0027,4.3901,4.5631,4.6415,4.6756,4.7347,4.7763,0.0,0.0,0.0,0.0,0.0,0.0,0.0,0.0,0.0,0.0,0.0,0.0,0.0,0.0,0.0,0.0,0.0,0.0,0.0,0.0,0.0,5.2929,5.2929,5.2929,5.2929,5.4009,5.4913,5.5616,5.6018,5.6219,5.6219,5.6219,5.6219,5.6219,5.6219,5.6219,5.6219,5.6219,5.6219,5.6219,5.6219,5.6219,5.6219,5.6219,5.6219,5.6219,5.6219,5.6219,5.6219,0.0,0.0,0.0,0.0,0.0,0.0,0.0,0.0,3.0432,3.0253,0.0,0.0,0.0,0.0,3.0492,2.9654,2.8547,2.753,2.6662,2.72,2.752,2.726,2.8757,2.9475,2.9265,2.9654,2.9475,2.8607,2.8128,2.8158,2.8607,2.9056,2.9714,3.0492,3.0043,3.0612,3.1809,3.0881,3.1031,3.2048,3.4262,3.5789,3.6926,3.8482,3.9768,4.0576,3.9469,3.8392,3.7554,3.8212,3.7554,3.6297,3.5073,3.3623,3.2337,3.185,3.2045,3.3014,3.56,3.6625,3.7772,4.1128,4.2564,4.3686,4.5717,4.5868,4.5885,0.0,0.0,0.0,0.0,0.0,0.0,0.0,0.0,0.0,0.0,0.0,0.0,0.0,0.0,0.0,0.0,0.0,0.0,0.0,0.0,0.0,5.2929,5.2929,5.3105,5.3457,5.4185,5.5089,5.6194,5.6219,5.6219,5.6219,5.6219,5.6219,5.6219,5.6219,5.6219,5.6219,5.6219,5.6219,5.6219,5.6219,5.6219,5.6219,5.6219,5.6219,5.6219,5.6219,5.6219,5.6219,0.0,0.0,0.0,0.0,0.0,0.0,3.0642,3.0552,3.0821,3.1392,0.0,0.0,0.0,0.0,0.0,2.9684,2.8996,2.8038,2.6692,2.72,2.726,2.6632,2.8487,2.9265,2.8637,2.9864,2.9894,2.8637,2.8607,2.8577,2.8577,2.8577,2.9265,3.0402,2.9175,3.0043,3.2347,3.1001,3.124,3.2736,3.537,3.6088,3.6118,4.0606,4.1205,3.9709,4.0337,4.0127,3.9649,4.0307,4.0427,3.9712,3.6195,3.3123,3.087,3.1116,3.1909,3.2883,0.0,0.0,0.0,3.9074,3.9976,4.1299,4.6189,4.4816,4.3712,0.0,0.0,0.0,0.0,0.0,0.0,0.0,0.0,0.0,0.0,0.0,0.0,0.0,0.0,0.0,0.0,0.0,0.0,0.0,0.0,5.2929,5.2929,5.2929,5.3432,5.4536,5.4561,5.5089,5.6194,5.6219,5.6219,5.6219,5.6219,5.6219,5.6219,5.6219,5.6219,5.6219,5.6219,5.6219,5.6219,5.6219,5.6219,5.6219,5.6219,5.6219,5.6219,5.6219,5.6219,5.6219,0.0,0.0,0.0,0.0,0.0,3.2557,3.142,3.2048,3.2407,0.0,0.0,0.0,3.2587,3.1928,3.1001,2.9684,2.9415,2.8547,2.6722,2.6752,2.6782,2.6602,2.8038,2.8996,2.9295,3.0103,3.0103,2.9295,2.8846,2.8338,2.7859,2.8368,2.8786,2.9146,2.9265,2.9714,3.0342,2.9475,3.0432,3.2617,3.3844,3.5938,3.8571,4.0816,4.2791,4.4436,4.4616,4.3958,4.3,4.318,4.1324,3.824,3.4041,3.2124,3.1182,3.0413,3.0902,3.1894,3.2453,0.0,0.0,0.0,0.0,0.0,4.0892,0.0,0.0,0.0,0.0,0.0,0.0,0.0,0.0,0.0,0.0,0.0,0.0,0.0,0.0,0.0,0.0,0.0,0.0,0.0,0.0,0.0,5.2929,5.2929,5.2929,5.2929,5.3432,5.4536,5.4561,5.5089,5.6194,5.6219,5.6219,5.6219,5.6219,5.6219,5.6219,5.6219,5.6219,5.6219,5.6219,5.6219,5.6219,5.6219,5.6219,5.6219,5.6219,5.6219,5.6219,5.6219,5.6219,5.6219,0.0,0.0,3.3574,3.3844,3.3903,3.3754,3.3275,3.3604,3.3844,0.0,0.0,0.0,3.3425,3.2736,3.1839,3.0522,3.0133,2.9116,2.7141,2.6991,2.6871,2.6602,2.8158,2.9175,2.9564,3.0462,3.0612,2.9953,2.9594,2.9056,2.8479,2.8547,2.8757,2.8996,2.8816,2.9205,2.9894,2.8667,2.9535,3.1898,3.4502,3.6596,3.8512,4.1474,4.3299,4.4407,4.5514,4.4855,4.3718,4.5095,4.2731,3.8644,3.5305,3.3762,3.2748,3.0183,3.1111,3.2826,3.2086,3.2466,3.3219,3.3771,0.0,0.0,3.9903,4.0335,0.0,0.0,0.0,0.0,0.0,0.0,0.0,0.0,0.0,0.0,0.0,0.0,0.0,0.0,0.0,0.0,0.0,0.0,0.0,0.0,5.2804,5.2929,5.2929,5.2929,5.3432,5.4536,5.4561,5.5089,5.6194,5.6219,5.6219,5.6219,5.6219,5.6219,5.6219,5.6219,5.6219,5.6219,5.6219,5.6219,5.6219,5.6219,5.6219,5.6219,5.6219,5.6219,5.6219,5.6219,5.6219,5.6219,0.0,0.0,3.3933,3.4592,3.4711,3.4891,3.5519,3.516,3.522,0.0,3.537,3.4651,3.4771,3.4083,3.3066,3.1749,3.1091,2.9864,2.7829,2.773,2.738,2.6722,2.8487,2.9475,2.9475,3.0761,3.1091,3.0402,3.0462,3.0163,2.9475,2.8876,2.8876,2.9295,2.815,2.8547,3.0073,2.8457,2.8966,3.124,3.5938,3.7464,3.7464,4.2342,4.3299,4.2342,4.4676,4.4407,4.3329,4.6142,4.4347,4.0545,3.8489,3.7082,3.5283,3.0877,3.2326,3.4947,3.2371,3.2349,3.3194,3.3696,3.3495,0.0,4.0677,4.0773,0.0,0.0,0.0,0.0,0.0,0.0,0.0,0.0,0.0,0.0,0.0,0.0,0.0,0.0,0.0,0.0,0.0,0.0,5.1498,5.2076,5.2628,5.2929,5.2929,5.2929,5.3432,5.4536,5.4561,5.5089,5.6194,5.6219,5.6219,5.6219,5.6219,5.6219,5.6219,5.6219,5.6219,5.6219,5.6219,5.6219,5.6219,5.6219,5.6219,5.6219,5.6219,5.6219,5.6219,5.6219,5.6219,5.6219,3.4053,3.4651,3.531,3.5968,3.6088,3.6148,3.6267,3.6596,3.6746,3.6507,3.5789,3.5699,3.6716,3.531,3.3754,3.2437,3.2198,3.1061,2.8577,2.8397,2.8098,2.741,2.8278,2.8786,2.8786,3.0043,3.0402,2.9774,3.0253,2.9924,2.8786,2.8667,2.8368,2.8,2.773,2.782,2.8188,2.8876,3.0642,3.3006,3.4023,3.6537,3.9918,4.2551,4.4646,4.6232,4.6741,4.6681,4.6262,4.5843,4.5095,4.3707,3.9915,3.9634,3.9749,3.4879,3.4925,3.6026,3.3936,3.327,3.3093,3.3219,3.3495,0.0,3.5366,3.6035,3.7263,0.0,0.0,0.0,0.0,0.0,0.0,0.0,0.0,0.0,0.0,0.0,0.0,0.0,0.0,0.0,0.0,0.0,5.1498,5.2076,5.2628,5.2929,5.2929,5.2929,5.3432,5.4536,5.4561,5.5089,5.6194,5.6219,5.6219,5.6219,5.6219,5.6219,5.6219,5.6219,5.6219,5.6219,5.6219,5.6219,5.6219,5.6219,5.6219,5.6219,5.6219,5.6219,5.6219,5.6219,5.6219,5.6219,3.4412,3.531,3.6207,3.6836,3.7225,3.7554,3.7913,3.7913,3.7913,3.7943,3.7075,3.6686,3.7345,3.5968,3.4442,3.3125,3.2706,3.1659,2.9684,2.8966,2.8457,2.8098,2.8427,2.8757,2.9086,3.0013,3.0522,3.0552,3.0522,3.0163,2.9535,2.8906,2.9295,3.0432,2.8457,2.8846,3.0998,2.9624,3.0402,3.2736,3.54,3.8631,4.2132,4.4466,4.6352,4.7788,4.7788,4.7997,4.8087,4.6741,4.5424,4.4065,4.2427,4.1784,4.09,3.7113,3.6987,3.7365,3.4552,3.3431,3.3068,3.3068,3.3294,0.0,0.0,3.6131,3.7217,0.0,0.0,0.0,0.0,0.0,0.0,0.0,0.0,0.0,0.0,0.0,0.0,0.0,0.0,0.0,0.0,0.0,5.1197,5.2051,5.2628,5.2929,5.2929,5.2929,5.3432,5.4536,5.4561,5.5089,5.6194,5.6219,5.6219,5.6219,5.6219,5.6219,5.6219,5.6219,5.6219,5.6219,5.6219,5.6219,5.6219,5.6219,5.6219,5.6219,5.6219,5.6219,5.6219,5.6219,5.6219,5.6219,3.4352,3.5549,3.6686,3.7315,3.7943,3.8631,3.932,3.896,3.8781,3.9349,3.8362,3.7584,3.7584,3.6567,3.54,3.4173,3.3574,3.2647,3.118,2.9983,2.9355,2.9355,2.8876,2.8966,2.9744,3.0133,3.0582,3.115,3.0731,3.0432,3.0313,2.9146,2.9953,3.2228,2.9654,3.0372,3.3365,3.0821,3.1031,3.3363,3.7704,4.0397,4.2222,4.5484,4.707,4.7608,4.8237,4.8805,4.9075,4.7758,4.5903,4.4206,4.4347,4.3626,4.2108,3.8789,3.8805,3.9003,3.5413,3.383,3.3244,3.3244,3.3319,3.402,0.0,0.0,0.0,0.0,0.0,0.0,0.0,0.0,0.0,0.0,0.0,0.0,0.0,0.0,0.0,0.0,0.0,0.0,0.0,0.0,5.067,5.2,5.2327,5.2578,5.2904,5.2929,5.3432,5.4536,5.4561,5.5089,5.6194,5.6219,5.6219,5.6219,5.6219,5.6219,5.6219,5.6219,5.6219,5.6219,5.6219,5.6219,5.6219,5.6219,5.6219,5.6219,5.6219,5.6219,5.6219,5.6219,5.6219,5.6219,3.4352,3.5549,3.6686,3.7315,3.7943,3.8631,3.932,3.9349,3.932,3.9409,3.8751,3.8272,3.8272,3.7644,3.6896,3.6207,3.6088,3.522,3.3275,3.2467,3.2078,3.2078,2.9834,2.9175,3.0372,2.9924,2.9714,2.9804,3.0283,3.0223,2.9684,2.8936,2.8457,2.8419,3.0851,3.127,3.0313,3.2766,3.5639,3.8571,3.917,3.8212,0.0,4.2551,4.4706,4.5155,4.8087,4.9194,4.9075,0.0,4.71,4.6381,4.3578,4.4893,4.6441,4.0829,4.0435,4.1095,3.7676,3.5305,3.3796,3.3796,3.4173,3.4324,3.3781,0.0,3.5483,3.4366,0.0,0.0,0.0,0.0,0.0,0.0,0.0,0.0,0.0,0.0,0.0,0.0,0.0,0.0,0.0,0.0,0.0,5.195,5.1222,5.1348,5.2854,5.2929,5.3432,5.4536,5.4561,5.5089,5.6194,5.6219,5.6219,5.6219,5.6219,5.6219,5.6219,5.6219,5.6219,5.6219,5.6219,5.6219,5.6219,5.6219,5.6219,5.6219,5.6219,5.6219,5.6219,5.6219,5.6219,5.6219,3.4352,3.5848,3.6985,3.6896,3.7704,3.8482,3.8781,3.917,3.9409,3.9409,3.8811,3.8392,3.8392,3.7793,3.7315,3.7045,3.7015,3.6357,0.0,3.4023,3.3305,3.2557,3.0702,2.9953,3.0492,2.9894,2.9744,3.0103,2.9654,2.9475,2.9564,2.8487,2.9086,3.1061,3.2078,3.3544,3.528,3.513,3.5878,3.7225,3.7943,3.7375,0.0,4.3928,4.71,4.7997,4.9763,5.0391,5.0331,0.0,4.8057,0.0,4.7219,4.6292,4.4586,4.324,4.2158,4.0885,3.8677,3.7566,3.677,3.6018,3.6121,3.5999,3.4373,3.4049,3.3922,3.3205,0.0,0.0,0.0,0.0,0.0,0.0,3.6558,0.0,0.0,0.0,0.0,0.0,0.0,0.0,0.0,0.0,0.0,0.0,0.0,5.1147,5.2829,5.2929,5.3281,5.4034,5.4386,5.4938,5.5717,5.6043,5.6219,5.6219,5.6219,5.6219,5.6219,5.6219,5.6219,5.6219,5.6219,5.6219,5.6219,5.6219,5.6219,5.6219,5.6219,5.6219,5.6219,5.6219,5.6219,5.6219,3.4352,3.5908,3.7015,3.6567,3.7554,3.8452,3.8631,3.911,3.9409,3.9409,3.899,3.8661,3.8661,3.8392,3.8242,3.8242,3.8392,3.8033,0.0,0.0,3.51,3.4681,3.2168,3.112,3.1869,3.0522,3.0043,3.0492,2.9564,2.9355,2.9804,2.8457,2.9475,3.2437,3.2856,3.504,3.8272,3.7285,3.7375,3.8242,3.899,3.9679,4.0816,4.5843,4.8895,5.0571,5.105,5.1229,5.1139,5.0601,4.8506,0.0,4.8865,4.701,4.4167,4.5035,4.3956,4.1984,4.0112,3.9669,3.9254,3.7208,3.703,3.6837,3.5103,3.4476,3.4185,3.4185,3.4627,0.0,0.0,0.0,3.4615,3.4539,0.0,3.701,0.0,0.0,0.0,0.0,0.0,0.0,0.0,0.0,0.0,0.0,0.0,0.0,5.2804,5.2929,5.3181,5.3683,5.411,5.4662,5.539,5.5792,5.6068,5.6219,5.6219,5.6219,5.6219,5.6219,5.6219,5.6219,5.6219,5.6219,5.6219,5.6219,5.6219,5.6219,5.6219,5.6219,5.6219,5.6219,5.6219,5.6219,3.4352,3.5579,3.6507,3.6477,3.7554,3.8631,3.929,3.9409,3.9409,3.9409,3.9409,3.9379,3.9379,3.9948,4.0307,4.0307,0.0,4.0965,4.0277,0.0,3.8153,4.0068,3.4592,3.2706,3.528,3.2138,3.0492,3.0492,3.0462,3.0462,3.0432,2.9175,2.8966,2.9834,3.3006,3.4861,3.5848,3.8931,4.2073,4.4915,4.4317,4.6381,4.9553,0.0,4.8386,5.1199,5.1199,0.0,0.0,4.9015,4.8297,0.0,0.0,0.0,4.7728,4.5843,4.5872,4.5776,4.242,4.1256,4.0046,3.6418,3.6055,3.6188,3.5024,3.5899,3.7042,3.7042,3.8404,3.8908,3.6743,3.6426,3.5861,3.4174,3.4424,0.0,0.0,0.0,0.0,0.0,0.0,0.0,0.0,0.0,0.0,0.0,0.0,0.0,5.2754,5.2929,5.3181,5.3683,5.3708,5.426,5.539,5.5415,5.5691,5.6219,5.6219,5.6219,5.6219,5.6219,5.6219,5.6219,5.6219,5.6219,5.6219,5.6219,5.6219,5.6219,5.6219,5.6219,5.6219,5.6219,5.6219,5.6219,3.5011,3.5519,3.5848,3.5848,3.6537,3.7345,3.8003,3.8841,3.9589,0.0,0.0,0.0,0.0,4.0905,4.1235,0.0,0.0,4.1743,4.1085,3.9589,0.0,0.0,0.0,3.4113,0.0,3.2677,3.118,3.118,3.0313,3.0342,3.115,2.9864,2.9834,3.1001,3.3873,3.6507,3.8871,4.0846,4.309,4.5304,4.5544,4.698,4.8985,0.0,0.0,5.1229,5.1229,5.1229,0.0,5.0451,4.9374,4.8386,4.9015,4.7878,4.6441,4.707,4.6542,0.0,0.0,0.0,4.5084,4.2071,0.0,0.0,3.7966,3.7334,3.704,3.6598,3.7749,3.8335,3.7208,3.7288,3.7395,3.6868,3.6577,3.6786,0.0,0.0,0.0,0.0,0.0,0.0,0.0,0.0,0.0,0.0,0.0,0.0,0.0,5.2729,5.3005,5.3181,5.3507,5.4059,5.4838,5.5214,5.5666,5.6219,5.6219,5.6219,5.6219,5.6219,5.6219,5.6219,5.6219,5.6219,5.6219,5.6219,5.6219,5.6219,5.6219,5.6219,5.6219,5.6219,5.6219,5.6219,3.5729,3.5669,3.5519,3.5519,3.6237,3.7105,3.8003,3.905,0.0,0.0,4.0606,0.0,4.1324,0.0,4.1893,0.0,4.2581,4.2432,4.1773,4.0935,0.0,4.0786,3.8093,0.0,0.0,3.4891,3.3305,3.3305,3.1749,3.142,3.2198,3.0881,3.0851,3.1958,3.3664,3.6656,4.0487,4.1803,4.4167,4.71,4.7788,4.8566,0.0,0.0,5.078,5.0272,0.0,5.1229,5.1229,5.1229,5.0391,4.9553,5.081,4.9464,4.7668,4.8955,4.8416,4.7339,4.71,4.7818,0.0,4.4857,4.406,0.0,4.0198,0.0,3.8827,3.8723,3.9202,3.9747,4.0125,3.9759,3.934,3.9228,3.8114,3.7414,0.0,3.7899,0.0,0.0,0.0,0.0,0.0,0.0,0.0,0.0,0.0,0.0,0.0,0.0,5.2929,5.2929,5.3256,5.3783,5.4561,5.4913,5.5465,5.6219,5.6219,5.6219,5.6219,5.6219,5.6219,5.6219,5.6219,5.6219,5.6219,5.6219,5.6219,5.6219,5.6219,5.6219,5.6219,5.6219,5.6219,5.6219,3.6327,3.5968,3.5579,3.5639,3.6656,3.7883,0.0,0.0,4.0397,0.0,4.1025,4.1444,4.1474,4.2043,4.2432,4.2462,4.303,4.312,4.2551,4.2432,0.0,0.0,4.1504,4.1055,4.2372,0.0,3.6567,3.6567,3.4532,3.3574,3.3574,3.2228,3.1928,3.2557,3.2587,3.5519,4.0546,4.1893,4.5484,5.0331,5.096,5.1169,5.1079,5.1169,5.0002,4.8536,5.0511,5.1229,5.1229,5.1229,5.1229,5.1229,5.1229,5.1229,5.1229,5.1229,5.1229,5.081,4.8955,4.8895,4.8537,4.4851,0.0,0.0,0.0,0.0,4.2286,4.318,4.3,4.3239,4.4995,4.3401,4.1537,4.1075,3.8993,3.6996,3.5831,3.6218,0.0,0.0,0.0,0.0,0.0,0.0,0.0,0.0,0.0,0.0,0.0,0.0,5.2829,5.2929,5.2929,5.3432,5.4511,5.4561,5.5114,5.6168,5.6194,5.6219,5.6219,5.6219,5.6219,5.6219,5.6219,5.6219,5.6219,5.6219,5.6219,5.6219,5.6219,5.6219,5.6219,5.6219,5.6219,5.6219,3.5818,3.6028,3.6537,3.7494,3.7913,3.8242,0.0,0.0,0.0,0.0,4.1713,4.2282,4.2761,4.3,4.3269,4.3778,4.3958,0.0,0.0,0.0,0.0,4.4736,4.2432,4.1743,4.309,3.9709,3.7913,3.7913,3.5429,3.4472,3.4951,3.3125,3.2617,3.3275,3.3754,3.6626,4.1235,4.306,4.6591,5.099,5.1139,5.0331,4.9194,0.0,5.0002,4.8536,5.0511,5.1229,5.1229,5.1229,5.1229,5.1229,5.1229,5.1229,5.1229,5.1229,5.1229,5.1109,5.0601,5.0601,5.0209,4.8358,4.7614,4.6961,0.0,0.0,0.0,0.0,0.0,0.0,0.0,0.0,4.2842,4.0474,3.995,3.9367,3.7663,0.0,0.0,3.7978,0.0,0.0,0.0,0.0,0.0,0.0,0.0,0.0,0.0,0.0,0.0,5.2879,5.2929,5.3256,5.3909,5.4361,5.4913,5.5591,5.6018,5.6219,5.6219,5.6219,5.6219,5.6219,5.6219,5.6219,5.6219,5.6219,5.6219,5.6219,5.6219,5.6219,5.6219,5.6219,5.6219,5.6219,3.6836,3.7075,3.7554,3.8272,0.0,0.0,3.926,0.0,0.0,4.1294,4.2192,0.0,4.3299,4.3838,4.4347,4.4706,4.4736,0.0,4.4855,0.0,0.0,4.5274,4.4436,4.4317,4.5095,4.2402,0.0,4.0127,3.7494,3.6088,3.5908,3.4173,3.3574,3.3963,3.4622,3.7015,4.0756,4.4466,4.7549,5.0002,5.087,5.0541,0.0,5.078,5.0541,4.9703,5.081,5.1229,5.1229,5.1229,5.1229,5.1229,5.1229,5.1229,5.1229,5.1229,5.1229,5.1229,5.1229,5.1229,5.105,5.0301,4.9853,4.9134,4.7549,4.7189,4.707,0.0,4.698,4.7279,0.0,0.0,0.0,4.0677,4.0747,4.0574,0.0,0.0,0.0,0.0,0.0,0.0,0.0,0.0,0.0,0.0,0.0,0.0,0.0,0.0,0.0,5.2879,5.2703,5.2929,5.3683,5.3808,5.4361,5.539,5.5691,5.5968,5.6219,5.6219,5.6219,5.6219,5.6219,5.6219,5.6219,5.6219,5.6219,5.6219,5.6219,5.6219,5.6219,5.6219,5.6219,5.6219,3.8392,3.8392,3.8422,3.8512,0.0,0.0,0.0,4.0726,0.0,4.1564,0.0,4.3599,4.3599,4.4616,4.5334,4.5424,0.0,4.5214,4.4736,4.5783,4.6172,4.5574,4.6681,4.7309,4.7309,4.5514,4.3838,0.0,3.9858,3.7913,3.6447,3.51,3.4532,3.4651,3.534,3.7315,4.0546,4.5992,4.8446,4.8805,5.0541,5.1229,5.1229,5.1229,5.1229,5.1229,5.1229,5.1229,5.1229,5.1229,5.1229,5.1229,5.1229,5.1229,5.1229,5.1229,5.1229,5.1229,5.1229,5.1229,5.1229,5.1229,5.1229,5.078,4.9164,4.8805,4.8835,4.8895,4.8476,4.8865,0.0,0.0,0.0,4.1377,0.0,0.0,0.0,0.0,0.0,0.0,0.0,0.0,0.0,0.0,0.0,0.0,0.0,0.0,0.0,0.0,0.0,5.2879,5.2452,0.0,5.3482,0.0,5.3758,5.5164,5.5315,5.5666,5.6219,5.6219,5.6219,5.6219,5.6219,5.6219,5.6219,5.6219,5.6219,5.6219,5.6219,5.6219,5.6219,5.6219,5.6219,5.6219,3.8392,3.8392,3.8571,3.914,4.0337,4.1384,4.1923,4.2462,4.2851,4.297,4.4137,4.4945,4.4945,4.5155,4.5514,4.6082,4.6142,0.0,0.0,0.0,0.0,4.695,4.7189,4.7309,4.7309,4.6441,4.4796,0.0,4.0816,3.8811,3.6447,3.51,3.4771,3.534,3.6028,3.929,4.4436,4.713,4.9224,5.072,5.1079,5.1229,5.1229,5.1229,5.1229,5.1229,5.1229,5.1229,5.1229,5.1229,5.1229,5.1229,5.1229,5.1229,5.1229,5.1229,5.1229,5.1229,5.1229,5.1229,5.1229,5.1229,5.1229,5.1259,5.1468,5.1528,5.1678,5.2217,5.2247,5.1828,5.078,0.0,0.0,0.0,0.0,0.0,0.0,0.0,0.0,0.0,0.0,0.0,0.0,0.0,0.0,0.0,0.0,0.0,0.0,0.0,0.0,0.0,5.2829,0.0,0.0,0.0,5.3708,5.4009,5.4938,5.5666,5.6219,5.6219,5.6219,5.6219,5.6219,5.6219,5.6219,5.6219,5.6219,5.6219,5.6219,5.6219,5.6219,5.6219,5.6219,5.6219,3.8931,3.8931,3.923,4.0247,4.1235,0.0,0.0,4.4227,0.0,4.3928,4.4676,4.5304,4.5304,4.5933,4.6471,4.68,4.683,4.698,4.7279,4.7638,4.7818,4.7818,4.8147,0.0,4.8327,4.8027,4.6381,4.3389,0.0,4.0247,3.6956,3.5968,3.5699,3.6118,3.8123,4.0786,4.3958,4.701,0.0,4.9793,5.081,5.1229,5.1229,5.1229,5.1229,5.1229,5.1229,5.1229,5.1229,5.1229,5.1229,5.1229,5.1229,5.1229,5.1229,5.1229,5.1229,5.1289,5.1618,5.1738,5.1798,5.2157,5.2247,5.2306,5.2636,5.2695,5.2785,5.3114,5.3473,5.3114,5.1109,4.901,0.0,0.0,0.0,0.0,0.0,0.0,0.0,0.0,0.0,0.0,0.0,0.0,0.0,0.0,4.1932,0.0,0.0,0.0,0.0,0.0,0.0,0.0,0.0,0.0,0.0,5.3708,5.4561,5.5239,5.5792,5.6068,5.6219,5.6219,5.6219,5.6219,5.6219,5.6219,5.6219,5.6219,5.6219,5.6219,5.6219,5.6219,5.6219,5.6219,3.9978,4.0038,4.0427,4.1594,4.2462,0.0,4.4377,4.5663,4.6112,4.4885,4.5304,4.5723,4.5723,4.6681,4.7309,4.7309,4.7429,4.7519,4.7519,4.8117,4.8506,4.8506,4.8985,4.9254,4.9254,4.9404,4.7908,0.0,0.0,4.1624,3.7823,3.7045,3.6985,3.7644,4.0367,4.2342,0.0,0.0,4.8536,4.9045,5.0601,5.1229,5.1229,5.1229,5.1229,5.1229,5.1229,5.1229,5.1229,5.1229,5.1229,5.1229,5.1229,5.1319,5.1439,5.1439,5.1528,5.1738,5.2276,5.2396,5.2546,5.3054,5.3174,5.3204,5.3354,5.3384,5.3443,5.3593,5.4042,5.3773,5.1618,5.084,0.0,0.0,0.0,0.0,0.0,0.0,0.0,0.0,0.0,0.0,0.0,0.0,0.0,0.0,4.1998,0.0,4.7205,0.0,0.0,0.0,0.0,5.19,5.2226,0.0,5.2703,0.0,5.4235,5.4863,5.5415,5.5968,5.6219,5.6219,5.6219,5.6219,5.6219,5.6219,5.6219,5.6219,5.6219,5.6219,5.6219,5.6219,5.6219,5.6219,4.1863,4.2102,4.2312,4.303,0.0,0.0,4.5185,4.6352,4.695,4.6232,4.6711,4.713,4.713,4.7219,4.7309,4.7309,4.7848,4.8207,4.8207,4.8805,4.9164,4.9164,4.9224,4.9254,4.9254,4.9853,4.8835,0.0,0.0,4.2521,3.92,3.7913,3.8601,4.0965,4.1863,0.0,0.0,4.8117,4.9314,5.096,5.1139,5.1229,5.1229,5.1229,5.1229,5.1229,5.1229,5.1229,5.1229,5.1229,5.1229,5.1229,5.1229,5.1618,5.2127,5.2127,5.2546,5.3025,5.3084,5.3084,5.3114,5.3174,5.3174,5.3354,5.3982,5.4132,5.4281,5.488,5.5059,5.4311,5.1708,5.3084,5.3234,0.0,0.0,0.0,0.0,0.0,4.9821,5.1518,0.0,0.0,0.0,0.0,0.0,0.0,4.3489,0.0,0.0,0.0,0.0,4.9766,0.0,5.0368,4.9916,5.1875,0.0,5.3005,5.4059,5.4863,5.5415,5.5968,5.6219,5.6219,5.6219,5.6219,5.6219,5.6219,5.6219,5.6219,5.6219,5.6219,5.6219,5.6219,5.6219,5.6219,0.0,0.0,0.0,0.0,0.0,0.0,0.0,4.695,4.7219,4.695,4.713,4.7309,4.7309,4.7309,4.7459,4.7848,4.8147,4.8446,4.8835,4.9494,4.9853,4.9853,5.0242,5.0451,5.0451,5.069,4.9733,0.0,0.0,0.0,4.0576,4.0038,4.0995,4.321,0.0,4.68,4.8356,4.9553,5.0511,5.1229,5.1229,5.1229,5.1229,5.1229,5.1229,5.1229,5.1229,5.1229,5.1289,5.1678,5.1798,5.1798,5.1798,5.2247,5.2785,5.2785,5.2965,5.3264,5.3683,5.3803,5.3892,5.4281,5.4401,5.4461,5.473,5.479,5.488,5.5149,5.5179,5.485,5.3803,5.3473,5.3174,0.0,0.0,0.0,0.0,0.0,0.0,5.3892,0.0,5.1498,0.0,0.0,0.0,0.0,4.2554,0.0,0.0,0.0,0.0,4.8058,0.0,5.0996,5.0092,5.1975,5.2929,5.2929,5.4034,5.4687,5.4938,5.5817,5.6219,5.6219,5.6219,5.6219,5.6219,5.6219,5.6219,5.6219,5.6219,5.6219,5.6219,5.6219,5.6219,5.6219,4.4137,0.0,4.4556,0.0,4.5873,4.6202,4.716,4.7309,4.7369,4.7578,4.7608,4.7608,4.7608,4.7608,4.7848,4.8506,4.8745,4.9045,4.9523,5.0152,5.0541,5.0541,5.096,0.0,5.1229,5.1229,5.0541,4.9134,4.716,0.0,4.312,4.2521,4.3389,0.0,4.7459,4.8596,4.9224,5.0631,5.1229,5.1229,5.1229,5.1229,5.1229,5.1229,5.1229,5.1229,5.1229,5.1349,5.1588,5.2037,5.2456,5.2755,5.2546,5.2935,5.3473,5.3473,5.3623,5.3862,5.4371,5.4491,5.461,5.5089,5.5179,5.5179,5.5179,5.5179,5.5179,5.5179,5.5179,5.5179,5.5179,5.4042,5.3354,5.4162,0.0,0.0,0.0,5.4491,0.0,5.4341,5.3713,0.0,0.0,0.0,0.0,0.0,0.0,0.0,0.0,0.0,0.0,0.0,0.0,0.0,0.0,5.2076,5.2929,5.2929,5.4034,5.4561,5.4612,5.5717,5.6219,5.6219,5.6219,5.6219,5.6219,5.6219,5.6219,5.6219,5.6219,5.6219,5.6219,5.6219,5.6219,5.6219,4.6022,4.6292,4.6501,4.716,4.7279,4.7279,4.7309,4.7309,4.7549,4.8177,4.8267,4.8267,4.8267,4.8267,4.8536,4.9194,4.9853,5.0212,5.0242,5.084,5.1199,0.0,0.0,5.1229,5.1229,5.1229,5.1199,5.1169,0.0,0.0,4.7189,4.5214,4.5693,4.8237,4.8267,4.9374,5.1199,5.1199,5.1229,5.1229,5.1229,5.1229,5.1229,5.1229,5.1229,5.1229,5.1229,5.1648,5.2187,5.2187,5.3084,5.4072,5.3384,5.3653,5.4192,5.4192,5.467,5.5179,5.5179,5.5179,5.5179,5.5179,5.5179,5.5179,5.5179,5.5179,5.5179,5.5179,5.5179,5.5179,5.5179,5.5179,5.4521,5.2546,0.0,0.0,0.0,5.2785,0.0,5.2306,4.8805,0.0,5.3713,0.0,0.0,0.0,0.0,0.0,0.0,0.0,0.0,4.8711,4.9841,0.0,5.0419,5.2076,5.2929,5.2929,5.4034,5.4561,5.4612,5.5717,5.6219,5.6219,5.6219,5.6219,5.6219,5.6219,5.6219,5.6219,5.6219,5.6219,5.6219,5.6219,5.6219,5.6219,4.692,4.698,4.707,4.7279,4.7668,4.7967,4.7967,4.8356,4.8716,4.8925,4.8955,4.9134,4.9553,4.9224,4.9224,0.0,5.0122,5.0421,0.0,5.1109,5.1229,5.1229,5.1229,5.1229,5.1229,5.1229,5.1229,5.1229,0.0,0.0,0.0,4.7309,4.8177,5.0272,5.0272,5.0631,5.1229,5.1229,5.1229,5.1229,5.1229,5.1229,5.1229,5.1229,5.1229,5.1289,5.1738,5.2037,5.2336,5.3264,5.3862,5.4251,5.4491,5.47,5.488,5.488,5.5029,5.5179,5.5179,5.5179,5.5179,5.5179,5.5179,5.5179,5.5179,5.5179,5.5179,5.5179,5.5179,5.5179,5.5179,5.5179,5.5119,5.494,5.5448,0.0,5.5568,0.0,5.5777,5.5568,5.485,0.0,0.0,5.0635,0.0,0.0,0.0,0.0,0.0,0.0,0.0,0.0,5.0193,0.0,5.0419,5.2076,5.2929,5.2929,5.3632,5.4386,5.5139,5.5892,5.6219,5.6219,5.6219,5.6219,5.6219,5.6219,5.6219,5.6219,5.6219,5.6219,5.6219,5.6219,5.6219,5.6219,4.7309,4.7489,4.7668,4.7668,4.8207,4.8656,4.8656,4.9015,4.9344,4.9613,4.9643,4.9883,5.0541,5.0242,0.0,5.0571,5.0601,5.078,5.1199,5.1229,5.1229,5.1229,5.1229,5.1229,5.1229,5.1229,0.0,5.1229,4.9972,4.9374,4.9374,4.9374,5.0032,5.1229,5.1229,5.1229,5.1229,5.1229,5.1229,5.1229,5.1229,5.1229,5.1259,5.1498,5.1588,5.1678,5.2336,5.2725,5.3084,5.3922,5.4371,5.464,5.5059,5.5179,5.5179,5.5179,5.5179,5.5179,5.5179,5.5179,5.5179,5.5179,5.5179,5.5179,5.5179,5.5179,5.5179,5.5179,5.5179,5.5269,5.5508,5.5568,5.5777,5.6406,5.6526,5.6645,5.7034,5.7334,5.7124,5.6137,0.0,0.0,0.0,5.2622,0.0,0.0,0.0,0.0,0.0,0.0,0.0,4.8661,5.1122,0.0,5.1373,5.2402,5.2929,5.2929,5.3683,5.4511,5.5415,5.5968,5.6219,5.6219,5.6219,5.6219,5.6219,5.6219,5.6219,5.6219,5.6219,5.6219,5.6219,5.6219,5.6219,5.6219,4.7429,4.7938,0.0,0.0,4.8895,0.0,4.9344,4.9374,4.9613,5.0242,5.0301,5.0541,5.1139,5.1229,5.1229,5.1229,0.0,0.0,0.0,5.1229,5.1229,5.1229,5.1229,5.1229,5.1229,5.1229,5.1229,5.1229,5.1229,5.1229,5.1229,5.1229,5.1229,5.1229,5.1229,5.1229,5.1229,5.1229,5.1229,5.1229,5.1229,5.1229,5.1289,5.1947,5.2187,5.2306,5.2995,5.3653,5.4221,5.4251,5.467,5.5179,5.5179,5.5179,5.5179,5.5179,5.5179,5.5179,5.5179,5.5179,5.5179,5.5179,5.5179,5.5179,5.5179,5.5179,5.5209,5.5239,5.5269,5.5448,5.6107,5.6226,5.6436,5.7064,5.7154,5.7184,5.7214,5.7782,5.7274,0.0,0.0,0.0,0.0,5.378,5.3241,0.0,0.0,0.0,0.0,0.0,4.9929,5.1197,5.2352,5.2929,5.2929,5.2929,5.2929,5.2929,5.4009,5.4787,5.534,5.5892,5.6168,5.6219,5.6219,5.6219,5.6219,5.6219,5.6219,5.6219,5.6219,5.6219,5.6219,5.6219,5.6219,5.6219,0.0,0.0,4.9045,4.9045,4.9583,5.0002,5.0002,5.0421,5.081,5.096,5.099,5.105,5.1199,5.1229,5.1229,5.1229,5.1229,5.1229,5.1229,5.1229,5.1229,5.1229,5.1229,5.1229,5.1229,5.1229,5.1229,5.1229,5.1229,5.1229,5.1229,5.1229,5.1229,5.1229,5.1229,5.1229,5.1229,5.1229,5.1229,5.1229,5.1229,5.1229,5.1289,5.1947,5.2187,5.2366,5.3533,5.4072,5.4281,5.479,5.5059,5.5179,5.5179,5.5179,5.5179,5.5179,5.5179,5.5179,5.5179,5.5179,5.5179,5.5179,5.5179,5.5179,5.5179,5.5179,5.5329,5.5837,5.5927,5.6137,5.6765,5.6885,5.7094,5.7782,5.7872,5.8052,5.856,5.877,5.865,0.0,5.8082,5.7252,5.4827,5.4226,5.2966,0.0,0.0,0.0,0.0,5.0655,5.1172,5.1355,5.2352,5.2929,5.2929,5.2929,5.2929,5.2929,5.3582,5.421,5.4787,5.534,5.5817,5.6219,5.6219,5.6219,5.6219,5.6219,5.6219,5.6219,5.6219,5.6219,5.6219,5.6219,5.6219,5.6219,4.9254,4.9494,4.9703,4.9703,5.0242,5.069,5.069,5.099,5.1229,5.1229,5.1229,5.1229,5.1229,5.1229,5.1229,5.1229,5.1229,5.1229,5.1229,5.1229,5.1229,5.1229,5.1229,5.1229,5.1229,5.1229,5.1229,5.1229,5.1229,5.1229,5.1229,5.1229,5.1229,5.1229,5.1229,5.1229,5.1229,5.1229,5.1229,5.1259,5.1558,5.1678,5.1768,5.2755,5.3114,5.3264,5.4281,5.467,5.47,5.5059,5.5179,5.5179,5.5179,5.5179,5.5179,5.5179,5.5179,5.5179,5.5179,5.5179,5.5179,5.5179,5.5418,5.5658,5.5658,5.5867,5.6166,5.6526,5.6585,5.6795,5.7453,5.7573,5.7782,5.8471,5.859,5.871,5.9069,5.9099,5.9099,5.9099,5.9099,5.8415,5.6736,5.6508,5.5137,5.1718,0.0,0.0,5.0275,5.1229,5.1787,5.1649,5.2477,5.2929,5.2929,5.2929,5.2929,5.2929,5.3457,5.4009,5.4587,5.5139,5.5691,5.6219,5.6219,5.6219,5.6219,5.6219,5.6219,5.6219,5.6219,5.6219,5.6219,5.6219,5.6219,5.6219,4.9553,5.0002,5.0391,5.0391,5.084,5.1229,5.1229,5.1229,5.1229,5.1229,5.1229,5.1229,5.1229,5.1229,5.1229,5.1229,5.1229,5.1229,5.1229,5.1229,5.1229,5.1229,5.1229,5.1229,5.1229,5.1229,5.1229,5.1229,5.1229,5.1229,5.1229,5.1229,5.1229,5.1229,5.1229,5.1229,5.1229,5.1229,5.1229,5.1289,5.1947,5.2187,5.2336,5.3713,5.4221,5.4311,5.497,5.5179,5.5179,5.5179,5.5179,5.5179,5.5179,5.5179,5.5179,5.5179,5.5179,5.5179,5.5179,5.5179,5.5239,5.5418,5.5837,5.6196,5.6286,5.6705,5.7124,5.7244,5.7244,5.7453,5.8141,5.8261,5.8381,5.874,5.8979,5.9039,5.883,0.0,5.9099,5.9099,5.9099,5.8882,5.8415,5.8386,5.7133,5.4047,5.4269,5.3414,0.0,5.1574,5.2151,5.2226,5.2678,5.2929,5.2929,5.2929,5.2929,5.2929,5.3381,5.3934,5.4587,5.5039,5.5616,5.6219,5.6219,5.6219,5.6219,5.6219,5.6219,5.6219,5.6219,5.6219,5.6219,5.6219,5.6219,5.6219,5.093,5.099,5.1079,5.1079,5.1139,5.1229,5.1229,5.1229,5.1229,5.1229,5.1229,5.1229,5.1229,5.1229,5.1229,5.1229,5.1229,5.1229,5.1229,5.1229,5.1229,5.1229,5.1229,5.1229,5.1229,5.1229,5.1229,5.1229,5.1229,5.1229,5.1229,5.1229,5.1229,5.1229,5.1229,5.1229,5.1229,5.1229,5.1229,5.1289,5.1947,5.2187,5.2336,5.3713,5.4221,5.4311,5.497,5.5179,5.5179,5.5179,5.5179,5.5179,5.5179,5.5179,5.5179,5.5179,5.5179,5.5179,5.5179,5.5179,5.5448,5.6526,5.6466,5.6316,5.6825,5.7034,5.7244,5.7842,5.7962,5.8171,5.883,5.8949,5.862,5.7573,5.8351,5.871,5.7573,0.0,5.9099,5.9099,5.9099,5.8055,5.5327,5.5094,5.4008,5.1229,5.1099,5.1321,5.18,5.2,5.2327,5.2779,5.2879,5.2929,5.2929,5.2929,5.2929,5.2929,5.3005,5.3582,5.4561,5.4662,5.5239,5.6219,5.6219,5.6219,5.6219,5.6219,5.6219,5.6219,5.6219,5.6219,5.6219,5.6219,5.6219,5.6219,5.1229,5.1229,5.1229,5.1229,5.1229,5.1229,5.1229,5.1229,5.1229,5.1229,5.1229,5.1229,5.1229,5.1229,5.1229,5.1229,5.1229,5.1229,5.1229,5.1229,5.1229,5.1229,5.1229,5.1229,5.1229,5.1229,5.1229,5.1229,5.1229,5.1229,5.1229,5.1229,5.1229,5.1229,5.1229,5.1229,5.1229,5.1588,5.1738,5.1828,5.2875,5.3294,5.3384,5.4371,5.473,5.479,5.5089,5.5179,5.5179,5.5179,5.5179,5.5179,5.5179,5.5179,5.5179,5.5179,5.5448,5.5718,5.5718,5.5957,5.6346,5.6944,5.7154,5.7304,5.7573,5.7932,5.8261,5.859,5.865,5.874,5.9039,5.9099,5.889,5.8291,5.871,5.889,5.8261,5.871,5.8743,5.7915,5.7804,5.6993,5.5067,5.4856,5.4012,5.2285,5.2361,5.2429,5.2076,5.2377,5.2653,5.2929,5.2929,5.2929,5.2929,5.2929,5.2929,5.2929,5.2929,5.3507,5.4561,5.4561,5.5164,5.6219,5.6219,5.6219,5.6219,5.6219,5.6219,5.6219,5.6219,5.6219,5.6219,5.6219,5.6219,5.6219,5.1229,5.1229,5.1229,5.1229,5.1229,5.1229,5.1229,5.1229,5.1229,5.1229,5.1229,5.1229,5.1229,5.1229,5.1229,5.1229,5.1229,5.1229,5.1229,5.1229,5.1229,5.1229,5.1229,5.1229,5.1229,5.1229,5.1229,5.1229,5.1229,5.1229,5.1229,5.1229,5.1229,5.1229,5.1379,5.1439,5.1498,5.2157,5.2426,5.2546,5.3713,5.4221,5.4281,5.494,5.5179,5.5179,5.5179,5.5179,5.5179,5.5179,5.5179,5.5179,5.5179,5.5179,5.5179,5.5179,5.5748,5.6406,5.6585,5.6855,5.7154,5.7483,5.7842,5.8171,5.8321,5.874,5.9099,5.9099,5.9099,5.9099,5.9099,5.9099,5.9009,5.868,0.0,5.9009,5.868,5.889,5.8555,5.7051,5.6937,5.6361,5.4923,5.4855,5.4386,5.3373,5.3713,5.3417,5.2277,5.2703,5.2929,5.2929,5.2929,5.2929,5.2929,5.2929,5.2929,5.2929,5.2929,5.3507,5.4561,5.4561,5.5164,5.6219,5.6219,5.6219,5.6219,5.6219,5.6219,5.6219,5.6219,5.6219,5.6219,5.6219,5.6219,5.6219,5.1229,5.1229,5.1229,5.1229,5.1229,5.1229,5.1229,5.1229,5.1229,5.1229,5.1229,5.1229,5.1229,5.1229,5.1229,5.1229,5.1229,5.1229,5.1229,5.1229,5.1229,5.1229,5.1229,5.1229,5.1229,5.1229,5.1229,5.1229,5.1229,5.1229,5.1229,5.1229,5.1229,5.1259,5.1858,5.2127,5.2187,5.2815,5.3114,5.3174,5.3922,5.4221,5.4281,5.494,5.5179,5.5179,5.5179,5.5179,5.5179,5.5179,5.5179,5.5179,5.5179,5.5179,5.5179,5.5179,5.6047,5.7154,5.7812,5.7543,5.7393,5.865,5.853,5.8291,5.889,5.9069,5.9099,5.9099,5.9099,5.9099,5.9099,5.9099,5.868,5.7453,0.0,0.0,5.7423,5.8321,5.8732,5.7686,5.7513,5.6542,5.3954,5.3752,5.327,5.2245,5.2211,5.2463,5.2829,5.2904,5.2929,5.2929,5.2929,5.2929,5.2929,5.2929,5.2929,5.2929,5.2929,5.3507,5.4561,5.4561,5.5164,5.6219,5.6219,5.6219,5.6219,5.6219,5.6219,5.6219,5.6219,5.6219,5.6219,5.6219,5.6219,5.6219,5.1229,5.1229,5.1229,5.1229,5.1229,5.1229,5.1229,5.1229,5.1229,5.1229,5.1229,5.1229,5.1229,5.1229,5.1229,5.1229,5.1229,5.1229,5.1229,5.1229,5.1229,5.1229,5.1229,5.1229,5.1229,5.1229,5.1229,5.1229,5.1229,5.1229,5.1229,5.1648,5.1828,5.1858,5.2516,5.2815,5.2845,5.3533,5.3832,5.3892,5.4551,5.482,5.485,5.5089,5.5179,5.5179,5.5179,5.5179,5.5179,5.5179,5.5179,5.5179,5.5179,5.5179,5.5359,5.6137,5.7034,5.7872,5.856,5.853,5.8471,5.8979,5.8919,5.88,5.9039,5.9099,5.9099,5.9099,5.9099,5.9099,5.9099,5.9099,5.8949,5.8411,0.0,5.8919,5.8411,5.877,5.8401,5.6406,5.6108,5.5169,5.2928,5.2634,5.2622,5.2578,5.2628,5.2703,5.2929,5.2929,5.2929,5.2929,5.2929,5.2929,5.2929,5.2929,5.2929,5.2929,5.3256,5.3808,5.4587,5.4913,5.5491,5.6219,5.6219,5.6219,5.6219,5.6219,5.6219,5.6219,5.6219,5.6219,5.6219,5.6219,5.6219,5.6219,5.1229,5.1229,5.1229,5.1229,5.1229,5.1229,5.1229,5.1229,5.1229,5.1229,5.1229,5.1229,5.1229,5.1229,5.1229,5.1229,5.1229,5.1229,5.1229,5.1229,5.1229,5.1229,5.1229,5.1229,5.1229,5.1229,5.1229,5.1229,5.1229,5.1319,5.1528,5.1977,5.2306,5.2546,5.3204,5.3503,5.3563,5.4221,5.4521,5.4551,5.4999,5.5179,5.5179,5.5179,5.5179,5.5179,5.5179,5.5179,5.5179,5.5179,5.5179,5.5179,5.5179,5.5329,5.5748,5.7034,5.7752,5.8261,5.8919,5.9099,5.9099,5.9099,5.9099,5.9099,5.9099,5.9099,5.9099,5.9099,5.9099,5.9099,5.9099,5.9099,5.9099,5.9099,5.9099,5.8942,5.8682,5.8601,5.7712,5.5251,5.4964,5.4267,5.2523,5.2352,5.2528,5.2904,5.2929,5.2929,5.2929,5.2929,5.2929,5.2929,5.2929,5.2929,5.2929,5.2929,5.2929,5.2929,5.3457,5.4009,5.4587,5.5139,5.5691,5.6219,5.6219,5.6219,5.6219,5.6219,5.6219,5.6219,5.6219,5.6219,5.6219,5.6219,5.6219,5.6219,5.1229,5.1229,5.1229,5.1229,5.1229,5.1229,5.1229,5.1229,5.1229,5.1229,5.1229,5.1229,5.1229,5.1229,5.1229,5.1229,5.1229,5.1229,5.1229,5.1229,5.1229,5.1229,5.1229,5.1229,5.1229,5.1229,5.1229,5.1229,5.1229,5.1558,5.2217,5.2217,5.2576,5.3204,5.3922,5.4221,5.4251,5.491,5.5179,5.5179,5.5179,5.5179,5.5179,5.5179,5.5179,5.5179,5.5179,5.5179,5.5179,5.5179,5.5179,5.5179,5.5209,5.5658,5.6436,5.7752,5.8112,5.8261,5.8919,5.9099,5.9099,5.9099,5.9099,5.9099,5.9099,5.9099,5.9099,5.9099,5.9099,5.9099,5.9099,5.9099,5.9099,5.9099,5.9099,5.8762,5.7744,5.7599,5.6852,5.4728,5.4471,5.4077,5.2991,5.2929,5.2929,5.2929,5.2929,5.2929,5.2929,5.2929,5.2929,5.2929,5.2929,5.2929,5.2929,5.2929,5.2929,5.2929,5.3457,5.4009,5.4587,5.5139,5.5691,5.6219,5.6219,5.6219,5.6219,5.6219,5.6219,5.6219,5.6219,5.6219,5.6219,5.6219,5.6219,5.6219,5.1229,5.1229,5.1229,5.1229,5.1229,5.1229,5.1229,5.1229,5.1229,5.1229,5.1229,5.1229,5.1229,5.1229,5.1229,5.1229,5.1229,5.1229,5.1229,5.1229,5.1229,5.1229,5.1229,5.1229,5.1229,5.1229,5.1439,5.1917,5.1917,5.2247,5.2905,5.3384,5.3713,5.3922,5.461,5.491,5.491,5.5119,5.5179,5.5179,5.5179,5.5179,5.5179,5.5179,5.5179,5.5179,5.5179,5.5179,5.5179,5.5179,5.5179,5.5269,5.5718,5.6316,5.7004,5.7872,5.8441,5.886,5.9069,5.9099,5.9099,5.9099,5.9099,5.9099,5.9099,5.9099,5.9099,5.9099,5.9099,5.9099,5.9099,5.9099,5.9099,5.9099,5.8549,5.7971,5.7686,5.6976,5.5964,5.4652,5.4471,5.4077,5.2991,5.2929,5.2929,5.2929,5.2929,5.2929,5.2929,5.2929,5.2929,5.2929,5.2929,5.2929,5.2929,5.2929,5.2929,5.2929,5.3858,5.4411,5.4587,5.5541,5.6068,5.6219,5.6219,5.6219,5.6219,5.6219,5.6219,5.6219,5.6219,5.6219,5.6219,5.6219,5.6219,5.6219,5.1229,5.1229,5.1229,5.1229,5.1229,5.1229,5.1229,5.1229,5.1229,5.1229,5.1229,5.1229,5.1229,5.1229,5.1229,5.1229,5.1229,5.1229,5.1229,5.1229,5.1229,5.1229,5.1229,5.1229,5.1229,5.1229,5.1528,5.2187,5.2187,5.2665,5.3593,5.4012,5.4341,5.461,5.5029,5.5179,5.5179,5.5179,5.5179,5.5179,5.5179,5.5179,5.5179,5.5179,5.5179,5.5179,5.5179,5.5179,5.5179,5.5179,5.5179,5.5359,5.6256,5.6795,5.7274,5.8231,5.88,5.9099,5.9099,5.9099,5.9099,5.9099,5.9099,5.9099,5.9099,5.9099,5.9099,5.9099,5.9099,5.9099,5.9099,5.9099,5.9189,5.9458,5.8985,5.8348,5.7525,5.7415,5.6486,5.4129,5.4445,5.4311,5.3017,5.2929,5.2929,5.2929,5.2929,5.2929,5.2929,5.2929,5.2929,5.2929,5.2929,5.2929,5.2929,5.313,5.3231,5.3256,5.4135,5.4687,5.4913,5.5817,5.6219,5.6219,5.6219,5.6219,5.6219,5.6219,5.6219,5.6219,5.6219,5.6219,5.6219,5.6219,5.6219,5.6219,5.1229,5.1229,5.1229,5.1229,5.1229,5.1229,5.1229,5.1229,5.1229,5.1229,5.1229,5.1229,5.1229,5.1229,5.1229,5.1229,5.1229,5.1229,5.1229,5.1229,5.1229,5.1229,5.1229,5.1259,5.1319,5.1319,5.1618,5.2276,5.2366,5.3025,5.4311,5.4311,5.461,5.5179,5.5179,5.5179,5.5179,5.5179,5.5179,5.5179,5.5179,5.5179,5.5179,5.5179,5.5179,5.5179,5.5179,5.5179,5.5209,5.5269,5.5269,5.5508,5.6795,5.7184,5.7423,5.871,5.9099,5.9099,5.9099,5.9099,5.9099,5.9099,5.9099,5.9099,5.9099,5.9099,5.9099,5.9099,5.9099,5.9099,5.9099,5.9099,5.9308,5.9967,6.0006,5.927,5.7299,5.8231,5.7591,5.3376,5.4299,5.4541,5.3042,5.2929,5.2929,5.2929,5.2929,5.2929,5.2929,5.2929,5.2929,5.2929,5.2929,5.2929,5.2929,5.3432,5.3708,5.3708,5.4336,5.4913,5.5415,5.5968,5.6219,5.6219,5.6219,5.6219,5.6219,5.6219,5.6219,5.6219,5.6219,5.6219,5.6219,5.6219,5.6219,5.6219,5.1229,5.1229,5.1229,5.1229,5.1229,5.1229,5.1229,5.1229,5.1229,5.1229,5.1229,5.1229,5.1229,5.1229,5.1229,5.1229,5.1229,5.1229,5.1229,5.1229,5.1229,5.1229,5.1229,5.1468,5.1977,5.1977,5.2306,5.2965,5.3503,5.4192,5.497,5.497,5.5059,5.5179,5.5179,5.5179,5.5179,5.5179,5.5179,5.5179,5.5179,5.5179,5.5179,5.5179,5.5179,5.5179,5.5179,5.5179,5.5269,5.5777,5.5957,5.6196,5.7483,5.7902,5.8052,5.886,5.9099,5.9099,5.9099,5.9099,5.9099,5.9099,5.9099,5.9099,5.9099,5.9099,5.9099,5.9099,5.9099,5.9099,5.9099,5.9099,5.9308,5.9967,5.9409,5.843,5.7107,5.6595,5.5419,5.3154,5.3179,5.3291,5.2929,5.2929,5.2929,5.2929,5.2929,5.2929,5.2929,5.2929,5.2929,5.2929,5.2929,5.2929,5.2929,5.3432,5.3708,5.3708,5.4737,5.5265,5.5415,5.5968,5.6219,5.6219,5.6219,5.6219,5.6219,5.6219,5.6219,5.6219,5.6219,5.6219,5.6219,5.6219,5.6219,5.6219,5.1229,5.1229,5.1229,5.1229,5.1229,5.1229,5.1229,5.1229,5.1229,5.1229,5.1229,5.1229,5.1229,5.1229,5.1229,5.1229,5.1229,5.1229,5.1229,5.1229,5.1229,5.1229,5.1229,5.1528,5.2187,5.2516,5.2995,5.3683,5.4042,5.4551,5.5179,5.5179,5.5179,5.5179,5.5179,5.5179,5.5179,5.5179,5.5179,5.5179,5.5179,5.5179,5.5179,5.5179,5.5179,5.5179,5.5179,5.5388,5.5718,5.6047,5.6376,5.6795,5.7812,5.8112,5.8261,5.8919,5.9099,5.9099,5.9099,5.9099,5.9099,5.9099,5.9099,5.9099,5.9099,5.9099,5.9099,5.9099,5.9099,5.9099,5.9099,5.9368,5.9787,6.0475,6.0368,5.9564,5.7702,5.7658,5.6569,5.3316,5.3538,5.381,5.2929,5.2929,5.2929,5.2929,5.2929,5.2929,5.2929,5.2929,5.2929,5.2929,5.2929,5.2929,5.2929,5.3708,5.411,5.4135,5.4988,5.5516,5.5792,5.6068,5.6219,5.6219,5.6219,5.6219,5.6219,5.6219,5.6219,5.6219,5.6219,5.6219,5.6219,5.6219,5.6219,5.6219,5.1229,5.1229,5.1229,5.1229,5.1229,5.1229,5.1229,5.1229,5.1229,5.1229,5.1229,5.1229,5.1229,5.1229,5.1229,5.1229,5.1229,5.1229,5.1229,5.1229,5.1229,5.1229,5.1319,5.1678,5.2366,5.3025,5.3623,5.4221,5.4311,5.467,5.5179,5.5179,5.5179,5.5179,5.5179,5.5179,5.5179,5.5179,5.5179,5.5179,5.5179,5.5179,5.5179,5.5179,5.5179,5.5179,5.5179,5.5598,5.6196,5.6436,5.6855,5.7393,5.8082,5.8291,5.8411,5.8949,5.9099,5.9099,5.9099,5.9099,5.9099,5.9099,5.9099,5.9099,5.9099,5.9099,5.9099,5.9099,5.9099,5.9129,5.9249,5.9727,6.0356,6.1134,6.1476,6.0823,5.83,5.898,5.7949,5.3427,5.419,5.4433,5.3042,5.2929,5.2929,5.2929,5.2929,5.2929,5.2929,5.2929,5.2929,5.2929,5.2929,5.2929,5.2929,5.4009,5.4561,5.4587,5.5214,5.5767,5.6219,5.6219,5.6219,5.6219,5.6219,5.6219,5.6219,5.6219,5.6219,5.6219,5.6219,5.6219,5.6219,5.6219,5.6219,5.6219,5.1229,5.1229,5.1229,5.1229,5.1229,5.1229,5.1229,5.1229,5.1229,5.1229,5.1229,5.1229,5.1229,5.1229,5.1229,5.1229,5.1229,5.1229,5.1229,5.1229,5.1229,5.1229,5.1768,5.2366,5.3025,5.3713,5.4132,5.4221,5.479,5.5089,5.5179,5.5179,5.5179,5.5179,5.5179,5.5179,5.5179,5.5179,5.5179,5.5179,5.5179,5.5179,5.5179,5.5179,5.5179,5.5179,5.5179,5.5598,5.6346,5.7483,5.7932,5.8112,5.877,5.8979,5.8979,5.9069,5.9099,5.9099,5.9099,5.9099,5.9099,5.9099,5.9099,5.9099,5.9099,5.9099,5.9099,5.9099,5.9099,5.9279,5.9847,6.0027,6.0505,6.1762,6.0764,5.94,5.8174,5.6956,5.5314,5.3179,5.3042,5.3179,5.2929,5.2929,5.2929,5.2929,5.2929,5.2929,5.2929,5.2929,5.2929,5.2929,5.2929,5.2929,5.2929,5.4009,5.4561,5.4587,5.5616,5.6143,5.6219,5.6219,5.6219,5.6219,5.6219,5.6219,5.6219,5.6219,5.6219,5.6219,5.6219,5.6219,5.6219,5.6219,5.6219,5.6219,5.1229,5.1229,5.1229,5.1229,5.1229,5.1229,5.1229,5.1229,5.1229,5.1229,5.1229,5.1229,5.1229,5.1229,5.1229,5.1229,5.1229,5.1229,5.1229,5.1229,5.1229,5.1229,5.1858,5.2516,5.3174,5.3862,5.4401,5.476,5.5059,5.5179,5.5179,5.5179,5.5179,5.5179,5.5179,5.5179,5.5179,5.5179,5.5179,5.5179,5.5179,5.5179,5.5179,5.5179,5.5179,5.5239,5.5598,5.6406,5.7363,5.7932,5.8381,5.871,5.9009,5.9099,5.9099,5.9099,5.9099,5.9099,5.9099,5.9099,5.9099,5.9099,5.9099,5.9099,5.9099,5.9099,5.9099,5.9099,5.9398,5.9727,6.0027,6.0685,6.1403,6.2002,6.0999,5.9558,5.8202,5.644,5.4809,5.3042,5.2929,5.2929,5.2929,5.2929,5.2929,5.2929,5.2929,5.2929,5.2929,5.2929,5.2929,5.2929,5.2929,5.3055,5.3356,5.416,5.4712,5.5039,5.5842,5.6219,5.6219,5.6219,5.6219,5.6219,5.6219,5.6219,5.6219,5.6219,5.6219,5.6219,5.6219,5.6219,5.6219,5.6219,5.6219,5.6219]},{"header":{"parameterUnit":"m.s-1","parameterCategory":1,"la1":30.6,"la2":28.766,"lo1":-90.7593,"lo2":-88.6598,"dx":0.0162,"dy":0.0183,"nx":116,"ny":114,"refTime":"2022-11-08T18:00:00:Z","depth":0,"parameterNumber":3,"parameterNumberName":"V-component_of_WINDS"},"data":[0.0,0.0,0.0,0.0,0.0,0.0,0.0,0.0,0.0,0.0,0.0,0.0,0.0,0.0,0.0,0.0,0.0,0.0,0.0,0.0,0.0,0.0,0.0,0.0,0.0,0.0,0.0,0.0,0.0,0.0,0.0,0.0,0.0,0.0,0.0,0.0,0.0,0.0,0.0,0.0,0.0,0.0,0.0,0.0,0.0,0.0,0.0,0.0,0.0,0.0,0.0,0.0,0.0,0.0,0.0,0.0,0.0,0.0,0.0,0.0,0.0,0.0,0.0,0.0,0.0,0.0,0.0,0.0,0.0,0.0,0.0,0.0,0.0,0.0,0.0,0.0,0.0,0.0,0.0,0.0,0.0,0.0,0.0,0.0,0.0,0.0,0.0,0.0,0.0,0.0,0.0,0.0,0.0,0.0,0.0,0.0,0.0,0.0,0.0,0.0,0.0,0.0,0.0,0.0,0.0,0.0,0.0,0.0,0.0,0.0,0.0,0.0,0.0,0.0,0.0,0.0,0.0,0.0,0.0,0.0,0.0,0.0,0.0,0.0,0.0,0.0,0.0,0.0,0.0,0.0,0.0,0.0,0.0,0.0,0.0,0.0,0.0,0.0,0.0,0.0,0.0,0.0,0.0,0.0,0.0,0.0,0.0,0.0,0.0,0.0,0.0,0.0,0.0,0.0,0.0,0.0,0.0,0.0,0.0,0.0,0.0,0.0,0.0,0.0,0.0,0.0,0.0,0.0,0.0,0.0,0.0,0.0,0.0,0.0,0.0,0.0,0.0,0.0,0.0,0.0,0.0,0.0,0.0,0.0,0.0,0.0,0.0,0.0,0.0,0.0,0.0,0.0,0.0,0.0,0.0,0.0,0.0,0.0,0.0,0.0,0.0,0.0,0.0,0.0,0.0,0.0,0.0,0.0,0.0,0.0,0.0,0.0,0.0,0.0,0.0,0.0,0.0,0.0,0.0,0.0,0.0,0.0,0.0,0.0,0.0,0.0,0.0,0.0,0.0,0.0,0.0,0.0,0.0,0.0,0.0,0.0,0.0,0.0,0.0,0.0,0.0,0.0,0.0,0.0,0.0,0.0,0.0,0.0,0.0,0.0,0.0,0.0,0.0,0.0,0.0,0.0,0.0,0.0,0.0,0.0,0.0,0.0,0.0,0.0,0.0,0.0,0.0,0.0,0.0,0.0,0.0,0.0,0.0,0.0,0.0,0.0,0.0,0.0,0.0,0.0,0.0,0.0,0.0,0.0,0.0,0.0,0.0,0.0,0.0,0.0,0.0,0.0,0.0,0.0,0.0,0.0,0.0,0.0,0.0,0.0,0.0,0.0,0.0,0.0,0.0,0.0,0.0,0.0,0.0,0.0,0.0,0.0,0.0,0.0,0.0,0.0,0.0,0.0,0.0,0.0,0.0,0.0,0.0,0.0,0.0,0.0,0.0,0.0,0.0,0.0,0.0,0.0,0.0,0.0,0.0,0.0,0.0,0.0,0.0,0.0,0.0,0.0,0.0,0.0,0.0,0.0,0.0,0.0,0.0,0.0,0.0,0.0,0.0,0.0,0.0,0.0,0.0,0.0,0.0,0.0,0.0,0.0,0.0,0.0,0.0,0.0,0.0,0.0,0.0,0.0,0.0,0.0,0.0,0.0,0.0,0.0,0.0,0.0,0.0,0.0,0.0,0.0,0.0,0.0,0.0,0.0,0.0,0.0,0.0,0.0,0.0,0.0,0.0,0.0,0.0,0.0,0.0,0.0,0.0,0.0,0.0,0.0,0.0,0.0,0.0,0.0,0.0,0.0,0.0,0.0,0.0,0.0,0.0,0.0,0.0,0.0,0.0,0.0,0.0,0.0,0.0,0.0,0.0,0.0,0.0,0.0,0.0,0.0,0.0,0.0,0.0,0.0,0.0,0.0,0.0,0.0,0.0,0.0,0.0,0.0,0.0,0.0,0.0,0.0,0.0,0.0,0.0,0.0,0.0,0.0,0.0,0.0,0.0,0.0,0.0,0.0,0.0,0.0,0.0,0.0,0.0,0.0,0.0,0.0,0.0,0.0,0.0,0.0,0.0,0.0,0.0,0.0,0.0,0.0,0.0,0.0,0.0,0.0,0.0,0.0,0.0,0.0,0.0,0.0,0.0,0.0,0.0,0.0,0.0,0.0,0.0,0.0,0.0,0.0,0.0,0.0,0.0,0.0,0.0,0.0,0.0,0.0,0.0,0.0,0.0,0.0,0.0,0.0,0.0,0.0,0.0,0.0,0.0,0.0,0.0,0.0,0.0,0.0,0.0,0.0,0.0,0.0,0.0,0.0,0.0,0.0,0.0,0.0,0.0,0.0,0.0,0.0,0.0,0.0,0.0,0.0,0.0,0.0,0.0,0.0,0.0,0.0,0.0,0.0,0.0,0.0,0.0,0.0,0.0,0.0,0.0,0.0,0.0,0.0,0.0,0.0,0.0,0.0,0.0,0.0,0.0,0.0,0.0,0.0,0.0,0.0,0.0,0.0,0.0,0.0,0.0,0.0,0.0,0.0,0.0,0.0,0.0,0.0,0.0,0.0,0.0,0.0,0.0,0.0,0.0,0.0,0.0,0.0,0.0,0.0,0.0,0.0,0.0,0.0,0.0,0.0,0.0,0.0,0.0,0.0,0.0,0.0,0.0,0.0,0.0,0.0,0.0,0.0,0.0,0.0,0.0,0.0,0.0,0.0,0.0,0.0,0.0,0.0,0.0,0.0,0.0,0.0,0.0,0.0,0.0,0.0,0.0,0.0,0.0,0.0,0.0,0.0,0.0,0.0,0.0,0.0,0.0,0.0,0.0,0.0,0.0,0.0,0.0,0.0,0.0,0.0,0.0,0.0,0.0,0.0,0.0,0.0,0.0,0.0,0.0,0.0,0.0,0.0,0.0,0.0,0.0,0.0,0.0,0.0,0.0,0.0,0.0,0.0,0.0,0.0,0.0,0.0,0.0,0.0,0.0,0.0,0.0,0.0,0.0,0.0,0.0,0.0,0.0,0.0,0.0,0.0,0.0,0.0,0.0,0.0,0.0,0.0,0.0,0.0,0.0,0.0,0.0,0.0,0.0,0.0,0.0,0.0,0.0,0.0,0.0,0.0,0.0,0.0,0.0,0.0,0.0,0.0,0.0,0.0,0.0,0.0,0.0,0.0,0.0,0.0,0.0,0.0,0.0,0.0,0.0,0.0,0.0,0.0,0.0,0.0,0.0,0.0,0.0,0.0,0.0,0.0,0.0,0.0,0.0,0.0,0.0,0.0,0.0,0.0,0.0,0.0,0.0,0.0,0.0,0.0,0.0,0.0,0.0,0.0,0.0,0.0,0.0,0.0,0.0,0.0,0.0,0.0,0.0,0.0,0.0,0.0,0.0,0.0,0.0,0.0,0.0,0.0,0.0,0.0,0.0,0.0,0.0,0.0,0.0,0.0,0.0,0.0,0.0,0.0,0.0,0.0,0.0,0.0,0.0,0.0,0.0,0.0,0.0,0.0,0.0,0.0,0.0,0.0,0.0,0.0,0.0,0.0,0.0,0.0,0.0,0.0,0.0,0.0,0.0,0.0,0.0,0.0,0.0,0.0,0.0,0.0,0.0,0.0,0.0,0.0,0.0,0.0,0.0,0.0,0.0,0.0,0.0,0.0,0.0,0.0,0.0,0.0,0.0,0.0,0.0,0.0,0.0,0.0,0.0,0.0,0.0,0.0,0.0,0.0,0.0,0.0,0.0,0.0,0.0,0.0,0.0,0.0,0.0,0.0,0.0,0.0,0.0,0.0,0.0,0.0,0.0,0.0,0.0,0.0,0.0,0.0,0.0,0.0,0.0,0.0,0.0,0.0,0.0,0.0,0.0,0.0,0.0,0.0,0.0,0.0,0.0,0.0,0.0,0.0,0.0,0.0,0.0,0.0,0.0,0.0,0.0,0.0,0.0,0.0,0.0,0.0,0.0,0.0,0.0,0.0,0.0,0.0,0.0,0.0,0.0,0.0,0.0,0.0,0.0,0.0,0.0,0.0,0.0,0.0,0.0,0.0,0.0,0.0,0.0,0.0,0.0,0.0,0.0,0.0,0.0,0.0,0.0,0.0,0.0,0.0,0.0,0.0,0.0,0.0,0.0,0.0,0.0,0.0,0.0,0.0,0.0,0.0,0.0,0.0,0.0,0.0,0.0,0.0,0.0,0.0,0.0,0.0,0.0,0.0,0.0,0.0,0.0,0.0,0.0,0.0,0.0,0.0,0.0,0.0,0.0,0.0,0.0,0.0,0.0,0.0,0.0,0.0,0.0,0.0,0.0,0.0,0.0,0.0,0.0,0.0,0.0,0.0,0.0,0.0,0.0,0.0,0.0,0.0,0.0,0.0,0.0,0.0,0.0,0.0,0.0,0.0,0.0,0.0,0.0,0.0,0.0,0.0,0.0,0.0,0.0,0.0,0.0,0.0,0.0,0.0,0.0,0.0,0.0,0.0,0.0,0.0,0.0,0.0,0.0,0.0,0.0,0.0,0.0,0.0,0.0,0.0,0.0,0.0,0.0,0.0,0.0,0.0,0.0,0.0,0.0,0.0,0.0,0.0,0.0,0.0,0.0,0.0,0.0,0.0,0.0,0.0,0.0,0.0,0.0,0.0,0.0,0.0,0.0,0.0,0.0,0.0,0.0,0.0,0.0,0.0,0.0,0.0,0.0,0.0,0.0,0.0,0.0,0.0,0.0,0.0,0.0,0.0,0.0,0.0,0.0,0.0,0.0,0.0,0.0,0.0,0.0,0.0,0.0,0.0,0.0,0.0,0.0,0.0,0.0,0.0,0.0,0.0,0.0,0.0,0.0,0.0,0.0,0.0,0.0,0.0,0.0,0.0,0.0,0.0,0.0,0.0,0.0,0.0,0.0,0.0,0.0,0.0,0.0,0.0,0.0,0.0,0.0,0.0,0.0,0.0,0.0,0.0,0.0,0.0,0.0,0.0,0.0,0.0,0.0,0.0,0.0,0.0,0.0,0.0,0.0,0.0,0.0,0.0,0.0,0.0,0.0,0.0,0.0,0.0,0.0,0.0,0.0,0.0,0.0,0.0,0.0,0.0,0.0,0.0,0.0,0.0,0.0,0.0,0.0,0.0,0.0,0.0,0.0,0.0,0.0,0.0,0.0,0.0,0.0,0.0,0.0,0.0,0.0,0.0,0.0,0.0,0.0,0.0,0.0,0.0,0.0,0.0,0.0,0.0,0.0,0.0,0.0,0.0,0.0,0.0,0.0,0.0,0.0,0.0,0.0,0.0,0.0,0.0,0.0,0.0,0.0,0.0,0.0,0.0,0.0,0.0,0.0,0.0,0.0,0.0,0.0,0.0,0.0,0.0,0.0,0.0,0.0,0.0,0.0,0.0,0.0,0.0,0.0,0.0,0.0,0.0,0.0,0.0,0.0,0.0,0.0,0.0,0.0,0.0,0.0,0.0,0.0,0.0,0.0,0.0,0.0,0.0,0.0,0.0,0.0,0.0,0.0,0.0,0.0,0.0,0.0,0.0,0.0,0.0,0.0,0.0,0.0,0.0,0.0,0.0,0.0,0.0,0.0,0.0,0.0,0.0,0.0,0.0,0.0,0.0,0.0,0.0,0.0,0.0,0.0,0.0,0.0,0.0,0.0,0.0,0.0,0.0,0.0,0.0,0.0,0.0,0.0,0.0,0.0,0.0,0.0,0.0,0.0,0.0,0.0,0.0,0.0,0.0,0.0,0.0,0.0,0.0,0.0,0.0,0.0,0.0,0.0,0.0,0.0,0.0,0.0,0.0,0.0,0.0,0.0,0.0,0.0,0.0,0.0,0.0,0.0,0.0,0.0,0.0,0.0,0.0,0.0,0.0,0.0,0.0,0.0,0.0,0.0,0.0,0.0,0.0,0.0,0.0,0.0,0.0,0.0,0.0,0.0,0.0,0.0,0.0,0.0,0.0,0.0,0.0,0.0,0.0,0.0,0.0,0.0,0.0,0.0,0.0,0.0,0.0,0.0,0.0,0.0,0.0,0.0,0.0,0.0,0.0,0.0,0.0,0.0,0.0,0.0,0.0,0.0,0.0,0.0,0.0,0.0,0.0,-3.2491,0.0,0.0,0.0,0.0,0.0,0.0,0.0,0.0,0.0,0.0,0.0,0.0,0.0,0.0,0.0,0.0,0.0,0.0,0.0,0.0,0.0,0.0,0.0,0.0,-1.9811,-1.9811,-1.9811,-1.9811,0.0,0.0,0.0,0.0,0.0,0.0,0.0,-2.0213,-2.0213,-2.0614,-2.1393,-2.1443,-2.187,-2.2673,-2.2372,-2.1794,-2.1016,0.0,0.0,0.0,0.0,0.0,0.0,0.0,0.0,0.0,0.0,0.0,0.0,0.0,0.0,0.0,0.0,0.0,0.0,0.0,0.0,0.0,0.0,0.0,0.0,0.0,0.0,0.0,0.0,0.0,0.0,0.0,0.0,0.0,0.0,0.0,0.0,0.0,0.0,0.0,0.0,0.0,0.0,0.0,0.0,0.0,0.0,0.0,0.0,0.0,0.0,0.0,0.0,0.0,0.0,0.0,0.0,0.0,0.0,0.0,0.0,0.0,0.0,0.0,0.0,0.0,0.0,0.0,0.0,0.0,0.0,0.0,-3.3345,0.0,0.0,0.0,0.0,0.0,0.0,0.0,0.0,0.0,0.0,0.0,0.0,0.0,0.0,0.0,0.0,0.0,0.0,0.0,0.0,0.0,-1.9836,-1.9936,-1.9962,-1.9987,-2.0087,-2.0087,-2.0062,-1.9962,-1.9962,0.0,0.0,-1.9962,-2.0213,-2.0844,-2.0916,-2.1669,-2.3065,-2.3075,-2.3552,-2.4582,-2.5034,-2.4506,-2.315,-2.2498,0.0,0.0,0.0,0.0,0.0,0.0,0.0,0.0,0.0,0.0,0.0,0.0,0.0,0.0,0.0,0.0,0.0,0.0,0.0,0.0,0.0,0.0,0.0,0.0,0.0,0.0,0.0,0.0,0.0,0.0,0.0,0.0,0.0,0.0,0.0,0.0,0.0,0.0,0.0,0.0,0.0,0.0,0.0,0.0,0.0,0.0,0.0,0.0,0.0,0.0,0.0,0.0,0.0,0.0,0.0,0.0,0.0,0.0,0.0,0.0,0.0,0.0,0.0,-3.4575,-3.5102,-3.5981,-3.5981,-3.6458,-3.7236,-3.5403,-3.4826,-3.5102,0.0,0.0,0.0,0.0,0.0,0.0,0.0,0.0,0.0,0.0,0.0,0.0,0.0,0.0,0.0,0.0,0.0,0.0,0.0,0.0,-1.9987,-2.0542,-2.0618,-2.074,-2.1217,-2.1267,-2.1066,-2.0589,-2.0618,-2.0618,-2.0618,-2.0618,-2.0869,-2.1368,-2.1845,-2.2447,-2.3065,-2.5008,-2.6239,-2.6866,-2.6917,-2.6841,-2.659,-2.5511,-2.4808,-2.4356,0.0,0.0,0.0,0.0,0.0,0.0,0.0,0.0,0.0,0.0,0.0,0.0,0.0,0.0,0.0,0.0,0.0,0.0,0.0,0.0,0.0,0.0,0.0,0.0,0.0,0.0,0.0,0.0,0.0,0.0,0.0,0.0,0.0,0.0,0.0,0.0,0.0,0.0,0.0,0.0,0.0,-3.0507,-3.111,0.0,0.0,0.0,0.0,0.0,0.0,0.0,0.0,0.0,0.0,0.0,0.0,0.0,0.0,-3.5328,-3.573,-3.6207,-3.6759,-3.7236,-3.7538,-3.7688,-3.7688,-3.7764,-3.7889,-3.7588,0.0,-3.686,-3.6784,0.0,0.0,0.0,0.0,0.0,0.0,0.0,0.0,0.0,0.0,0.0,0.0,0.0,0.0,0.0,0.0,0.0,0.0,0.0,0.0,0.0,-2.0941,-2.1343,-2.1895,-2.2246,-2.2171,-2.1619,-2.1594,-2.1443,-2.1142,-2.1117,-2.1518,-2.2397,-2.2975,-2.3979,-2.546,-2.7394,-2.8298,-2.8222,-2.8549,-2.8699,-2.8674,-2.8172,-2.7143,-2.5737,-2.5485,0.0,0.0,0.0,0.0,0.0,0.0,0.0,0.0,0.0,0.0,0.0,0.0,0.0,0.0,0.0,0.0,0.0,0.0,0.0,0.0,0.0,0.0,0.0,0.0,0.0,0.0,0.0,0.0,0.0,0.0,0.0,0.0,0.0,0.0,0.0,0.0,0.0,0.0,0.0,-2.988,-3.0583,-3.1712,-3.1587,-3.1386,0.0,0.0,0.0,0.0,0.0,0.0,0.0,0.0,0.0,-3.5253,-3.5579,-3.6132,-3.691,-3.7161,-3.7412,-3.7638,-3.7889,-3.8191,-3.8492,-3.8818,-3.912,-3.9446,-3.9747,-3.9747,-3.9396,-3.7839,-3.7086,-3.691,0.0,0.0,0.0,0.0,-3.7211,-3.7111,0.0,0.0,0.0,0.0,0.0,0.0,0.0,0.0,0.0,0.0,0.0,0.0,-2.1016,-2.1719,-2.2347,-2.2899,-2.3326,-2.3326,-2.2774,-2.2598,-2.2347,-2.192,-2.1769,-2.2221,-2.3326,-2.433,-2.5787,-2.7695,-2.9101,-2.9578,-2.9151,-2.9603,-2.9854,-3.0005,-3.0005,-2.9001,-2.7293,-2.6992,-2.6163,-2.5008,0.0,0.0,0.0,0.0,0.0,0.0,0.0,0.0,0.0,0.0,0.0,0.0,0.0,0.0,0.0,0.0,0.0,0.0,0.0,0.0,0.0,0.0,0.0,0.0,0.0,0.0,0.0,0.0,0.0,0.0,0.0,0.0,0.0,0.0,0.0,0.0,0.0,-3.0633,-3.1085,-3.229,-3.2315,-3.219,0.0,0.0,0.0,0.0,0.0,0.0,-3.5328,-3.5755,-3.6207,-3.6759,-3.7186,-3.7663,-3.8216,-3.8366,-3.8517,-3.8642,-3.8793,-3.9094,-3.9521,-3.9923,-4.035,-4.0752,-4.1153,-4.1329,-4.1178,-3.9094,-3.8391,-3.8617,-3.8191,-3.8191,-3.8517,-3.9069,-3.9019,-3.8843,0.0,0.0,0.0,0.0,0.0,0.0,0.0,0.0,0.0,0.0,0.0,-2.1619,-2.2171,-2.3226,-2.4104,-2.4657,-2.4732,-2.4506,-2.3954,-2.3401,-2.3075,-2.299,-2.2548,-2.2799,-2.3929,-2.6038,-2.7695,-2.885,-2.9478,-2.9779,-2.9754,-2.9779,-3.008,-3.0583,-3.0583,-3.0231,-2.9553,-2.8473,-2.7971,-2.777,-2.6163,0.0,0.0,0.0,0.0,0.0,0.0,0.0,0.0,0.0,0.0,0.0,0.0,0.0,0.0,0.0,0.0,0.0,0.0,0.0,0.0,0.0,0.0,0.0,0.0,0.0,0.0,0.0,0.0,0.0,0.0,0.0,0.0,0.0,0.0,0.0,0.0,0.0,0.0,-3.3018,-3.3922,0.0,0.0,0.0,0.0,-3.5378,-3.5479,-3.5956,-3.701,-3.7086,-3.7362,-3.7914,-3.7939,-3.8241,-3.8818,-3.9346,-3.9873,-4.04,-4.0927,-4.1178,-4.1229,-4.1254,-4.1279,-4.1304,-4.1329,-4.1329,-4.1329,-4.1178,-4.0827,-4.04,-4.035,-4.0049,-3.9672,-4.0224,-4.0425,-4.0475,0.0,0.0,0.0,-1.9811,-1.9811,-1.9811,-1.9811,-1.9811,-1.9811,-1.9811,-2.079,-2.1694,-2.2246,-2.3627,-2.4732,-2.5285,-2.5661,-2.5636,-2.5059,-2.4531,-2.4381,-2.4707,-2.4205,-2.4782,-2.6615,-2.777,-2.8725,-2.9478,-3.0055,-3.0306,-3.0331,-3.0658,-3.0934,-3.111,-3.111,-3.1009,-3.0783,-3.0382,-2.9829,-2.9126,-2.8549,-2.7645,0.0,0.0,0.0,0.0,0.0,0.0,0.0,0.0,0.0,0.0,0.0,0.0,0.0,0.0,0.0,0.0,0.0,0.0,0.0,0.0,0.0,0.0,0.0,0.0,0.0,0.0,0.0,0.0,0.0,0.0,0.0,0.0,0.0,0.0,0.0,0.0,0.0,-3.4048,-3.4474,0.0,-3.4951,-3.5454,-3.6006,-3.6558,-3.6935,-3.7312,-3.7688,-3.8065,-3.8517,-3.9069,-3.9446,-3.9898,-4.045,-4.0651,-4.0852,-4.1053,-4.1254,-4.1329,-4.1354,-4.1706,-4.1856,-4.1882,-4.2233,-4.2384,-4.2494,-4.3316,-4.2874,-4.158,-4.158,-4.1681,-4.1831,-4.2032,-4.2108,-4.2242,0.0,0.0,0.0,-1.9811,-1.9811,-1.9811,-1.9811,-1.9811,-1.9936,-2.0313,-2.1343,-2.2322,-2.3075,-2.4481,-2.5511,-2.5862,-2.6239,-2.6289,-2.5912,-2.5648,-2.5561,-2.5586,-2.546,-2.6239,-2.8072,-2.885,-2.9503,-3.008,-3.0608,-3.0884,-3.0884,-3.1235,-3.1486,-3.1662,-3.1662,-3.1763,-3.1964,-3.1964,-3.1336,-3.0306,-3.0131,-2.9402,-2.8298,0.0,0.0,0.0,0.0,0.0,0.0,0.0,0.0,0.0,0.0,0.0,0.0,0.0,0.0,0.0,0.0,0.0,0.0,0.0,0.0,0.0,0.0,0.0,0.0,0.0,0.0,0.0,0.0,0.0,0.0,0.0,0.0,0.0,0.0,0.0,-3.3897,-3.4625,-3.5203,-3.5629,-3.5805,-3.6483,-3.7136,-3.7713,-3.809,-3.8467,-3.8843,-3.922,-3.9672,-4.0224,-4.1101,-4.1457,-4.1329,-4.2417,-4.2519,-4.163,-4.2699,-4.299,-4.2613,-4.3484,-4.3558,-4.3176,-4.4054,-4.4126,-4.3713,-4.4643,-4.4301,-4.315,-4.315,-4.3077,-4.2986,-4.2986,-4.3295,-4.3823,0.0,0.0,-1.9811,-1.9811,-1.9811,-1.9811,-1.9811,-1.9811,-2.0213,-2.1343,-2.2472,-2.3516,-2.4707,-2.5812,-2.6533,-2.6533,-2.6559,-2.6559,-2.6533,-2.6712,-2.6531,-2.5703,-2.6239,-2.7092,-2.8172,-2.9277,-3.0105,-3.0633,-3.116,-3.1411,-3.1411,-3.1436,-3.1738,-3.224,-3.224,-3.2541,-3.3068,-3.3068,-3.2441,-3.1411,-3.0909,-3.0683,-3.0482,0.0,0.0,0.0,0.0,0.0,0.0,0.0,0.0,0.0,0.0,0.0,0.0,0.0,0.0,0.0,0.0,0.0,0.0,0.0,0.0,0.0,0.0,0.0,0.0,0.0,0.0,0.0,0.0,0.0,0.0,0.0,0.0,0.0,-3.3947,-3.4424,-3.4776,-3.4801,-3.6232,-3.701,-3.6483,-3.7412,-3.8291,-3.8868,-3.8919,-3.9396,-4.0475,-4.0551,-4.0802,-4.1354,-4.2762,-4.2866,-4.1379,-4.464,-4.5012,-4.2402,-4.5603,-4.637,-4.5155,-4.6474,-4.6397,-4.5182,-4.6501,-4.6424,-4.5101,-4.5208,-4.5208,-4.5101,-4.5074,-4.4235,-4.3123,-4.3123,-4.4068,-4.5287,-1.9811,-1.9811,-1.9811,-1.9811,-2.0194,-2.0346,-1.9837,-2.0553,-2.1171,-2.1448,-2.2824,-2.4029,-2.4732,-2.5812,-2.6533,-2.6533,-2.6816,-2.6892,-2.6559,-2.6587,-2.6663,-2.6791,-2.8524,-2.9628,-2.993,-3.0608,-3.1035,-3.1185,-3.1712,-3.1989,-3.1989,-3.2416,-3.2692,-3.2842,-3.2842,-3.2918,-3.3068,-3.3068,-3.2893,-3.2591,-3.2466,-3.2139,-3.1687,0.0,0.0,0.0,0.0,0.0,0.0,0.0,0.0,0.0,0.0,0.0,0.0,0.0,0.0,0.0,0.0,0.0,0.0,0.0,0.0,0.0,0.0,0.0,0.0,0.0,0.0,0.0,0.0,0.0,0.0,0.0,0.0,-3.5102,-3.5102,-3.5554,-3.6056,-3.6458,-3.7262,-3.7889,-3.8165,-3.8467,-3.9019,-3.9998,-4.0074,-4.0375,-4.1078,-4.2006,-4.2368,-4.2016,-4.4253,-4.5061,-4.3958,-4.5967,-4.6538,-4.5735,-4.6703,-4.6888,-4.6578,-4.6888,-4.7136,-4.7233,-4.7653,-4.7901,-4.8023,-4.905,-4.8841,-4.7862,-4.6356,-4.5463,-4.5407,-4.6893,-4.8314,-4.9493,-1.9811,-1.9811,-1.9914,-2.0144,-2.0547,-2.0646,-2.0295,-2.0991,-2.1745,-2.2103,-2.3251,-2.4381,-2.5385,-2.6088,-2.6609,-2.6861,-2.7092,-2.7328,-2.7319,-2.7361,-2.7754,-2.8831,-2.9783,-3.0482,-3.0934,-3.1461,-3.1738,-3.1738,-3.229,-3.2566,-3.2591,-3.2918,-3.3068,-3.3068,-3.3068,-3.3068,-3.3068,-3.3068,-3.3068,-3.3068,-3.3068,-3.2867,-3.2516,-3.1938,-3.121,-3.0382,-2.9829,-2.9277,-2.8825,-2.8825,0.0,0.0,0.0,0.0,0.0,0.0,0.0,0.0,0.0,0.0,0.0,0.0,0.0,0.0,0.0,0.0,0.0,0.0,0.0,0.0,0.0,0.0,0.0,0.0,-3.5504,-3.6496,-3.7236,-3.7013,-3.691,-3.7462,-3.8015,-3.8867,-4.0002,-3.9804,-4.0208,-4.1567,-4.1749,-4.169,-4.1656,-4.3572,-4.4253,-4.3419,-4.6059,-4.6939,-4.5872,-4.7808,-4.8239,-4.7094,-4.8594,-4.8937,-4.8432,-4.9294,-4.9506,0.0,-4.995,-5.0075,-5.0001,-5.0829,-5.0623,0.0,0.0,0.0,0.0,0.0,-5.0417,-5.1193,-1.9811,-1.9811,-1.9991,-2.0696,-2.0795,-2.0845,-2.0894,-2.135,-2.2057,-2.3077,-2.3739,-2.4707,-2.6289,-2.6533,-2.676,-2.7243,-2.7394,-2.7825,-2.8595,-2.8638,-2.9345,-3.0843,-3.0394,-3.0507,-3.1461,-3.2014,-3.2315,-3.2315,-3.2817,-3.3068,-3.3068,-3.3068,-3.3068,-3.3068,-3.3068,-3.3068,-3.3068,-3.3068,-3.3068,-3.3068,-3.3068,-3.3068,-3.3018,-3.2516,-3.2014,-3.1512,-3.106,-3.0583,-3.0156,-3.0156,0.0,0.0,0.0,0.0,0.0,0.0,0.0,0.0,0.0,0.0,0.0,0.0,0.0,0.0,0.0,0.0,0.0,0.0,0.0,0.0,0.0,0.0,0.0,0.0,-3.6963,-3.828,-3.9944,-3.8921,-3.7977,-3.8237,-3.8943,-4.0004,-4.1617,-4.1235,-4.1619,-4.3565,-4.3618,-4.3284,-4.2729,0.0,0.0,0.0,0.0,-4.8738,-4.7299,-4.996,-5.0086,-4.7717,-5.0857,-5.1698,-5.0585,-5.2388,-5.2586,-5.1483,-5.2744,-5.2674,-5.157,-5.1657,-5.1715,-5.1773,-5.1424,-5.0777,-4.9995,-5.1334,-5.1773,-5.186,-1.9811,-1.9811,-1.9991,-2.0696,-2.0795,-2.0993,-2.1424,-2.1923,-2.2664,-2.3748,-2.4315,-2.5134,-2.6339,-2.6533,-2.676,-2.7243,-2.8097,-2.8875,-2.9479,-2.958,-2.9656,-2.9985,-3.1115,-3.1838,-3.2039,-3.2616,-3.2918,-3.2918,-3.3018,-3.3068,-3.3068,-3.3068,-3.3068,-3.3068,-3.3068,-3.3068,-3.3068,-3.3068,-3.3068,-3.3068,-3.3068,-3.3068,-3.3068,-3.2943,-3.2842,-3.2742,-3.2641,-3.2541,-3.2441,-3.2441,-3.1763,-3.0909,-3.0909,-3.0181,0.0,0.0,0.0,0.0,0.0,0.0,0.0,0.0,0.0,0.0,0.0,0.0,0.0,0.0,0.0,0.0,0.0,0.0,0.0,-3.8175,-3.9838,-4.1251,-4.2038,-4.2261,-4.1869,-4.0421,-4.1214,-4.2071,-4.2378,-4.2729,-4.3694,-4.5586,-4.472,-4.4676,-4.6075,-4.774,0.0,-4.6682,-4.9357,-5.0191,-4.8837,-5.0913,-5.1691,-5.1179,0.0,0.0,-5.2673,-5.3017,-5.3375,-5.3585,-5.3913,-5.4212,-5.4416,-5.5024,-5.5529,-5.5783,-5.3547,-5.3564,-5.4879,-5.5694,-5.6006,-5.5902,-1.9811,-1.9811,-2.0093,-2.1064,-2.0993,-2.122,-2.2507,-2.288,-2.3528,-2.5067,-2.5345,-2.573,-2.658,-2.6359,-2.6242,-2.6524,-2.7893,-2.9106,-2.9931,-3.0265,-3.0445,-3.0557,-3.1637,-3.234,-3.2641,-3.2943,-3.3068,-3.3068,-3.3068,-3.3068,-3.3068,-3.3068,-3.3068,-3.3068,-3.3068,-3.3068,-3.3068,-3.3068,-3.3068,-3.3068,-3.3068,-3.3068,-3.3068,-3.3068,-3.3068,-3.3068,-3.3068,-3.3068,-3.3068,-3.3068,-3.2692,-3.224,-3.224,-3.1662,-3.0884,0.0,0.0,0.0,0.0,0.0,0.0,0.0,0.0,0.0,0.0,0.0,0.0,0.0,0.0,-3.5305,-3.6638,0.0,-3.9536,-4.0757,-4.1901,-4.3129,-4.4358,-4.4573,-4.407,-4.2819,-4.3525,-4.4375,-4.537,-4.5075,-4.5687,-4.7631,-4.7058,-4.679,-4.7094,-4.9063,-4.9582,-4.8239,-5.0095,-5.1066,-5.0661,-5.172,-5.2366,-5.2695,-5.3384,-5.3683,-5.3713,-5.4042,-5.4371,-5.473,-5.5059,-5.5388,-5.5718,-5.6376,-5.6825,-5.696,-5.5972,-5.6064,-5.6675,-5.6974,-5.7094,-5.7094,-1.9811,-1.9914,-2.0346,-2.1328,-2.122,-2.156,-2.3416,-2.3638,-2.4228,-2.6134,-2.6158,-2.6206,-2.688,-2.641,-2.6188,-2.6559,-2.79,-2.9215,-3.0303,-3.0843,-3.119,-3.1417,-3.2039,-3.2591,-3.3068,-3.3068,-3.3068,-3.3068,-3.3068,-3.3068,-3.3068,-3.3068,-3.3068,-3.3068,-3.3068,-3.3068,-3.3068,-3.3068,-3.3068,-3.3068,-3.3068,-3.3068,-3.3068,-3.3068,-3.3068,-3.3068,-3.3068,-3.3068,-3.3068,-3.3068,-3.3068,-3.3068,-3.3068,-3.2767,-3.2265,-3.1712,-3.1537,0.0,0.0,0.0,0.0,0.0,0.0,0.0,0.0,-3.324,-3.3878,-3.5364,-3.6724,-3.8033,-3.9585,-4.094,-4.2195,-4.3222,-4.4107,-4.5231,-4.6732,-4.6681,-4.618,-4.5673,-4.5873,-4.6671,-4.8153,-4.7419,-4.7603,-4.9426,-4.9357,-4.8837,-4.7909,-4.9969,-5.0757,-4.9853,-5.078,-5.1738,-5.2396,-5.2516,-5.2845,-5.3384,-5.4072,-5.4461,-5.461,-5.5149,-5.5448,-5.5598,-5.6137,-5.6436,-5.6585,-5.7094,-5.7363,-5.7543,-5.8112,-5.8052,-5.7663,-5.7543,-5.7573,-5.7663,-1.9811,-2.0295,-2.0746,-2.0894,-2.1218,-2.2046,-2.3474,-2.3513,-2.415,-2.6065,-2.6245,-2.6394,-2.6969,-2.6909,-2.751,-2.9121,-2.9213,-2.9652,-3.0861,-3.1214,-3.1342,-3.1386,-3.2416,-3.3018,-3.3068,-3.3068,-3.3068,-3.3068,-3.3068,-3.3068,-3.3068,-3.3068,-3.3068,-3.3068,-3.3068,-3.3068,-3.3068,-3.3068,-3.3068,-3.3068,-3.3068,-3.3068,-3.3068,-3.3068,-3.3068,-3.3068,-3.3068,-3.3068,-3.3068,-3.3068,-3.3068,-3.3068,-3.3068,-3.3043,-3.2867,-3.229,-3.2114,-3.1989,-3.1461,-3.2114,-3.3093,-3.3596,-3.4073,-3.4826,0.0,-3.7114,-3.7975,-3.9096,-4.0356,-4.1487,-4.2168,-4.3737,-4.5183,-4.5901,-4.7515,-4.8774,-4.8954,-4.9429,-4.9601,-4.9542,-4.8668,-4.8028,-4.8307,-4.8632,-4.9494,-5.0887,-4.9873,-4.9679,-5.0698,-5.1011,-5.1374,-5.1846,-5.2001,-5.2396,-5.3054,-5.3683,-5.4012,-5.4102,-5.476,-5.5388,-5.5957,-5.6017,-5.6346,-5.6885,-5.6944,-5.7334,-5.7902,-5.7992,-5.8351,-5.889,-5.8949,-5.9308,-5.9668,-5.9099,-5.9249,-5.9757,-2.0888,-2.1449,-2.1848,-2.1898,-2.1736,-2.2234,-2.4038,-2.4152,-2.475,-2.6737,-2.6916,-2.6778,-2.6685,-2.6358,-2.6917,-2.8886,-2.8608,-2.9054,-3.0626,-3.0855,-3.106,-3.1386,-3.2139,-3.2742,-3.3068,-3.3068,-3.3068,-3.3068,-3.3068,-3.3068,-3.3068,-3.3068,-3.3068,-3.3068,-3.3068,-3.3068,-3.3068,-3.3068,-3.3068,-3.3068,-3.3068,-3.3068,-3.3068,-3.3068,-3.3068,-3.3068,-3.3068,-3.3068,0.0,-3.3445,-3.3545,-3.3621,-3.3922,-3.3822,-3.352,-3.3269,-3.2968,-3.2867,-3.3621,-3.4148,-3.4726,-3.5604,-3.6606,-3.7468,-3.8194,-3.9135,-4.0205,-4.1311,-4.2572,-4.3698,-4.4691,-4.6127,-4.7287,0.0,-4.9102,-4.9823,-4.9823,-5.0391,-5.081,-5.081,-5.0312,-4.9999,-4.9999,-5.0235,-5.0603,-5.1135,-5.0698,-5.078,-5.1768,-5.1798,-5.2097,-5.2755,-5.2785,-5.3084,-5.3773,-5.4072,-5.4581,-5.5359,-5.5628,-5.6107,-5.6705,-5.6705,-5.7064,-5.7693,-5.7693,-5.8082,-5.871,-5.9099,-5.9428,-5.9727,-6.0116,-6.0446,-6.0595,-5.9937,-6.0116,-6.0685,-2.1378,-2.1957,-2.2303,-2.2205,-2.1992,-2.2437,-2.4152,-2.4352,-2.4847,-2.6525,-2.6799,-2.6664,-2.621,-2.5977,-2.6491,-2.8166,-2.8368,-2.8911,-3.0266,-3.0712,-3.1128,-3.1361,-3.1913,-3.2491,-3.3068,-3.3068,-3.3068,-3.3068,-3.3068,-3.3068,-3.3068,-3.3068,-3.3068,-3.3068,-3.3068,-3.3068,-3.3068,-3.3068,-3.3068,-3.3068,-3.3068,-3.3068,-3.3068,-3.3068,-3.3068,-3.3068,-3.3068,-3.3068,-3.3144,-3.3545,-3.3671,-3.3746,-3.4148,-3.3997,-3.3696,-3.3847,-3.3621,-3.3596,-3.4951,-3.5429,-3.5805,-3.691,-3.8005,-3.8893,-3.9427,-4.054,-4.1841,-4.3174,-4.4571,-4.5931,-4.6745,-4.7999,-4.8985,-4.9464,-5.0092,-5.0511,-5.0511,-5.093,-5.1229,-5.1229,-5.1229,-5.1229,-5.1229,-5.1229,-5.1229,-5.1229,-5.1379,-5.1708,-5.2187,-5.2366,-5.2785,-5.3443,-5.3473,-5.3803,-5.4461,-5.467,-5.5239,-5.6166,-5.6346,-5.6765,-5.7393,-5.7573,-5.7932,-5.8411,-5.859,-5.8949,-5.9428,-6.0086,-6.0386,-6.0416,-6.0924,-6.1224,-6.1313,-6.0835,-6.0954,-6.1373,-2.0673,-2.1334,-2.1547,-2.097,-2.1821,-2.2846,-2.3626,-2.3681,-2.39,-2.4653,-2.5295,-2.5657,-2.5657,-2.6195,-2.6871,-2.758,-2.9086,-2.9944,-2.9756,-3.1109,-3.1785,-3.1442,-3.1913,-3.2491,-3.3068,-3.3068,-3.3068,-3.3068,-3.3068,-3.3068,-3.3068,-3.3068,-3.3068,-3.3068,-3.3068,-3.3068,-3.3068,-3.3068,-3.3068,-3.3068,-3.3068,-3.3068,-3.3068,-3.3068,-3.3068,-3.3068,-3.3068,-3.3068,-3.3068,-3.3093,-3.3093,-3.3093,-3.3119,-3.3119,-3.3219,-3.3746,-3.3897,-3.3997,-3.46,-3.5127,-3.5805,-3.691,-3.7588,-3.8485,-4.0368,-4.1693,-4.3194,-4.4944,-4.6814,-4.8237,-4.8267,-4.9314,-5.0182,-5.0212,-5.075,-5.1199,-5.1199,-5.1199,-5.1229,-5.1229,-5.1229,-5.1229,0.0,-5.1229,-5.1229,-5.1229,-5.1798,-5.2187,-5.2187,-5.2815,-5.3473,-5.4162,-5.4192,-5.4491,-5.5149,-5.5777,-5.6137,-5.6196,-5.6765,-5.7423,-5.8112,-5.874,-5.9069,-5.9099,-5.9757,-6.0027,-6.0116,-6.0805,-6.1074,-6.1074,-6.1104,-6.1493,-6.2061,-6.2061,-6.2061,-6.2061,-2.1325,-2.1821,-2.2159,-2.2083,-2.1965,-2.2165,-2.293,-2.3322,-2.3691,-2.3946,-2.4487,0.0,0.0,0.0,0.0,0.0,-2.897,-2.9765,-3.0538,-3.0713,-3.1284,-3.2304,-3.1863,-3.2114,-3.3068,-3.3068,-3.3068,-3.3068,-3.3068,-3.3068,-3.3068,-3.3068,-3.3068,-3.3068,-3.3068,-3.3068,-3.3068,-3.3068,-3.3068,-3.3068,-3.3068,-3.3068,-3.3119,-3.3495,-3.3395,-3.3068,0.0,-3.3068,-3.3018,-3.2641,-3.2767,-3.3144,-3.3495,-3.337,-3.3341,-3.4624,-3.474,-3.4906,-3.6974,-3.7279,-3.7632,-3.9582,-4.0852,-4.2004,-4.3519,-4.5207,-4.6636,-4.7229,-4.8179,-4.9075,-4.9494,-4.9942,-5.0391,-5.081,-5.1079,-5.1229,-5.1229,-5.1229,-5.1229,-5.1229,-5.1229,0.0,0.0,0.0,0.0,-5.1858,-5.2486,-5.3054,-5.3503,-5.3743,-5.4162,-5.485,-5.5299,-5.5628,-5.5837,-5.6466,-5.7004,-5.7483,-5.8112,-5.856,-5.877,-5.9009,-5.9338,-5.9757,-5.9997,-6.0356,-6.0835,-6.1493,-6.1762,-6.1822,-6.2241,-6.254,-6.275,-6.275,-6.275,-6.275,0.0,-2.1957,-2.222,-2.2552,-2.2056,0.0,0.0,0.0,0.0,0.0,0.0,0.0,0.0,0.0,0.0,0.0,0.0,-2.9609,-3.0348,-3.045,-3.1172,-3.2653,-3.1887,-3.2097,-3.3472,-3.3014,-3.2867,-3.3334,-3.2937,-3.2867,-3.3068,-3.3068,-3.3068,-3.3068,-3.3068,-3.3068,-3.3068,-3.3068,-3.3294,-3.3621,-3.3244,-3.3319,-3.3671,-3.3621,-3.3395,0.0,-3.2842,-3.3022,-3.3173,-3.2198,-3.229,-3.2842,-3.3194,-3.347,-3.3896,-3.4986,-3.5302,-3.5789,-3.7964,-3.8273,-3.8589,-4.1267,-4.2574,-4.3671,-4.5624,-4.707,-4.8148,-4.8537,-4.9164,-4.9733,-5.0152,-5.0421,-5.072,-5.1139,-5.1229,-5.1229,-5.1229,-5.1229,-5.1319,-5.1528,-5.1558,-5.1828,0.0,0.0,0.0,-5.2576,-5.3174,-5.3743,-5.4192,-5.4431,-5.485,-5.5538,-5.5957,-5.6286,-5.6496,-5.7124,-5.7812,-5.8471,-5.9129,-5.9458,-5.9458,-5.9727,-6.0057,-6.0475,-6.0685,-6.1044,-6.1523,-6.2181,-6.245,-6.248,-6.2899,-6.3199,-6.3408,-6.3408,-6.3558,-6.3737,0.0,0.0,-2.1773,0.0,0.0,0.0,0.0,0.0,0.0,0.0,0.0,0.0,0.0,0.0,0.0,0.0,0.0,0.0,-2.9115,-3.0319,-3.1452,-3.2412,-3.1873,-3.2324,-3.4211,-3.2738,-3.2567,-3.3753,-3.2829,-3.2659,-3.3104,-3.3154,-3.3154,-3.3043,-3.3068,-3.3068,-3.3043,-3.3068,-3.3671,-3.45,-3.3532,-3.3758,-3.4474,-3.3557,-3.3154,-3.3079,-3.2416,-3.2854,-3.3485,-3.1889,-3.1788,-3.2315,-3.234,-3.347,-3.4801,-3.4916,-3.5697,-3.6779,-3.7985,-3.8313,-3.899,-4.2092,-4.2891,-4.3625,-4.6738,-4.7507,-4.7911,-4.9073,-4.9793,-5.0242,-5.0182,-5.072,-5.1169,-5.1169,-5.1199,-5.1229,-5.1229,-5.1259,-5.1498,-5.2127,-5.2217,-5.2516,-5.3174,-5.3832,0.0,-5.3324,0.0,-5.4251,-5.4251,-5.488,-5.5538,-5.6137,-5.6226,-5.6555,-5.7154,-5.7842,-5.8501,-5.9129,-5.9757,-6.0086,-6.0116,-6.0805,-6.1134,-6.1194,-6.1822,-6.2121,-6.2181,-6.281,-6.3109,-6.3139,-6.3139,-6.3498,-6.4066,-6.4066,-6.4455,-6.4934,0.0,0.0,0.0,0.0,0.0,0.0,0.0,0.0,0.0,0.0,0.0,0.0,0.0,0.0,0.0,0.0,0.0,0.0,-2.9415,-3.0045,-3.0882,-3.2018,-3.1681,-3.2132,-3.3532,-3.3172,-3.3322,-3.4159,-3.4359,-3.418,-3.358,-3.4079,-3.3637,-3.2466,-3.2893,-3.2842,-3.2466,-3.2893,-3.2993,-3.2902,-3.3354,-3.3239,-3.2953,-3.3817,-3.4178,-3.41,-3.2726,-3.2911,-3.3539,-3.197,-3.2315,-3.3545,-3.3947,-3.4951,-3.6193,-3.7479,-3.7775,-3.8303,-4.1309,-4.1754,-4.2186,-4.5412,-4.6147,-4.6681,-4.8437,-4.9127,-4.9456,-4.9374,-4.9793,-5.0092,-4.9613,-5.0062,-5.0481,-5.0481,-5.09,-5.1229,-5.1229,-5.1648,-5.2007,-5.2187,-5.2636,-5.3204,-5.3892,-5.4102,0.0,0.0,-5.485,-5.494,-5.494,-5.5568,-5.5987,-5.6166,-5.7124,-5.7693,-5.7872,-5.853,-5.8949,-5.9129,-5.9757,-6.0086,-6.0116,-6.0805,-6.1373,-6.1852,-6.2032,-6.2361,-6.2839,-6.3019,-6.3348,-6.3767,-6.3767,-6.4186,-6.4755,-6.4755,-6.4874,-6.5084,0.0,0.0,0.0,0.0,0.0,0.0,0.0,0.0,0.0,0.0,0.0,0.0,0.0,0.0,0.0,0.0,0.0,0.0,0.0,-2.9628,-3.0426,-3.1649,-3.1588,-3.2103,-3.3386,-3.272,-3.3073,-3.4573,-3.3938,-3.3929,-3.4418,-3.3489,-3.2697,-3.2111,-3.2086,-3.1813,-3.1562,-3.2089,-3.2441,0.0,0.0,-3.3023,-3.2651,-3.3502,-3.3804,-3.3804,-3.3101,-3.3632,-3.441,-3.3462,-3.3589,-3.4349,-3.4901,-3.583,-3.7001,-3.8203,-3.8503,-3.9041,-4.1914,-4.261,-4.3372,-4.6614,-4.7586,-4.8101,-4.9399,-4.9972,-5.0062,-4.9404,-4.9553,-4.9703,-4.9344,-4.9793,-5.0242,-5.0242,-5.102,-5.1648,-5.1648,-5.2217,-5.2755,-5.3054,-5.3414,-5.3892,-5.4581,-5.464,-5.491,0.0,-5.5628,-5.5628,-5.5628,-5.6226,-5.6705,-5.7004,-5.7752,-5.8261,-5.856,-5.9189,-5.9548,-5.9548,-6.0505,-6.0984,-6.0984,-6.1672,-6.2181,-6.254,0.0,-6.272,-6.3109,-6.3378,-6.3677,-6.4036,-6.4336,-6.4874,-6.5473,-6.5473,-6.5652,-6.5951,0.0,0.0,0.0,0.0,0.0,0.0,0.0,0.0,0.0,0.0,-2.2735,-2.3131,-2.441,-2.5041,0.0,0.0,0.0,0.0,0.0,0.0,-3.0018,-3.0923,-3.1304,-3.2049,-3.3183,-3.1944,-3.2407,-3.4715,-3.2804,-3.2929,-3.4906,-3.2502,-3.1554,-3.1751,-3.0957,-3.0561,-3.0532,-3.1221,-3.2003,-3.2751,-3.2828,-3.2956,-3.2954,0.0,-3.2882,-3.3172,-3.3754,-3.4545,-3.5358,-3.526,-3.5135,-3.5152,-3.5705,-3.6634,-3.7613,-3.809,-3.8592,-3.95,-4.1571,-4.2572,-4.3805,-4.7062,-4.8333,-4.8931,-4.9965,-5.0242,-5.0032,-4.9284,-4.9134,-4.9105,-4.9015,-4.9613,-5.0152,-5.0242,-5.1349,-5.2217,-5.2306,-5.2905,-5.3533,-5.4132,-5.4281,-5.4551,-5.5119,-5.5269,-5.5568,-5.6137,-5.6346,-5.6376,-5.6286,-5.6885,-5.7543,-5.8231,-5.8261,-5.856,-5.9219,-5.9787,-6.0116,-6.0236,-6.1493,-6.2091,-6.2121,-6.278,-6.3079,-6.3079,0.0,0.0,-6.3228,-6.3767,-6.4096,-6.4336,-6.4934,-6.5562,-6.6131,-6.6131,-6.649,-6.6999,0.0,0.0,0.0,0.0,0.0,0.0,0.0,0.0,0.0,0.0,-2.307,-2.2776,0.0,0.0,0.0,0.0,0.0,0.0,0.0,0.0,0.0,-2.7987,-3.0221,-3.1516,-3.1584,-3.2046,-3.2733,-3.3743,-3.3913,-3.3718,-3.3317,-3.3378,-3.24,-3.0493,-3.0843,-3.0547,-3.0033,-3.1371,-3.1576,-3.117,-3.2733,-3.2836,-3.2176,-3.2121,0.0,0.0,-3.4606,-3.465,-3.48,-3.4842,-3.5713,-3.686,-3.7412,-3.8341,-3.927,-3.9371,-3.9471,-4.0338,-4.3904,-4.4881,-4.5902,-4.9669,-5.0649,-5.059,-5.0269,-5.0242,-4.9883,-4.8686,-4.8446,-4.8297,-4.7758,-4.8626,-4.9613,-5.0152,-5.1349,-5.2396,-5.2935,-5.3593,-5.4072,-5.4192,-5.47,-5.5059,-5.5179,-5.5688,-5.6047,0.0,0.0,-5.7543,-5.6974,-5.7573,-5.8261,-5.8919,-5.8949,-5.9249,-5.9907,-6.0027,-6.0386,-6.0954,-6.1732,-6.2091,-6.2121,-6.278,-6.3079,-6.3079,-6.3079,0.0,-6.3857,-6.3947,-6.4665,-6.5682,-6.5802,-6.6251,-6.6819,-6.6819,-6.6879,-6.6999,0.0,0.0,0.0,0.0,0.0,0.0,0.0,-2.339,-2.372,-2.5214,-2.4864,-2.4598,-2.4788,-2.5033,-2.5627,0.0,0.0,0.0,0.0,0.0,0.0,-2.7824,-2.9085,-3.0247,-3.1336,-3.1366,-3.2047,-3.3484,0.0,-3.2805,-3.368,-3.165,-3.0473,-3.0092,-2.983,-2.9274,-2.8598,-3.0043,-3.031,-2.9806,-3.1241,-3.177,-3.1615,-3.1932,0.0,0.0,-3.442,-3.4926,-3.576,-3.4689,-3.5579,-3.7287,-3.7839,-3.8793,-3.9697,-3.9697,-3.9697,-4.0363,-4.3125,-4.4683,-4.621,-4.8952,-5.0461,-5.096,-4.9972,-4.9733,-4.9374,-4.8057,-4.7788,-4.7668,-4.7369,-4.8087,-4.8985,-4.9613,-5.1109,-5.2426,-5.3084,-5.4072,-5.473,-5.473,-5.5299,-5.5718,-5.5718,-5.6286,-5.6795,-5.7154,0.0,-5.7992,-5.7633,-5.8261,-5.877,-5.9099,-5.9428,-5.9757,-6.0086,-6.0775,-6.1283,-6.1642,-6.2301,-6.26,-6.263,-6.2929,-6.3079,-6.3109,-6.3408,0.0,-6.4066,-6.4755,-6.5413,-6.6041,-6.637,-6.67,-6.6999,-6.6999,-6.6999,-6.6999,0.0,0.0,0.0,0.0,0.0,0.0,-2.458,-2.4544,-2.495,-2.6698,-2.6858,-2.6739,-2.6388,-2.6074,-2.6162,0.0,0.0,0.0,0.0,0.0,0.0,0.0,-2.8001,-2.9007,-3.0629,0.0,0.0,-3.2691,-3.1419,0.0,0.0,0.0,0.0,0.0,-2.8905,-2.8134,-2.7389,-2.869,-2.9262,0.0,0.0,-3.0997,-3.1729,0.0,0.0,0.0,0.0,-3.5116,-3.6904,-3.4667,-3.531,-3.7045,-3.7535,-3.8592,-3.9672,-3.9546,-3.9597,-4.0235,-4.2462,-4.4248,-4.5958,-4.7921,-4.9809,-5.0777,-4.9159,-4.9073,-4.8895,-4.7578,-4.7309,-4.7339,-4.7489,-4.8057,-4.8745,-4.9553,-5.1109,-5.2486,-5.3294,-5.4311,-5.5029,-5.5179,-5.5777,-5.6166,-5.6166,-5.6855,0.0,-5.8082,0.0,0.0,-5.8321,-5.883,-5.9159,-5.9308,-5.9817,-6.0236,-6.0505,-6.1553,-6.2181,-6.2301,-6.2839,-6.3079,-6.3079,-6.3079,-6.3139,-6.3288,-6.3797,0.0,0.0,-6.5562,-6.6101,-6.6281,-6.6789,-6.6999,-6.6999,-6.6999,-6.6999,-6.6999,0.0,0.0,0.0,0.0,0.0,0.0,-2.4545,-2.5199,-2.6038,-2.7717,-2.7994,-2.7921,-2.7868,-2.6577,-2.6,0.0,0.0,0.0,0.0,0.0,0.0,0.0,0.0,0.0,0.0,0.0,0.0,-3.0127,-3.1562,0.0,0.0,0.0,0.0,0.0,0.0,-2.8372,-2.7339,-2.8317,0.0,0.0,0.0,0.0,0.0,0.0,0.0,0.0,0.0,-3.5142,-3.7374,-3.4795,-3.5032,-3.64,-3.6531,-3.7965,-3.9597,-3.9094,-3.9295,-4.0491,-4.4221,-4.5342,-4.607,-4.8465,-5.0132,-5.056,-4.7956,-4.8374,-4.8895,-4.7578,-4.7309,-4.7489,-4.8087,-4.8745,-4.9583,-5.084,-5.1708,-5.2665,-5.3922,-5.4221,-5.4521,-5.5119,-5.5777,-5.6166,-5.6166,-5.7304,-5.8052,0.0,0.0,0.0,0.0,-5.9069,-5.9368,-5.9967,-6.0057,-6.0685,-6.1882,-6.2032,-6.2391,-6.2989,-6.3049,-6.3079,-6.3079,-6.3079,-6.3378,-6.3917,-6.3977,0.0,0.0,-6.5951,-6.637,-6.6909,-6.6969,-6.6999,-6.6999,-6.6999,-6.6999,-6.6999,0.0,0.0,0.0,0.0,0.0,0.0,-2.5034,-2.546,-2.6314,-2.8348,-2.8599,-2.8599,-2.8599,-2.772,-2.7018,-2.6739,0.0,0.0,0.0,0.0,0.0,0.0,0.0,0.0,0.0,0.0,-2.9923,-2.9783,-3.0339,0.0,0.0,0.0,0.0,0.0,0.0,-2.7983,-2.6886,-2.8108,0.0,0.0,0.0,0.0,0.0,0.0,0.0,0.0,0.0,0.0,-3.6582,-3.4914,-3.5227,-3.621,-3.5567,-3.7108,-3.92,-3.8919,-3.9019,-3.9803,-4.232,-4.3615,-4.4597,-4.6277,-4.8056,-4.896,-4.7586,-4.7959,-4.8416,-4.7489,-4.7309,-4.7399,-4.7638,-4.7908,-4.8506,-4.9823,-5.0601,-5.1468,-5.2815,-5.3324,-5.3832,-5.4521,-5.5538,-5.6316,-5.6705,0.0,0.0,0.0,0.0,0.0,0.0,-5.9697,-5.9817,-6.0086,-6.0864,-6.1553,-6.2091,-6.248,-6.281,-6.3079,-6.3079,-6.3079,-6.3079,-6.3468,-6.3767,-6.4036,-6.4844,0.0,0.0,-6.643,-6.6759,-6.6999,-6.6999,-6.6999,-6.6999,-6.6999,-6.6999,-6.6999,0.0,0.0,0.0,0.0,0.0,-2.3502,-2.531,-2.5586,-2.6339,-2.8423,-2.8674,-2.8674,-2.8674,-2.8197,-2.7544,-2.6766,-2.6678,0.0,0.0,0.0,0.0,0.0,0.0,0.0,0.0,0.0,-2.9807,-2.9997,-3.0062,-3.0041,0.0,0.0,-2.886,-2.8404,0.0,0.0,0.0,0.0,0.0,0.0,0.0,0.0,0.0,0.0,0.0,0.0,0.0,0.0,0.0,0.0,0.0,-3.566,-3.4756,-3.6148,-3.8254,-3.8561,-3.9019,-3.9777,-4.1282,-4.2502,-4.3647,-4.4547,-4.6514,-4.7942,-4.6832,-4.7478,-4.8087,-4.7429,-4.7309,-4.7369,-4.7549,-4.7758,-4.8267,-4.9374,-5.0092,-5.093,-5.2037,-5.2606,-5.3144,-5.3832,-5.491,-5.5927,-5.6735,-5.8201,0.0,0.0,0.0,0.0,0.0,-6.0266,-6.0475,-6.0685,-6.1613,-6.2181,-6.2391,-6.2839,-6.3079,-6.3079,-6.3079,-6.3079,-6.3109,-6.3707,-6.4126,-6.4366,0.0,0.0,0.0,-6.6789,-6.6999,-6.6999,-6.6999,-6.6999,-6.6999,-6.6999,-6.6999,-6.6999,0.0,0.0,0.0,0.0,0.0,0.0,-2.5259,-2.5586,-2.6189,-2.7896,-2.8122,-2.8122,-2.8122,-2.762,-2.7293,-2.7268,-2.6836,0.0,0.0,0.0,0.0,0.0,0.0,0.0,0.0,0.0,-2.9742,-3.0421,-3.1221,-3.0655,-2.9001,-3.0726,-3.0334,-2.8145,0.0,0.0,0.0,0.0,0.0,0.0,0.0,0.0,-3.4568,0.0,0.0,0.0,0.0,0.0,0.0,0.0,0.0,0.0,0.0,-3.5105,-3.6691,-3.7724,-3.9257,-4.0913,-4.2245,-4.2986,-4.3568,-4.4045,-4.621,-4.7652,-4.5635,-4.68,-4.8087,-4.7429,-4.7309,-4.7489,-4.8147,-4.8805,-4.9464,-5.0122,-5.078,-5.1439,-5.2097,-5.2217,-5.2456,-5.3114,-5.3803,-5.473,-5.6047,-5.7962,0.0,0.0,0.0,0.0,0.0,-6.0745,-6.1403,-6.2061,-6.2091,-6.2421,-6.3049,-6.3079,-6.3079,-6.3079,-6.3079,-6.3079,-6.3109,-6.3707,-6.4366,0.0,0.0,0.0,0.0,-6.6999,-6.6999,-6.6999,-6.6999,-6.6999,-6.6999,-6.6999,-6.6999,-6.6999,0.0,0.0,0.0,0.0,0.0,0.0,-2.433,-2.4506,-2.5109,-2.6766,-2.6992,-2.7268,-2.8021,-2.762,-2.7293,-2.7293,-2.6791,0.0,0.0,0.0,0.0,0.0,0.0,0.0,0.0,-2.9203,-2.9803,-2.9349,-3.0031,-3.0086,-2.9528,-3.0086,-2.9779,-2.8649,-2.8337,-2.7881,0.0,0.0,0.0,0.0,0.0,-3.3675,-3.5574,0.0,0.0,0.0,0.0,0.0,0.0,0.0,0.0,0.0,0.0,0.0,0.0,-3.7066,-3.8383,-4.0394,-4.1977,-4.2556,-4.2982,-4.3949,-4.5552,-4.667,-4.5997,-4.6745,-4.7549,-4.7339,-4.7309,-4.7369,-4.7578,-4.7788,-4.8297,-4.9404,-4.9763,-5.0272,-5.1379,-5.1917,-5.2606,-5.3743,-5.5658,-5.7214,0.0,0.0,0.0,0.0,0.0,0.0,0.0,-6.1433,-6.1882,-6.2091,-6.254,-6.2869,-6.3079,-6.3079,-6.3079,-6.3079,-6.3079,-6.3288,-6.3737,-6.4395,0.0,0.0,0.0,0.0,0.0,-6.6999,-6.6999,-6.6999,-6.6999,-6.6999,-6.6999,-6.6999,-6.6999,-6.6999,0.0,0.0,0.0,0.0,0.0,0.0,-2.3904,-2.4004,-2.4506,-2.5937,-2.6138,-2.6565,-2.767,-2.7293,-2.7042,-2.7268,-2.6791,0.0,0.0,0.0,0.0,0.0,0.0,0.0,-2.8113,-2.8949,-2.9619,-3.0036,-2.9858,-2.9905,-3.0105,-3.0105,-2.9804,-2.9227,-2.8448,-2.7921,0.0,0.0,0.0,0.0,-3.2089,-3.3138,-3.4952,0.0,0.0,0.0,0.0,0.0,0.0,0.0,0.0,0.0,0.0,0.0,0.0,0.0,-3.8044,-4.0026,-4.1086,-4.1812,-4.2565,-4.3314,-4.4453,-4.5436,-4.5436,-4.5991,-4.6621,-4.689,-4.692,-4.701,-4.7249,-4.7698,-4.8327,-4.9134,-4.9673,-5.0361,-5.1439,-5.1947,-5.2695,-5.4042,-5.6286,0.0,0.0,0.0,0.0,0.0,0.0,0.0,0.0,0.0,-6.2211,-6.245,-6.2869,-6.3079,-6.3079,-6.3079,-6.3199,-6.3438,-6.3438,-6.3767,-6.4425,-6.5084,0.0,0.0,0.0,0.0,0.0,-6.6999,-6.6999,-6.6999,-6.6999,-6.6999,-6.6999,-6.6999,-6.6999,-6.6999,0.0,0.0,0.0,0.0,0.0,0.0,0.0,-2.3929,-2.4305,-2.5335,-2.5511,-2.5963,-2.7042,-2.6741,-2.6666,-2.7168,-2.6766,0.0,0.0,0.0,0.0,0.0,0.0,0.0,-2.9302,-2.8533,-2.9323,-3.1753,-3.0471,-3.0105,-3.0608,-3.0608,-3.0306,-2.9754,-2.8624,-2.8097,-2.817,-2.9054,0.0,0.0,-3.233,-3.2894,0.0,0.0,0.0,0.0,0.0,0.0,0.0,0.0,0.0,0.0,0.0,0.0,0.0,0.0,0.0,0.0,0.0,-4.0938,-4.2389,-4.2426,-4.337,-4.4234,-4.4234,-4.4817,0.0,-4.6112,-4.6292,-4.6531,-4.7189,-4.8356,-4.9224,-4.9314,-5.0361,-5.1379,-5.2097,-5.2366,-5.2965,-5.4251,-5.6077,0.0,0.0,0.0,0.0,0.0,0.0,0.0,0.0,0.0,-6.245,-6.3049,-6.3079,-6.3079,-6.3079,-6.3079,-6.3378,-6.4006,-6.4006,-6.4395,-6.5114,-6.5742,0.0,0.0,0.0,0.0,0.0,-6.6999,-6.6999,-6.6999,-6.6999,-6.6999,-6.6999,-6.6999,-6.6999,-6.6999,0.0,0.0,0.0,0.0,0.0,0.0,0.0,0.0,0.0,0.0,-2.4732,-2.5259,-2.5912,-2.6264,-2.6584,0.0,0.0,0.0,0.0,0.0,0.0,0.0,0.0,0.0,-2.7799,-2.8371,-2.9001,-2.9606,-3.0133,-3.0482,-3.0608,-3.0608,-3.0306,-2.9754,-2.8624,-2.8097,-2.8097,-2.8315,0.0,0.0,-3.1175,-3.2397,0.0,0.0,0.0,0.0,-3.3386,-3.324,0.0,0.0,0.0,0.0,0.0,0.0,0.0,0.0,-3.7061,-3.9473,-3.7719,0.0,-4.3195,-4.3712,-4.4428,-4.5065,0.0,-4.5227,-4.5334,-4.5514,-4.5963,-4.6531,-4.7189,-4.7967,-4.8835,-4.9853,-5.0272,-5.087,-5.2037,-5.3952,-5.5538,-5.6316,-5.7723,-5.862,0.0,0.0,0.0,0.0,0.0,0.0,0.0,0.0,-6.2929,-6.3079,-6.3079,-6.3079,-6.3079,-6.3079,-6.3378,-6.4006,-6.4006,-6.4635,-6.5772,-6.5951,0.0,0.0,0.0,0.0,-6.6999,-6.6999,-6.6999,-6.6999,-6.6999,-6.6999,-6.6999,-6.6999,-6.6999,-6.6999,0.0,0.0,0.0,0.0,0.0,0.0,0.0,0.0,0.0,0.0,-2.4481,-2.4933,-2.5209,-2.5963,-2.6433,0.0,0.0,0.0,0.0,0.0,0.0,0.0,0.0,-2.7017,-2.7268,-2.7871,-2.8549,-2.9327,-2.993,-3.0357,-3.0608,-3.0608,-3.0181,-2.9352,-2.8499,-2.8097,-2.8122,-2.8373,-2.9603,-3.1336,-3.0834,0.0,0.0,0.0,0.0,0.0,-3.3766,-3.3784,0.0,-3.3784,-3.3784,-3.3725,0.0,0.0,0.0,0.0,-3.6491,-3.8436,-3.7479,-3.9985,-4.2884,-4.2725,-4.3545,-4.4407,-4.4407,-4.4407,-4.4496,-4.4796,-4.5394,-4.6052,-4.6741,-4.8117,-4.9314,-4.9733,-5.081,-5.1947,-5.2965,-5.461,-5.6077,-5.6974,-5.8022,0.0,0.0,0.0,0.0,0.0,0.0,0.0,0.0,0.0,-6.3079,-6.3079,-6.3079,-6.3079,-6.3079,-6.3079,-6.3558,-6.4485,-6.4485,-6.5173,-6.646,-6.646,-6.667,0.0,0.0,0.0,-6.6999,-6.6999,-6.6999,-6.6999,-6.6999,-6.6999,-6.6999,-6.6999,-6.6999,-6.6999,0.0,0.0,0.0,0.0,0.0,0.0,0.0,0.0,0.0,0.0,0.0,0.0,0.0,0.0,0.0,0.0,0.0,0.0,0.0,0.0,0.0,0.0,-2.6533,-2.6716,-2.7268,-2.7293,-2.8021,-2.9528,-2.9804,-3.0156,-3.0608,-3.0683,-3.0055,-2.8775,-2.8323,-2.8097,-2.8147,-2.8699,-2.9829,-3.1235,-3.0708,0.0,0.0,0.0,0.0,0.0,0.0,0.0,0.0,-3.4485,-3.4594,-3.4511,-3.3471,0.0,0.0,0.0,0.0,0.0,-3.751,-3.9905,-4.1962,-4.0902,-4.1829,-4.3061,-4.313,-4.3269,-4.3479,-4.4047,-4.4766,-4.5544,-4.6322,-4.8446,-4.9972,-4.9613,-5.1588,-5.3443,-5.4251,-5.4999,-5.5927,-5.7124,-5.7842,0.0,0.0,0.0,0.0,0.0,0.0,0.0,0.0,0.0,0.0,-6.3079,-6.3079,-6.3079,-6.3079,-6.3169,-6.3827,-6.5024,-6.5114,-6.5802,-6.6999,-6.6999,-6.6999,0.0,0.0,0.0,-6.6999,-6.6999,-6.6999,-6.6999,-6.6999,-6.6999,-6.6999,-6.6999,-6.6999,-6.6999,0.0,0.0,0.0,0.0,0.0,0.0,0.0,0.0,0.0,0.0,0.0,0.0,0.0,0.0,0.0,0.0,0.0,0.0,0.0,0.0,0.0,-2.6533,-2.6533,-2.6716,-2.7268,-2.7293,-2.7645,-2.8373,-2.9779,-3.0532,-3.0633,-3.106,-3.0181,-2.8222,-2.8147,-2.8097,-2.8147,-2.8699,-2.9628,-3.0683,-3.0131,0.0,0.0,0.0,0.0,0.0,0.0,0.0,0.0,-3.3487,-3.3953,-3.4511,-3.3471,0.0,0.0,0.0,0.0,0.0,-3.5972,-3.8644,-4.1184,-4.0198,-4.0914,-4.1966,-4.2455,-4.294,-4.3359,-4.3449,-4.4436,-4.5663,-4.692,-4.8386,-4.9733,-5.075,-5.2187,-5.3623,-5.485,-5.6047,-5.7094,-5.7872,0.0,0.0,0.0,0.0,0.0,0.0,0.0,0.0,0.0,0.0,0.0,-6.3079,-6.3079,-6.3079,-6.3079,-6.3588,-6.4246,-6.5054,-6.5592,-6.6251,-6.6999,-6.6999,-6.6999,0.0,0.0,-6.6999,-6.6999,-6.6999,-6.6999,-6.6999,-6.6999,-6.6999,-6.6999,-6.6999,-6.6999,-6.6999,0.0,0.0,0.0,0.0,0.0,0.0,0.0,0.0,0.0,0.0,0.0,0.0,0.0,0.0,0.0,0.0,0.0,0.0,0.0,0.0,-2.6659,-2.6892,-2.6892,-2.7017,-2.7268,-2.7871,-2.8448,-2.9026,-3.0382,-3.1035,-3.1009,-3.0357,-2.9352,-2.8097,-2.8097,-2.8097,-2.8172,-2.9026,-2.988,-3.0557,0.0,0.0,0.0,0.0,0.0,0.0,0.0,0.0,0.0,0.0,-3.3558,-3.396,-3.2574,0.0,0.0,0.0,0.0,0.0,-3.5927,-3.74,-3.8921,-3.842,-4.0451,-4.2575,-4.2735,-4.3603,-4.4235,-4.3828,-4.5158,-4.636,-4.6197,-4.8445,-5.099,-5.3025,-5.3264,-5.3773,-5.5478,-5.5927,-5.6585,0.0,0.0,0.0,0.0,0.0,0.0,0.0,0.0,0.0,0.0,0.0,0.0,0.0,-6.3079,-6.3228,-6.3558,-6.4216,-6.4725,-6.5054,-6.5682,-6.634,-6.6999,-6.6999,-6.6999,-6.6999,0.0,-6.6999,-6.6999,-6.6999,-6.6999,-6.6999,-6.6999,-6.6999,-6.6999,-6.6999,-6.6999,-6.6999,0.0,0.0,0.0,0.0,0.0,0.0,0.0,0.0,0.0,0.0,0.0,0.0,0.0,0.0,0.0,0.0,0.0,0.0,0.0,-2.6533,-2.6716,-2.7268,-2.7293,-2.7469,-2.7871,-2.8574,-2.9277,-2.998,-3.0934,-3.1386,-3.1361,-2.998,-2.895,-2.8298,-2.8298,-2.8298,-2.8373,-2.9377,-3.003,-3.0382,0.0,0.0,0.0,0.0,0.0,0.0,0.0,0.0,0.0,0.0,0.0,0.0,0.0,0.0,0.0,-3.5425,-3.5852,-3.6239,-3.6377,-3.6742,-3.7175,-3.7299,-3.9478,-4.1867,-4.2739,-4.3807,-4.4579,-4.4461,-4.5814,-4.6904,-4.6247,-4.906,-5.2157,-5.4371,-5.3982,-5.4102,-5.6107,-5.5957,0.0,0.0,0.0,0.0,0.0,0.0,0.0,0.0,0.0,0.0,0.0,0.0,0.0,-6.3079,-6.3079,-6.3378,-6.3977,-6.4695,-6.5114,-6.5263,-6.5922,-6.649,-6.6999,-6.6999,-6.6999,-6.6999,-6.6999,-6.6999,-6.6999,-6.6999,-6.6999,-6.6999,-6.6999,-6.6999,-6.6999,-6.6999,-6.6999,-6.6999,0.0,0.0,0.0,0.0,0.0,0.0,0.0,0.0,0.0,0.0,0.0,0.0,0.0,0.0,0.0,0.0,0.0,0.0,0.0,-2.6533,-2.6716,-2.7268,-2.7293,-2.8021,-2.9578,-2.9176,-2.9453,-3.0557,-3.111,-3.1386,-3.1386,-3.0783,-2.9905,-2.8875,-2.8875,-2.8875,-2.89,-2.9528,-2.9804,-2.9854,-2.9804,0.0,0.0,0.0,0.0,0.0,0.0,0.0,0.0,0.0,0.0,0.0,0.0,0.0,-3.5443,-3.5991,-3.6156,-3.6322,-3.693,-3.7115,-3.72,-3.7768,-3.7421,-3.7891,-4.1458,-4.2603,-4.3315,-4.4838,-4.57,-4.6824,-4.8715,-5.075,-5.2396,-5.3204,-5.3773,-5.482,-5.6765,0.0,0.0,0.0,0.0,0.0,0.0,0.0,0.0,0.0,0.0,0.0,0.0,0.0,0.0,-6.3079,-6.3079,-6.3378,-6.3977,-6.4695,-6.5323,-6.5951,-6.661,-6.6939,-6.6999,-6.6999,-6.6999,-6.6999,-6.6999,-6.6999,-6.6999,-6.6999,-6.6999,-6.6999,-6.6999,-6.6999,-6.6999,-6.6999,-6.6999,-6.6999,0.0,0.0,0.0,0.0,0.0,0.0,0.0,0.0,0.0,0.0,0.0,0.0,0.0,0.0,0.0,0.0,0.0,0.0,0.0,-2.6264,-2.6716,-2.7268,-2.762,-2.8247,-2.9227,-2.9729,-3.0507,-3.1612,-3.1813,-3.1738,-3.1361,-3.0131,-2.9151,-2.8423,-2.8423,-2.8423,-2.8473,-2.9402,-2.9804,-2.9804,-2.9804,-2.9804,0.0,0.0,0.0,0.0,0.0,0.0,0.0,0.0,-3.1655,-3.2381,-3.1499,-3.2463,-3.4062,-3.4975,-3.4967,-3.5008,-3.6246,-3.6814,-3.6959,-3.6585,-3.6402,-3.7438,-4.124,-4.3163,-4.4272,-4.4447,-4.6041,-4.8101,-5.0147,-5.0427,-5.102,-5.3387,-5.3609,-5.4348,0.0,0.0,0.0,0.0,0.0,0.0,0.0,0.0,0.0,0.0,0.0,0.0,0.0,0.0,0.0,-6.3079,-6.3079,-6.3588,-6.4635,-6.4904,-6.5562,-6.661,-6.6879,-6.6999,-6.6999,-6.6999,-6.6999,-6.6999,-6.6999,-6.6999,-6.6999,-6.6999,-6.6999,-6.6999,-6.6999,-6.6999,-6.6999,-6.6999,-6.6999,-6.6999,0.0,0.0,0.0,0.0,0.0,0.0,0.0,0.0,0.0,0.0,0.0,0.0,0.0,0.0,0.0,0.0,0.0,0.0,-2.5837,-2.6063,-2.6515,-2.7243,-2.7645,-2.8273,-2.9176,-3.0131,-3.106,-3.1964,-3.1964,-3.1587,-3.0859,-2.9553,-2.8725,-2.8373,-2.8373,-2.8473,-2.8699,-2.9453,-2.9804,-2.9804,-2.9804,-2.9804,0.0,0.0,0.0,0.0,0.0,0.0,0.0,0.0,-3.0955,-3.1698,-3.0753,-3.1731,-3.3288,-3.3935,-3.4337,-3.4841,-3.5954,-3.6439,-3.6612,-3.6811,-3.6871,-3.78,-4.1328,-4.3264,-4.4436,-4.4387,-4.6283,-4.8309,-4.9853,-4.9909,-5.054,-5.3112,-5.3215,0.0,0.0,0.0,0.0,0.0,0.0,0.0,0.0,0.0,0.0,0.0,0.0,0.0,0.0,0.0,0.0,0.0,-6.3079,-6.3707,-6.5024,-6.5024,-6.5682,-6.6999,-6.6999,-6.6999,-6.6999,-6.6999,-6.6999,-6.6999,-6.6999,-6.6999,-6.6999,-6.6999,-6.6999,-6.6999,-6.6999,-6.6999,-6.6999,-6.6999,-6.6999,-6.6999,0.0,0.0,0.0,0.0,0.0,0.0,0.0,0.0,0.0,0.0,0.0,0.0,0.0,0.0,0.0,0.0,0.0,0.0,-2.6433,-2.5912,-2.6088,-2.7218,-2.7268,-2.8047,-2.9729,-3.0306,-3.0859,-3.1386,-3.1386,-3.0834,-2.9779,-2.9176,-2.8925,-2.8925,-2.8925,-2.9252,-2.9779,-2.9779,-2.9779,-2.9779,-2.9779,-2.9779,-2.9804,0.0,0.0,0.0,0.0,0.0,0.0,0.0,-3.1167,-3.1272,-3.1777,-3.2691,-3.3468,-3.3138,-3.4571,-3.6279,-3.6279,-3.5891,-3.621,-3.8834,-3.8792,-3.8833,-4.1529,-4.2517,-4.3381,-4.4758,-4.6083,-4.7288,-4.7791,-4.9653,-5.1264,-5.1926,0.0,0.0,0.0,0.0,0.0,0.0,0.0,0.0,0.0,0.0,0.0,0.0,0.0,0.0,0.0,0.0,0.0,0.0,-6.3079,-6.3707,-6.5024,-6.5024,-6.5682,-6.6999,-6.6999,-6.6999,-6.6999,-6.6999,-6.6999,-6.6999,-6.6999,-6.6999,-6.6999,-6.6999,-6.6999,-6.6999,-6.6999,-6.6999,-6.6999,-6.6999,-6.6999,-6.6999,0.0,0.0,0.0,0.0,0.0,0.0,0.0,0.0,0.0,0.0,0.0,0.0,0.0,0.0,0.0,0.0,0.0,0.0,-2.5285,-2.5159,-2.536,-2.6063,-2.649,-2.6942,-2.7444,-2.8373,-2.9679,-3.1386,-3.1009,-3.0281,-2.9176,-2.8624,-2.8348,-2.8373,-2.875,-2.88,-2.8624,-2.9026,-2.9176,-2.9176,-2.9176,-2.9428,-2.9804,0.0,0.0,0.0,0.0,0.0,0.0,0.0,0.0,0.0,-3.0394,-3.0958,-3.1578,-3.2275,-3.293,-3.3597,-3.4297,-3.5903,-3.7207,-3.6785,-3.8532,-4.0465,-4.0897,-4.1821,-4.2911,-4.4203,-4.6215,-4.8097,-4.9348,-5.0771,-5.2194,-5.3402,0.0,0.0,0.0,0.0,0.0,0.0,0.0,0.0,0.0,0.0,0.0,0.0,0.0,0.0,0.0,0.0,0.0,0.0,-6.3079,-6.3707,-6.5024,-6.5024,-6.5682,-6.6999,-6.6999,-6.6999,-6.6999,-6.6999,-6.6999,-6.6999,-6.6999,-6.6999,-6.6999,-6.6999,-6.6999,-6.6999,-6.6999,-6.6999,-6.6999,-6.6999,-6.6999,-6.6999,0.0,0.0,0.0,0.0,0.0,0.0,0.0,0.0,0.0,0.0,-2.6533,-2.6533,0.0,0.0,0.0,0.0,0.0,0.0,-2.5134,-2.5134,-2.5385,-2.5912,-2.649,-2.6992,-2.7419,-2.8323,-2.9202,-3.008,-2.9779,-2.9277,-2.8599,-2.8273,-2.8222,-2.8448,-2.9026,-2.895,-2.8448,-2.8775,-2.8925,-2.8925,-2.8925,-2.9277,-2.9804,0.0,0.0,0.0,0.0,0.0,0.0,0.0,0.0,0.0,-2.9934,-3.0291,-3.0983,-3.1966,-3.2969,-3.4174,-3.5517,-3.7432,-3.8919,-3.8592,-3.9772,-4.1134,-4.1846,-4.2342,-4.3363,-4.6016,-4.6461,-4.7323,-5.0366,-5.0634,0.0,0.0,0.0,0.0,0.0,0.0,0.0,0.0,0.0,0.0,0.0,0.0,0.0,0.0,0.0,0.0,0.0,0.0,0.0,0.0,-6.3079,-6.3707,-6.5024,-6.5024,-6.5682,-6.6999,-6.6999,-6.6999,-6.6999,-6.6999,-6.6999,-6.6999,-6.6999,-6.6999,-6.6999,-6.6999,-6.6999,-6.6999,-6.6999,-6.6999,-6.6999,-6.6999,-6.6999,-6.6999,0.0,0.0,0.0,0.0,0.0,0.0,0.0,0.0,0.0,-2.6382,-2.6508,-2.6533,0.0,0.0,0.0,-2.6533,-2.5937,-2.5586,-2.5586,-2.5561,-2.5812,-2.6508,-2.7042,-2.7821,-2.8825,-2.9327,-2.9051,-2.8021,-2.8072,-2.8072,-2.8021,-2.8072,-2.8398,-2.895,-2.9478,-2.9402,-2.885,-2.88,-2.8775,-2.8775,-2.8825,-2.9176,-2.9654,-2.9704,0.0,0.0,0.0,0.0,0.0,0.0,0.0,0.0,-3.0215,-3.0598,-3.1491,-3.2021,-3.4199,-3.6723,-3.8164,-3.9496,-4.0877,-4.2384,-4.1731,-4.1402,-4.373,-4.3764,-4.4474,-4.9003,-4.6974,-4.6009,-5.1051,-4.9993,0.0,0.0,0.0,0.0,0.0,0.0,0.0,0.0,0.0,0.0,0.0,0.0,0.0,0.0,0.0,0.0,0.0,0.0,0.0,0.0,-6.3139,-6.3767,-6.5024,-6.5084,-6.5742,0.0,-6.6999,-6.6999,-6.6999,-6.6999,-6.6999,-6.6999,-6.6999,-6.6999,-6.6999,-6.6999,-6.6999,-6.6999,-6.6999,-6.6999,-6.6999,-6.6999,-6.6999,-6.6999,0.0,0.0,0.0,0.0,0.0,0.0,0.0,0.0,-2.5636,-2.5762,-2.6189,-2.6533,-2.6533,-2.6533,0.0,-2.6533,-2.5937,-2.5586,-2.5586,-2.5209,-2.5435,-2.6483,-2.7394,-2.8047,-2.8273,-2.7971,-2.7695,-2.7469,-2.7896,-2.7871,-2.7469,-2.7896,-2.8398,-2.8925,-2.9051,-2.88,-2.8247,-2.7821,-2.7645,-2.767,-2.8097,-2.8348,-2.8524,-2.895,-2.9126,0.0,0.0,0.0,0.0,0.0,0.0,0.0,-3.137,-3.1939,-3.2435,-3.2123,-3.3996,-3.607,-3.5688,-3.8015,-4.0601,-4.0953,-4.1756,-4.2924,-4.449,-4.4647,-4.5182,-4.7418,-4.8817,-5.0001,-5.1736,0.0,0.0,0.0,0.0,0.0,0.0,0.0,0.0,0.0,0.0,0.0,0.0,0.0,0.0,0.0,0.0,0.0,0.0,0.0,0.0,-6.3079,-6.3558,-6.4186,-6.5024,-6.5533,-6.6191,0.0,-6.6999,-6.6999,-6.6999,-6.6999,-6.6999,-6.6999,-6.6999,-6.6999,-6.6999,-6.6999,-6.6999,-6.6999,-6.6999,-6.6999,-6.6999,-6.6999,-6.6999,-6.6999,0.0,0.0,0.0,0.0,0.0,0.0,0.0,0.0,-2.5586,-2.5586,-2.6088,-2.6433,-2.6088,-2.6038,0.0,0.0,-2.5611,-2.5485,-2.5234,-2.546,-2.6088,-2.7193,-2.7795,-2.8097,-2.8097,-2.757,-2.7143,-2.6892,-2.6892,-2.7042,-2.7293,-2.757,-2.7996,-2.8524,-2.8524,-2.8222,-2.7695,-2.7394,-2.7293,-2.7293,-2.7595,-2.7871,-2.8147,-2.8423,-2.8524,-2.8574,-2.8825,0.0,0.0,0.0,0.0,0.0,0.0,0.0,-3.2618,-3.3146,-3.4673,-3.641,-3.7552,-3.9144,-4.0701,-4.1505,-4.2856,-4.4318,-4.5661,-4.5449,-4.5928,-4.9437,-5.0064,-5.036,0.0,0.0,0.0,0.0,0.0,0.0,0.0,0.0,0.0,0.0,0.0,0.0,0.0,0.0,0.0,0.0,0.0,0.0,0.0,-6.2672,-6.3079,-6.3079,-6.3677,-6.4336,-6.5024,-6.5682,-6.634,-6.6999,-6.6999,-6.6999,-6.6999,-6.6999,-6.6999,-6.6999,-6.6999,-6.6999,-6.6999,-6.6999,-6.6999,-6.6999,-6.6999,-6.6999,-6.6999,-6.6999,-6.6999,-6.6999,0.0,0.0,0.0,0.0,0.0,0.0,0.0,0.0,0.0,-2.546,-2.6038,-2.6239,-2.5661,-2.5586,-2.5385,0.0,0.0,0.0,-2.4858,-2.5862,-2.6917,-2.7921,-2.8047,-2.8097,-2.8097,-2.7469,-2.6917,-2.6533,-2.5787,-2.5988,-2.6992,-2.7092,-2.7494,-2.8097,-2.7996,-2.772,-2.7268,-2.7193,-2.7143,-2.7143,-2.7243,-2.7494,-2.7821,-2.7921,-2.7971,-2.8021,-2.8473,-2.8699,-2.89,-2.9553,0.0,0.0,0.0,0.0,-3.2917,-3.4073,-3.5398,-3.7156,-3.9651,-4.0389,-4.0902,-4.2559,-4.3797,-4.5048,-4.6682,-4.5978,-4.6407,-5.1408,-5.0623,0.0,0.0,0.0,0.0,0.0,0.0,0.0,0.0,0.0,0.0,0.0,0.0,0.0,0.0,0.0,0.0,0.0,0.0,0.0,0.0,-6.2292,-6.3079,-6.3079,-6.3797,-6.4455,-6.5024,-6.5802,-6.646,-6.6999,-6.6999,-6.6999,-6.6999,-6.6999,-6.6999,-6.6999,-6.6999,-6.6999,-6.6999,-6.6999,-6.6999,-6.6999,-6.6999,-6.6999,-6.6999,-6.6999,-6.6999,-6.6999,0.0,0.0,0.0,0.0,0.0,0.0,0.0,0.0,0.0,0.0,-2.5812,-2.6239,-2.5661,-2.5586,-2.5385,-2.4858,-2.5285,-2.5385,-2.4858,0.0,0.0,-2.7369,-2.7846,-2.8097,-2.8097,-2.7092,-2.6609,-2.6533,-2.5435,-2.5234,-2.5837,-2.6339,-2.7118,-2.8072,-2.7595,-2.7344,-2.7243,-2.6766,-2.6634,-2.6684,-2.7092,-2.7042,-2.6741,-2.7218,-2.7394,-2.7394,-2.7469,-2.7821,-2.8373,-2.9428,-3.0343,0.0,0.0,0.0,-3.4353,-3.3376,-3.5435,-3.7756,-3.6573,-3.834,-4.0902,-4.2559,-4.3073,-4.3907,-4.6474,-4.5978,-4.5795,0.0,0.0,0.0,0.0,0.0,0.0,0.0,0.0,0.0,0.0,0.0,0.0,0.0,0.0,0.0,0.0,0.0,0.0,0.0,0.0,0.0,0.0,-6.2933,-6.3079,-6.3079,-6.4246,-6.4934,-6.5024,-6.6251,-6.6909,-6.6999,-6.6999,-6.6999,-6.6999,-6.6999,-6.6999,-6.6999,-6.6999,-6.6999,-6.6999,-6.6999,-6.6999,-6.6999,-6.6999,-6.6999,-6.6999,-6.6999,-6.6999,-6.6999,0.0,0.0,0.0,0.0,0.0,0.0,0.0,0.0,0.0,0.0,0.0,-2.6239,-2.5661,-2.5586,-2.5259,-2.4431,-2.4858,-2.5059,-2.4833,-2.5536,-2.6239,-2.6791,-2.7042,-2.7193,-2.7193,-2.6389,-2.5837,-2.5536,-2.4757,-2.4782,-2.5586,-2.5561,-2.6138,-2.7168,-2.6942,-2.6816,-2.6816,-2.6634,-2.6533,-2.6559,-2.6785,-2.7243,-2.777,-2.7092,-2.7394,-2.8122,-2.7494,-2.7444,-2.7821,-2.8925,-2.958,-3.0033,-3.0599,0.0,0.0,0.0,-3.5168,-3.6844,-3.7586,-3.9514,-4.1696,-4.278,-4.3602,-4.4643,-4.6682,-4.5978,-4.6195,-5.0366,0.0,0.0,0.0,0.0,0.0,0.0,0.0,0.0,0.0,0.0,0.0,0.0,0.0,0.0,0.0,0.0,0.0,0.0,0.0,0.0,-6.3079,-6.3079,-6.3079,-6.3079,-6.4366,-6.5024,-6.5024,-6.634,-6.6999,-6.6999,-6.6999,-6.6999,-6.6999,-6.6999,-6.6999,-6.6999,-6.6999,-6.6999,-6.6999,-6.6999,-6.6999,-6.6999,-6.6999,-6.6999,-6.6999,-6.6999,-6.6999,-6.6999,0.0,0.0,0.0,0.0,0.0,0.0,0.0,0.0,0.0,0.0,0.0,-2.6088,-2.5636,0.0,0.0,0.0,-2.4506,-2.4833,-2.4833,-2.5059,-2.546,-2.6013,-2.6163,-2.6189,-2.6038,-2.5611,-2.5134,-2.4607,-2.4054,-2.433,-2.5385,-2.5008,-2.541,-2.6533,-2.6533,-2.6609,-2.664,-2.6364,-2.6483,-2.676,-2.6816,-2.7695,-2.885,-2.8021,-2.8473,-2.9377,-2.8147,-2.7695,-2.7821,-2.8499,-2.8848,-2.9173,-2.9757,-3.1029,0.0,0.0,0.0,-3.5946,-3.8639,-4.0149,-4.1279,-4.2182,-4.3176,-4.4492,-4.6211,-4.5767,-4.6301,0.0,0.0,0.0,0.0,0.0,0.0,0.0,0.0,0.0,0.0,0.0,0.0,0.0,0.0,0.0,0.0,0.0,0.0,0.0,0.0,0.0,-6.3079,-6.3079,-6.3079,-6.3079,-6.4366,-6.5024,-6.5024,-6.634,-6.6999,-6.6999,-6.6999,-6.6999,-6.6999,-6.6999,-6.6999,-6.6999,-6.6999,-6.6999,-6.6999,-6.6999,-6.6999,-6.6999,-6.6999,-6.6999,-6.6999,-6.6999,-6.6999,-6.6999,0.0,0.0,0.0,0.0,0.0,0.0,0.0,0.0,0.0,0.0,0.0,-2.5636,-2.5586,-2.5586,-2.5159,-2.4079,-2.4506,-2.4833,-2.4833,-2.4356,-2.433,-2.4883,-2.5385,0.0,-2.4908,-2.4883,-2.4582,-2.4029,-2.3452,-2.3753,-2.4858,-2.4833,-2.541,-2.6533,-2.6533,-2.6741,-2.7168,-2.6088,-2.6264,-2.7293,-2.7821,-2.8373,-2.9076,-3.0557,-3.1185,-3.106,-2.9428,-2.885,-2.8775,-2.8298,-2.8749,-2.9539,-3.0046,-3.1253,-3.2577,0.0,0.0,0.0,-3.8169,-3.847,-3.8616,-4.0259,-4.1028,-4.2087,-4.4597,-4.5048,-4.5795,0.0,0.0,0.0,0.0,0.0,0.0,0.0,0.0,0.0,0.0,0.0,0.0,0.0,0.0,0.0,0.0,0.0,0.0,0.0,0.0,0.0,-6.3079,-6.3079,-6.3079,-6.3079,-6.4366,-6.5024,-6.5024,-6.634,-6.6999,-6.6999,-6.6999,-6.6999,-6.6999,-6.6999,-6.6999,-6.6999,-6.6999,-6.6999,-6.6999,-6.6999,-6.6999,-6.6999,-6.6999,-6.6999,-6.6999,-6.6999,-6.6999,-6.6999,0.0,0.0,0.0,0.0,0.0,0.0,0.0,0.0,0.0,0.0,0.0,0.0,0.0,-2.5812,-2.531,-2.4582,-2.4029,-2.3577,-2.3226,-2.3351,-2.3527,-2.3666,-2.4607,-2.5008,-2.4833,-2.4833,-2.4556,-2.4004,-2.3427,-2.3527,-2.4305,-2.4657,-2.5209,-2.5912,-2.5912,-2.6214,-2.6691,-2.5937,-2.6038,-2.6866,-2.8122,-2.9377,-3.0583,-3.116,-3.229,-3.3319,-3.1637,-3.0608,-3.003,-3.0156,-2.9732,-2.9142,-2.9272,-3.0189,-3.1469,-3.355,-3.5612,-3.7664,-3.93,-3.962,-3.9853,-4.1298,-4.2366,-4.3472,-4.4759,-4.5723,-4.7142,0.0,0.0,0.0,0.0,0.0,0.0,0.0,0.0,0.0,0.0,0.0,0.0,0.0,0.0,0.0,0.0,0.0,0.0,0.0,0.0,0.0,-6.3079,-6.3079,-6.3079,-6.3079,-6.4366,-6.5443,-6.6281,-6.6759,-6.6999,-6.6999,-6.6999,-6.6999,-6.6999,-6.6999,-6.6999,-6.6999,-6.6999,-6.6999,-6.6999,-6.6999,-6.6999,-6.6999,-6.6999,-6.6999,-6.6999,-6.6999,-6.6999,-6.6999,0.0,0.0,0.0,0.0,0.0,0.0,0.0,0.0,-2.5536,-2.5385,0.0,0.0,0.0,0.0,-2.5586,-2.4883,-2.3954,-2.31,-2.2372,-2.2824,-2.299,-2.2874,-2.413,-2.4732,-2.4556,-2.4883,-2.4732,-2.4004,-2.3602,-2.3627,-2.4004,-2.4381,-2.4933,-2.5586,-2.5209,-2.5686,-2.6691,-2.5912,-2.6038,-2.6892,-2.875,-3.003,-3.0984,-3.229,-3.337,-3.4048,-3.3119,-3.2215,-3.1512,-3.2064,-3.1512,-3.0457,-3.0088,-3.0142,-3.0956,-3.3858,-3.6061,-3.7811,-3.8851,-3.9447,-3.9978,-4.1128,-4.2011,-4.2931,-4.4149,-4.5669,-4.7516,0.0,0.0,0.0,0.0,0.0,0.0,0.0,0.0,0.0,0.0,0.0,0.0,0.0,0.0,0.0,0.0,0.0,0.0,0.0,0.0,0.0,-6.3079,-6.3079,-6.3288,-6.3707,-6.4575,-6.5652,-6.6969,-6.6999,-6.6999,-6.6999,-6.6999,-6.6999,-6.6999,-6.6999,-6.6999,-6.6999,-6.6999,-6.6999,-6.6999,-6.6999,-6.6999,-6.6999,-6.6999,-6.6999,-6.6999,-6.6999,-6.6999,-6.6999,0.0,0.0,0.0,0.0,0.0,0.0,-2.5711,-2.5636,-2.5862,-2.6458,0.0,0.0,0.0,0.0,0.0,-2.4908,-2.433,-2.3527,-2.2397,-2.2824,-2.2874,-2.2347,-2.3904,-2.4556,-2.4029,-2.5059,-2.5084,-2.4029,-2.4004,-2.3979,-2.3979,-2.3979,-2.4556,-2.5511,-2.4481,-2.5209,-2.7143,-2.6013,-2.6214,-2.7469,-2.9679,-3.0281,-3.0306,-3.4073,-3.4575,-3.3319,-3.3847,-3.3671,-3.3269,-3.3822,-3.3922,-3.3619,-3.2306,-3.1433,-3.1277,-3.3368,-3.4975,-3.6201,0.0,0.0,0.0,-3.9589,-3.9628,-4.0232,-4.251,-4.4621,-4.6671,0.0,0.0,0.0,0.0,0.0,0.0,0.0,0.0,0.0,0.0,0.0,0.0,0.0,0.0,0.0,0.0,0.0,0.0,0.0,0.0,-6.3079,-6.3079,-6.3079,-6.3677,-6.4994,-6.5024,-6.5652,-6.6969,-6.6999,-6.6999,-6.6999,-6.6999,-6.6999,-6.6999,-6.6999,-6.6999,-6.6999,-6.6999,-6.6999,-6.6999,-6.6999,-6.6999,-6.6999,-6.6999,-6.6999,-6.6999,-6.6999,-6.6999,-6.6999,0.0,0.0,0.0,0.0,0.0,-2.7318,-2.6364,-2.6892,-2.7193,0.0,0.0,0.0,-2.7344,-2.6791,-2.6013,-2.4908,-2.4682,-2.3954,-2.2422,-2.2447,-2.2472,-2.2322,-2.3527,-2.433,-2.4582,-2.5259,-2.5259,-2.4582,-2.4205,-2.3778,-2.3376,-2.3803,-2.4155,-2.4456,-2.4556,-2.4933,-2.546,-2.4732,-2.5536,-2.7369,-2.8398,-3.0156,-3.2365,-3.4248,-3.5906,-3.7287,-3.7437,-3.6885,-3.6081,-3.6232,-3.4675,-3.2516,-3.1883,-3.1568,-3.201,-3.4376,-3.6022,-3.7178,-3.7831,0.0,0.0,0.0,0.0,0.0,-4.2345,0.0,0.0,0.0,0.0,0.0,0.0,0.0,0.0,0.0,0.0,0.0,0.0,0.0,0.0,0.0,0.0,0.0,0.0,0.0,0.0,0.0,-6.3079,-6.3079,-6.3079,-6.3079,-6.3677,-6.4994,-6.5024,-6.5652,-6.6969,-6.6999,-6.6999,-6.6999,-6.6999,-6.6999,-6.6999,-6.6999,-6.6999,-6.6999,-6.6999,-6.6999,-6.6999,-6.6999,-6.6999,-6.6999,-6.6999,-6.6999,-6.6999,-6.6999,-6.6999,-6.6999,0.0,0.0,-2.8172,-2.8398,-2.8448,-2.8323,-2.7921,-2.8197,-2.8398,0.0,0.0,0.0,-2.8047,-2.7469,-2.6716,-2.5611,-2.5285,-2.4431,-2.2774,-2.2648,-2.2548,-2.2322,-2.3627,-2.4481,-2.4808,-2.5561,-2.5686,-2.5134,-2.4833,-2.4381,-2.3791,-2.3954,-2.413,-2.433,-2.418,-2.4506,-2.5084,-2.4054,-2.4782,-2.6766,-2.895,-3.0708,-3.2315,-3.4801,-3.6332,-3.7262,-3.8191,-3.7638,-3.6684,-3.7839,-3.5855,-3.3005,-3.3503,-3.2461,-3.1487,-3.4266,-3.579,-3.6778,-3.7734,-3.8691,-3.9589,-4.0247,0.0,0.0,-4.2049,-4.2877,0.0,0.0,0.0,0.0,0.0,0.0,0.0,0.0,0.0,0.0,0.0,0.0,0.0,0.0,0.0,0.0,0.0,0.0,0.0,0.0,-6.2929,-6.3079,-6.3079,-6.3079,-6.3677,-6.4994,-6.5024,-6.5652,-6.6969,-6.6999,-6.6999,-6.6999,-6.6999,-6.6999,-6.6999,-6.6999,-6.6999,-6.6999,-6.6999,-6.6999,-6.6999,-6.6999,-6.6999,-6.6999,-6.6999,-6.6999,-6.6999,-6.6999,-6.6999,-6.6999,0.0,0.0,-2.8473,-2.9026,-2.9126,-2.9277,-2.9804,-2.9503,-2.9553,0.0,-2.9679,-2.9076,-2.9176,-2.8599,-2.7745,-2.664,-2.6088,-2.5059,-2.3351,-2.3165,-2.2975,-2.2422,-2.3904,-2.4732,-2.4732,-2.5812,-2.6088,-2.5511,-2.5561,-2.531,-2.4732,-2.423,-2.423,-2.4582,-2.3516,-2.3954,-2.5234,-2.3879,-2.4305,-2.6214,-3.0156,-3.1436,-3.1436,-3.5529,-3.6332,-3.5529,-3.7487,-3.7262,-3.6358,-3.8718,-3.7211,-3.4629,-3.6049,-3.3831,-3.1216,-3.3696,-3.5123,-3.6031,-3.7075,-3.8381,-3.9559,-4.0157,-3.9918,0.0,-4.1574,-4.2406,0.0,0.0,0.0,0.0,0.0,0.0,0.0,0.0,0.0,0.0,0.0,0.0,0.0,0.0,0.0,0.0,0.0,0.0,-6.1373,-6.2061,-6.272,-6.3079,-6.3079,-6.3079,-6.3677,-6.4994,-6.5024,-6.5652,-6.6969,-6.6999,-6.6999,-6.6999,-6.6999,-6.6999,-6.6999,-6.6999,-6.6999,-6.6999,-6.6999,-6.6999,-6.6999,-6.6999,-6.6999,-6.6999,-6.6999,-6.6999,-6.6999,-6.6999,-6.6999,-6.6999,-2.8574,-2.9076,-2.9628,-3.0181,-3.0281,-3.0331,-3.0432,-3.0708,-3.0834,-3.0633,-3.003,-2.9955,-3.0809,-2.9628,-2.8323,-2.7218,-2.7017,-2.6063,-2.3979,-2.3828,-2.3577,-2.3,-2.3728,-2.4155,-2.4155,-2.5209,-2.5511,-2.4983,-2.5385,-2.5109,-2.4155,-2.4054,-2.3803,-2.3391,-2.3165,-2.324,-2.3653,-2.423,-2.5711,-2.7695,-2.8549,-3.0658,-3.3495,-3.5705,-3.7462,-3.8793,-3.922,-3.917,-3.8818,-3.8467,-3.7839,-3.7001,-3.594,-3.5843,-3.5948,-3.4727,-3.6324,-3.8296,-3.7197,-3.8105,-3.9439,-3.9589,-3.9918,0.0,-4.0683,-4.0197,-4.0134,0.0,0.0,0.0,0.0,0.0,0.0,0.0,0.0,0.0,0.0,0.0,0.0,0.0,0.0,0.0,0.0,0.0,-6.1373,-6.2061,-6.272,-6.3079,-6.3079,-6.3079,-6.3677,-6.4994,-6.5024,-6.5652,-6.6969,-6.6999,-6.6999,-6.6999,-6.6999,-6.6999,-6.6999,-6.6999,-6.6999,-6.6999,-6.6999,-6.6999,-6.6999,-6.6999,-6.6999,-6.6999,-6.6999,-6.6999,-6.6999,-6.6999,-6.6999,-6.6999,-2.8875,-2.9628,-3.0382,-3.0909,-3.1235,-3.1512,-3.1813,-3.1813,-3.1813,-3.1838,-3.111,-3.0783,-3.1336,-3.0181,-2.89,-2.7795,-2.7444,-2.6565,-2.4908,-2.4305,-2.3879,-2.3577,-2.3853,-2.413,-2.4406,-2.5184,-2.5611,-2.5636,-2.5611,-2.531,-2.4782,-2.4255,-2.4582,-2.5536,-2.3879,-2.4205,-2.5895,-2.4858,-2.5511,-2.7469,-2.9704,-3.2416,-3.5353,-3.7312,-3.8894,-4.0099,-4.0099,-4.0275,-4.035,-3.922,-3.8115,-3.7303,-3.7701,-3.7131,-3.6185,-3.5683,-3.7149,-3.8693,-3.7214,-3.8121,-3.9409,-3.9409,-3.9679,0.0,0.0,-3.9952,-3.991,0.0,0.0,0.0,0.0,0.0,0.0,0.0,0.0,0.0,0.0,0.0,0.0,0.0,0.0,0.0,0.0,0.0,-6.1014,-6.2032,-6.272,-6.3079,-6.3079,-6.3079,-6.3677,-6.4994,-6.5024,-6.5652,-6.6969,-6.6999,-6.6999,-6.6999,-6.6999,-6.6999,-6.6999,-6.6999,-6.6999,-6.6999,-6.6999,-6.6999,-6.6999,-6.6999,-6.6999,-6.6999,-6.6999,-6.6999,-6.6999,-6.6999,-6.6999,-6.6999,-2.8825,-2.9829,-3.0783,-3.1311,-3.1838,-3.2416,-3.2993,-3.2692,-3.2541,-3.3018,-3.219,-3.1537,-3.1537,-3.0683,-2.9704,-2.8674,-2.8172,-2.7394,-2.6163,-2.5159,-2.4632,-2.4632,-2.423,-2.4305,-2.4958,-2.5285,-2.5661,-2.6138,-2.5787,-2.5536,-2.5435,-2.4456,-2.5134,-2.7042,-2.4883,-2.5485,-2.7996,-2.5862,-2.6038,-2.8119,-3.1637,-3.3897,-3.5429,-3.8165,-3.9496,-3.9948,-4.0475,-4.0953,-4.1178,-4.0074,-3.8517,-3.7258,-3.8891,-3.7756,-3.5805,-3.6013,-3.7473,-3.8833,-3.7317,-3.8238,-3.9619,-3.9619,-3.9709,-3.9832,0.0,0.0,0.0,0.0,0.0,0.0,0.0,0.0,0.0,0.0,0.0,0.0,0.0,0.0,0.0,0.0,0.0,0.0,0.0,0.0,-6.0386,-6.1972,-6.2361,-6.266,-6.3049,-6.3079,-6.3677,-6.4994,-6.5024,-6.5652,-6.6969,-6.6999,-6.6999,-6.6999,-6.6999,-6.6999,-6.6999,-6.6999,-6.6999,-6.6999,-6.6999,-6.6999,-6.6999,-6.6999,-6.6999,-6.6999,-6.6999,-6.6999,-6.6999,-6.6999,-6.6999,-6.6999,-2.8825,-2.9829,-3.0783,-3.1311,-3.1838,-3.2416,-3.2993,-3.3018,-3.2993,-3.3068,-3.2516,-3.2114,-3.2114,-3.1587,-3.0959,-3.0382,-3.0281,-2.9553,-2.7921,-2.7243,-2.6917,-2.6917,-2.5034,-2.4481,-2.5485,-2.5109,-2.4933,-2.5008,-2.541,-2.536,-2.4908,-2.428,-2.3879,-2.3741,-2.5887,-2.6239,-2.5435,-2.7494,-2.9905,-3.2365,-3.2867,-3.2064,0.0,-3.5705,-3.7513,-3.7889,-4.035,-4.1279,-4.1178,0.0,-3.9521,-3.8919,-3.6729,-3.7837,-3.8969,-3.4717,-3.7052,-4.0384,-3.7841,-3.8698,-4.0277,-4.0277,-4.0726,-4.0905,-3.9728,0.0,-3.9064,-3.9534,0.0,0.0,0.0,0.0,0.0,0.0,0.0,0.0,0.0,0.0,0.0,0.0,0.0,0.0,0.0,0.0,0.0,-6.1912,-6.1044,-6.1194,-6.2989,-6.3079,-6.3677,-6.4994,-6.5024,-6.5652,-6.6969,-6.6999,-6.6999,-6.6999,-6.6999,-6.6999,-6.6999,-6.6999,-6.6999,-6.6999,-6.6999,-6.6999,-6.6999,-6.6999,-6.6999,-6.6999,-6.6999,-6.6999,-6.6999,-6.6999,-6.6999,-6.6999,-2.8825,-3.008,-3.1035,-3.0959,-3.1637,-3.229,-3.2541,-3.2867,-3.3068,-3.3068,-3.2566,-3.2215,-3.2215,-3.1712,-3.1311,-3.1085,-3.106,-3.0507,0.0,-2.8549,-2.7946,-2.7318,-2.5762,-2.5134,-2.5586,-2.5084,-2.4958,-2.5259,-2.4883,-2.4732,-2.4808,-2.3904,-2.4406,-2.6063,-2.6917,-2.8147,-2.9603,-2.9478,-3.0105,-3.1235,-3.1838,-3.1361,0.0,-3.686,-3.9521,-4.0275,-4.1756,-4.2283,-4.2233,0.0,-4.0325,0.0,-3.9622,-3.8843,-3.7412,-3.6282,-3.7298,-3.8461,-3.6703,-3.773,-3.9259,-3.8625,-3.9592,-4.0334,-3.8852,-3.8825,-3.9195,-3.9397,0.0,0.0,0.0,0.0,0.0,0.0,-4.3569,0.0,0.0,0.0,0.0,0.0,0.0,0.0,0.0,0.0,0.0,0.0,0.0,-6.0954,-6.2959,-6.3079,-6.3498,-6.4395,-6.4814,-6.5473,-6.64,-6.6789,-6.6999,-6.6999,-6.6999,-6.6999,-6.6999,-6.6999,-6.6999,-6.6999,-6.6999,-6.6999,-6.6999,-6.6999,-6.6999,-6.6999,-6.6999,-6.6999,-6.6999,-6.6999,-6.6999,-6.6999,-2.8825,-3.0131,-3.106,-3.0683,-3.1512,-3.2265,-3.2416,-3.2817,-3.3068,-3.3068,-3.2717,-3.2441,-3.2441,-3.2215,-3.2089,-3.2089,-3.2215,-3.1913,0.0,0.0,-2.9453,-2.9101,-2.6992,-2.6113,-2.6741,-2.5611,-2.5209,-2.5586,-2.4808,-2.4632,-2.5008,-2.3879,-2.4732,-2.7218,-2.757,-2.9402,-3.2114,-3.1286,-3.1361,-3.2089,-3.2717,-3.3294,-3.4248,-3.8467,-4.1028,-4.2434,-4.2836,-4.2986,-4.2911,-4.2459,-4.0701,0.0,-4.1003,-3.9446,-3.7061,-3.7789,-3.821,-3.8136,-3.6595,-3.7644,-3.8913,-3.7863,-3.8851,-3.9676,-3.8141,-3.8289,-3.881,-3.881,-3.8626,0.0,0.0,0.0,-4.0351,-4.098,0.0,-4.4107,0.0,0.0,0.0,0.0,0.0,0.0,0.0,0.0,0.0,0.0,0.0,0.0,-6.2929,-6.3079,-6.3378,-6.3977,-6.4485,-6.5144,-6.6011,-6.649,-6.6819,-6.6999,-6.6999,-6.6999,-6.6999,-6.6999,-6.6999,-6.6999,-6.6999,-6.6999,-6.6999,-6.6999,-6.6999,-6.6999,-6.6999,-6.6999,-6.6999,-6.6999,-6.6999,-6.6999,-2.8825,-2.9854,-3.0633,-3.0608,-3.1512,-3.2416,-3.2968,-3.3068,-3.3068,-3.3068,-3.3068,-3.3043,-3.3043,-3.352,-3.3822,-3.3822,0.0,-3.4374,-3.3796,0.0,-3.2014,-3.3621,-2.9026,-2.7444,-2.9603,-2.6967,-2.5586,-2.5586,-2.5561,-2.5561,-2.5536,-2.4481,-2.4305,-2.5034,-2.7695,-2.9252,-3.008,-3.2667,-3.5303,-3.7688,-3.7186,-3.8919,-4.158,0.0,-4.0601,-4.2961,-4.2961,0.0,0.0,-4.1128,-4.0526,0.0,0.0,0.0,-4.0049,-3.8467,-3.9876,-4.1398,-3.8701,-3.915,-4.0221,-3.9053,-3.9176,-3.9319,-3.8055,-3.7501,-3.7204,-3.7204,-3.6764,-3.7084,-3.923,-3.9578,-3.9828,-4.0368,-4.1025,0.0,0.0,0.0,0.0,0.0,0.0,0.0,0.0,0.0,0.0,0.0,0.0,0.0,-6.2869,-6.3079,-6.3378,-6.3977,-6.4006,-6.4665,-6.6011,-6.6041,-6.637,-6.6999,-6.6999,-6.6999,-6.6999,-6.6999,-6.6999,-6.6999,-6.6999,-6.6999,-6.6999,-6.6999,-6.6999,-6.6999,-6.6999,-6.6999,-6.6999,-6.6999,-6.6999,-6.6999,-2.9377,-2.9804,-3.008,-3.008,-3.0658,-3.1336,-3.1888,-3.2591,-3.3219,0.0,0.0,0.0,0.0,-3.4324,-3.46,0.0,0.0,-3.5027,-3.4474,-3.3219,0.0,0.0,0.0,-2.8624,0.0,-2.7419,-2.6163,-2.6163,-2.5435,-2.546,-2.6138,-2.5059,-2.5034,-2.6013,-2.8423,-3.0633,-3.2616,-3.4274,-3.6157,-3.8015,-3.8216,-3.9421,-4.1103,0.0,0.0,-4.2986,-4.2986,-4.2986,0.0,-4.2333,-4.143,-4.0601,-4.1128,-4.0174,-3.8969,-3.9496,-3.9576,0.0,0.0,0.0,-4.0063,-3.8215,0.0,0.0,-3.6824,-3.6688,-3.704,-3.6598,-3.6934,-3.7508,-3.7863,-3.8277,-3.8555,-3.8682,-3.9917,-4.0677,0.0,0.0,0.0,0.0,0.0,0.0,0.0,0.0,0.0,0.0,0.0,0.0,0.0,-6.2839,-6.3169,-6.3378,-6.3767,-6.4425,-6.5353,-6.5802,-6.634,-6.6999,-6.6999,-6.6999,-6.6999,-6.6999,-6.6999,-6.6999,-6.6999,-6.6999,-6.6999,-6.6999,-6.6999,-6.6999,-6.6999,-6.6999,-6.6999,-6.6999,-6.6999,-6.6999,-2.998,-2.993,-2.9804,-2.9804,-3.0407,-3.1135,-3.1888,-3.2767,0.0,0.0,-3.4073,0.0,-3.4675,0.0,-3.5152,0.0,-3.573,-3.5604,-3.5052,-3.4349,0.0,-3.4223,-3.1964,0.0,0.0,-2.9277,-2.7946,-2.7946,-2.664,-2.6364,-2.7017,-2.5912,-2.5887,-2.6816,-2.8247,-3.0758,-3.3972,-3.5077,-3.7061,-3.9521,-4.0099,-4.0752,0.0,0.0,-4.261,-4.2183,0.0,-4.2986,-4.2986,-4.2986,-4.2283,-4.158,-4.2635,-4.1505,-3.9998,-4.1078,-4.0626,-3.9722,-3.9521,-4.0124,0.0,-3.8481,-3.8981,0.0,-3.6674,0.0,-3.7169,-3.6427,-3.6716,-3.7391,-3.8411,-3.8228,-3.8156,-3.8718,-3.9815,-4.0474,0.0,-4.1724,0.0,0.0,0.0,0.0,0.0,0.0,0.0,0.0,0.0,0.0,0.0,0.0,-6.3079,-6.3079,-6.3468,-6.4096,-6.5024,-6.5443,-6.6101,-6.6999,-6.6999,-6.6999,-6.6999,-6.6999,-6.6999,-6.6999,-6.6999,-6.6999,-6.6999,-6.6999,-6.6999,-6.6999,-6.6999,-6.6999,-6.6999,-6.6999,-6.6999,-6.6999,-3.0482,-3.0181,-2.9854,-2.9905,-3.0758,-3.1788,0.0,0.0,-3.3897,0.0,-3.4424,-3.4776,-3.4801,-3.5278,-3.5604,-3.5629,-3.6107,-3.6182,-3.5705,-3.5604,0.0,0.0,-3.4826,-3.4449,-3.5554,0.0,-3.0683,-3.0683,-2.8976,-2.8172,-2.8172,-2.7042,-2.6791,-2.7318,-2.7344,-2.9804,-3.4022,-3.5152,-3.8165,-4.2233,-4.276,-4.2936,-4.2861,-4.2936,-4.1957,-4.0727,-4.2384,-4.2986,-4.2986,-4.2986,-4.2986,-4.2986,-4.2986,-4.2986,-4.2986,-4.2986,-4.2986,-4.2635,-4.1078,-4.1028,-4.1089,-4.0031,0.0,0.0,0.0,0.0,-3.7742,-3.6716,-3.6081,-3.6767,-4.0514,-3.9423,-3.8565,-4.0014,-4.0378,-4.0908,-4.2138,-4.2783,0.0,0.0,0.0,0.0,0.0,0.0,0.0,0.0,0.0,0.0,0.0,0.0,-6.2959,-6.3079,-6.3079,-6.3677,-6.4964,-6.5024,-6.5682,-6.6939,-6.6969,-6.6999,-6.6999,-6.6999,-6.6999,-6.6999,-6.6999,-6.6999,-6.6999,-6.6999,-6.6999,-6.6999,-6.6999,-6.6999,-6.6999,-6.6999,-6.6999,-6.6999,-3.0055,-3.0231,-3.0658,-3.1461,-3.1813,-3.2089,0.0,0.0,0.0,0.0,-3.5002,-3.5479,-3.5881,-3.6081,-3.6307,-3.6734,-3.6885,0.0,0.0,0.0,0.0,-3.7538,-3.5604,-3.5027,-3.6157,-3.3319,-3.1813,-3.1813,-2.9729,-2.8925,-2.9327,-2.7795,-2.7369,-2.7921,-2.8323,-3.0733,-3.46,-3.6132,-3.9094,-4.2785,-4.2911,-4.2233,-4.1279,0.0,-4.1957,-4.0727,-4.2384,-4.2986,-4.2986,-4.2986,-4.2986,-4.2986,-4.2986,-4.2986,-4.2986,-4.2986,-4.2986,-4.2886,-4.2459,-4.2459,-4.2318,-4.1119,-4.0667,-4.0108,0.0,0.0,0.0,0.0,0.0,0.0,0.0,0.0,-3.7407,-3.7414,-3.7745,-3.8855,-4.1464,0.0,0.0,-4.2179,0.0,0.0,0.0,0.0,0.0,0.0,0.0,0.0,0.0,0.0,0.0,-6.3019,-6.3079,-6.3468,-6.4246,-6.4784,-6.5443,-6.6251,-6.6759,-6.6999,-6.6999,-6.6999,-6.6999,-6.6999,-6.6999,-6.6999,-6.6999,-6.6999,-6.6999,-6.6999,-6.6999,-6.6999,-6.6999,-6.6999,-6.6999,-6.6999,-3.0909,-3.111,-3.1512,-3.2114,0.0,0.0,-3.2943,0.0,0.0,-3.465,-3.5403,0.0,-3.6332,-3.6784,-3.7211,-3.7513,-3.7538,0.0,-3.7638,0.0,0.0,-3.799,-3.7287,-3.7186,-3.7839,-3.5579,0.0,-3.3671,-3.1461,-3.0281,-3.0131,-2.8674,-2.8172,-2.8499,-2.9051,-3.106,-3.4198,-3.7312,-3.9898,-4.1957,-4.2685,-4.2409,0.0,-4.261,-4.2409,-4.1706,-4.2635,-4.2986,-4.2986,-4.2986,-4.2986,-4.2986,-4.2986,-4.2986,-4.2986,-4.2986,-4.2986,-4.2986,-4.2986,-4.2986,-4.2836,-4.2208,-4.1831,-4.1229,-3.9898,-3.9597,-3.9496,0.0,-3.9421,-3.9672,0.0,0.0,0.0,-3.6786,-3.7174,-3.8336,0.0,0.0,0.0,0.0,0.0,0.0,0.0,0.0,0.0,0.0,0.0,0.0,0.0,0.0,0.0,-6.3019,-6.281,-6.3079,-6.3977,-6.4126,-6.4784,-6.6011,-6.637,-6.67,-6.6999,-6.6999,-6.6999,-6.6999,-6.6999,-6.6999,-6.6999,-6.6999,-6.6999,-6.6999,-6.6999,-6.6999,-6.6999,-6.6999,-6.6999,-6.6999,-3.2215,-3.2215,-3.224,-3.2315,0.0,0.0,0.0,-3.4173,0.0,-3.4876,0.0,-3.6584,-3.6584,-3.7437,-3.804,-3.8115,0.0,-3.7939,-3.7538,-3.8417,-3.8743,-3.8241,-3.917,-3.9697,-3.9697,-3.8191,-3.6784,0.0,-3.3445,-3.1813,-3.0583,-2.9453,-2.8976,-2.9076,-2.9654,-3.1311,-3.4022,-3.8592,-4.0651,-4.0953,-4.2409,-4.2986,-4.2986,-4.2986,-4.2986,-4.2986,-4.2986,-4.2986,-4.2986,-4.2986,-4.2986,-4.2986,-4.2986,-4.2986,-4.2986,-4.2986,-4.2986,-4.2986,-4.2986,-4.2986,-4.2986,-4.2986,-4.2986,-4.261,-4.1254,-4.0953,-4.0978,-4.1028,-4.0676,-4.1003,0.0,0.0,0.0,-3.7584,0.0,0.0,0.0,0.0,0.0,0.0,0.0,0.0,0.0,0.0,0.0,0.0,0.0,0.0,0.0,0.0,0.0,-6.3019,-6.251,0.0,-6.3737,0.0,-6.4066,-6.5742,-6.5922,-6.634,-6.6999,-6.6999,-6.6999,-6.6999,-6.6999,-6.6999,-6.6999,-6.6999,-6.6999,-6.6999,-6.6999,-6.6999,-6.6999,-6.6999,-6.6999,-6.6999,-3.2215,-3.2215,-3.2365,-3.2842,-3.3847,-3.4726,-3.5177,-3.5629,-3.5956,-3.6056,-3.7036,-3.7713,-3.7713,-3.7889,-3.8191,-3.8668,-3.8718,0.0,0.0,0.0,0.0,-3.9396,-3.9597,-3.9697,-3.9697,-3.8969,-3.7588,0.0,-3.4248,-3.2566,-3.0583,-2.9453,-2.9176,-2.9654,-3.0231,-3.2968,-3.7287,-3.9546,-4.1304,-4.2559,-4.2861,-4.2986,-4.2986,-4.2986,-4.2986,-4.2986,-4.2986,-4.2986,-4.2986,-4.2986,-4.2986,-4.2986,-4.2986,-4.2986,-4.2986,-4.2986,-4.2986,-4.2986,-4.2986,-4.2986,-4.2986,-4.2986,-4.2986,-4.3011,-4.3187,-4.3237,-4.3363,-4.3815,-4.384,-4.3489,-4.261,0.0,0.0,0.0,0.0,0.0,0.0,0.0,0.0,0.0,0.0,0.0,0.0,0.0,0.0,0.0,0.0,0.0,0.0,0.0,0.0,0.0,-6.2959,0.0,0.0,0.0,-6.4006,-6.4366,-6.5473,-6.634,-6.6999,-6.6999,-6.6999,-6.6999,-6.6999,-6.6999,-6.6999,-6.6999,-6.6999,-6.6999,-6.6999,-6.6999,-6.6999,-6.6999,-6.6999,-6.6999,-3.2667,-3.2667,-3.2918,-3.3771,-3.46,0.0,0.0,-3.7111,0.0,-3.686,-3.7487,-3.8015,-3.8015,-3.8542,-3.8994,-3.927,-3.9295,-3.9421,-3.9672,-3.9973,-4.0124,-4.0124,-4.04,0.0,-4.0551,-4.03,-3.8919,-3.6408,0.0,-3.3771,-3.1009,-3.0181,-2.9955,-3.0306,-3.1989,-3.4223,-3.6885,-3.9446,0.0,-4.1781,-4.2635,-4.2986,-4.2986,-4.2986,-4.2986,-4.2986,-4.2986,-4.2986,-4.2986,-4.2986,-4.2986,-4.2986,-4.2986,-4.2986,-4.2986,-4.2986,-4.2986,-4.3037,-4.3313,-4.3413,-4.3463,-4.3765,-4.384,-4.389,-4.4166,-4.4217,-4.4292,-4.4568,-4.4869,-4.4568,-4.2886,-4.1859,0.0,0.0,0.0,0.0,0.0,0.0,0.0,0.0,0.0,0.0,0.0,0.0,0.0,0.0,-4.9972,0.0,0.0,0.0,0.0,0.0,0.0,0.0,0.0,0.0,0.0,-6.4006,-6.5024,-6.5832,-6.649,-6.6819,-6.6999,-6.6999,-6.6999,-6.6999,-6.6999,-6.6999,-6.6999,-6.6999,-6.6999,-6.6999,-6.6999,-6.6999,-6.6999,-6.6999,-3.3545,-3.3596,-3.3922,-3.4901,-3.5629,0.0,-3.7236,-3.8316,-3.8693,-3.7663,-3.8015,-3.8366,-3.8366,-3.917,-3.9697,-3.9697,-3.9798,-3.9873,-3.9873,-4.0375,-4.0701,-4.0701,-4.1103,-4.1329,-4.1329,-4.1455,-4.0199,0.0,0.0,-3.4926,-3.1738,-3.1085,-3.1035,-3.1587,-3.3872,-3.5529,0.0,0.0,-4.0727,-4.1153,-4.2459,-4.2986,-4.2986,-4.2986,-4.2986,-4.2986,-4.2986,-4.2986,-4.2986,-4.2986,-4.2986,-4.2986,-4.2986,-4.3062,-4.3162,-4.3162,-4.3237,-4.3413,-4.3865,-4.3966,-4.4091,-4.4518,-4.4618,-4.4644,-4.4769,-4.4794,-4.4844,-4.497,-4.5347,-4.5121,-4.3313,-4.266,0.0,0.0,0.0,0.0,0.0,0.0,0.0,0.0,0.0,0.0,0.0,0.0,0.0,0.0,-4.961,0.0,-5.6256,0.0,0.0,0.0,0.0,-6.1852,-6.2241,0.0,-6.281,0.0,-6.4635,-6.5383,-6.6041,-6.67,-6.6999,-6.6999,-6.6999,-6.6999,-6.6999,-6.6999,-6.6999,-6.6999,-6.6999,-6.6999,-6.6999,-6.6999,-6.6999,-6.6999,-3.5127,-3.5328,-3.5504,-3.6107,0.0,0.0,-3.7914,-3.8894,-3.9396,-3.8793,-3.9195,-3.9546,-3.9546,-3.9622,-3.9697,-3.9697,-4.0149,-4.045,-4.045,-4.0953,-4.1254,-4.1254,-4.1304,-4.1329,-4.1329,-4.1831,-4.0978,0.0,0.0,-3.568,-3.2893,-3.1813,-3.239,-3.4374,-3.5127,0.0,0.0,-4.0375,-4.1379,-4.276,-4.2911,-4.2986,-4.2986,-4.2986,-4.2986,-4.2986,-4.2986,-4.2986,-4.2986,-4.2986,-4.2986,-4.2986,-4.2986,-4.3313,-4.374,-4.374,-4.4091,-4.4493,-4.4543,-4.4543,-4.4568,-4.4618,-4.4618,-4.4769,-4.5296,-4.5422,-4.5547,-4.605,-4.62,-4.5573,-4.3388,-4.4543,-4.4669,0.0,0.0,0.0,0.0,0.0,-4.199,-4.3613,0.0,0.0,0.0,0.0,0.0,0.0,-5.0029,0.0,0.0,0.0,0.0,-5.9308,0.0,-6.0027,-5.9488,-6.1822,0.0,-6.3169,-6.4425,-6.5383,-6.6041,-6.67,-6.6999,-6.6999,-6.6999,-6.6999,-6.6999,-6.6999,-6.6999,-6.6999,-6.6999,-6.6999,-6.6999,-6.6999,-6.6999,-6.6999,0.0,0.0,0.0,0.0,0.0,0.0,0.0,-3.9396,-3.9622,-3.9396,-3.9546,-3.9697,-3.9697,-3.9697,-3.9823,-4.0149,-4.04,-4.0651,-4.0978,-4.153,-4.1831,-4.1831,-4.2158,-4.2333,-4.2333,-4.2534,-4.1731,0.0,0.0,0.0,-3.4048,-3.3596,-3.4399,-3.6257,0.0,-3.927,-4.0576,-4.158,-4.2384,-4.2986,-4.2986,-4.2986,-4.2986,-4.2986,-4.2986,-4.2986,-4.2986,-4.2986,-4.3037,-4.3363,-4.3463,-4.3463,-4.3463,-4.384,-4.4292,-4.4292,-4.4443,-4.4694,-4.5045,-4.5146,-4.5221,-4.5547,-4.5648,-4.5698,-4.5924,-4.5974,-4.605,-4.6276,-4.6301,-4.6024,-4.5146,-4.4869,-4.4618,0.0,0.0,0.0,0.0,0.0,0.0,-4.5221,0.0,-4.4178,0.0,0.0,0.0,0.0,-4.7468,0.0,0.0,0.0,0.0,-5.7274,0.0,-6.0775,-5.9697,-6.1942,-6.3079,-6.3079,-6.4395,-6.5173,-6.5473,-6.652,-6.6999,-6.6999,-6.6999,-6.6999,-6.6999,-6.6999,-6.6999,-6.6999,-6.6999,-6.6999,-6.6999,-6.6999,-6.6999,-6.6999,-3.7036,0.0,-3.7387,0.0,-3.8492,-3.8768,-3.9572,-3.9697,-3.9747,-3.9923,-3.9948,-3.9948,-3.9948,-3.9948,-4.0149,-4.0701,-4.0902,-4.1153,-4.1555,-4.2082,-4.2409,-4.2409,-4.276,0.0,-4.2986,-4.2986,-4.2409,-4.1229,-3.9572,0.0,-3.6182,-3.568,-3.6408,0.0,-3.9823,-4.0777,-4.1304,-4.2484,-4.2986,-4.2986,-4.2986,-4.2986,-4.2986,-4.2986,-4.2986,-4.2986,-4.2986,-4.3087,-4.3288,-4.3664,-4.4016,-4.4267,-4.4091,-4.4418,-4.4869,-4.4869,-4.4995,-4.5196,-4.5623,-4.5723,-4.5824,-4.6225,-4.6301,-4.6301,-4.6301,-4.6301,-4.6301,-4.6301,-4.6301,-4.6301,-4.6301,-4.5347,-4.4769,-4.5447,0.0,0.0,0.0,-4.5723,0.0,-4.5598,-4.507,0.0,0.0,0.0,0.0,0.0,0.0,0.0,0.0,0.0,0.0,0.0,0.0,0.0,0.0,-6.2061,-6.3079,-6.3079,-6.4395,-6.5024,-6.5084,-6.64,-6.6999,-6.6999,-6.6999,-6.6999,-6.6999,-6.6999,-6.6999,-6.6999,-6.6999,-6.6999,-6.6999,-6.6999,-6.6999,-6.6999,-3.8617,-3.8843,-3.9019,-3.9572,-3.9672,-3.9672,-3.9697,-3.9697,-3.9898,-4.0425,-4.0501,-4.0501,-4.0501,-4.0501,-4.0727,-4.1279,-4.1831,-4.2133,-4.2158,-4.266,-4.2961,0.0,0.0,-4.2986,-4.2986,-4.2986,-4.2961,-4.2936,0.0,0.0,-3.9597,-3.7939,-3.8341,-4.0475,-4.0501,-4.143,-4.2961,-4.2961,-4.2986,-4.2986,-4.2986,-4.2986,-4.2986,-4.2986,-4.2986,-4.2986,-4.2986,-4.3338,-4.379,-4.379,-4.4543,-4.5372,-4.4794,-4.502,-4.5472,-4.5472,-4.5874,-4.6301,-4.6301,-4.6301,-4.6301,-4.6301,-4.6301,-4.6301,-4.6301,-4.6301,-4.6301,-4.6301,-4.6301,-4.6301,-4.6301,-4.6301,-4.5748,-4.4091,0.0,0.0,0.0,-4.4292,0.0,-4.389,-4.0953,0.0,-4.507,0.0,0.0,0.0,0.0,0.0,0.0,0.0,0.0,-5.8052,-5.9398,0.0,-6.0086,-6.2061,-6.3079,-6.3079,-6.4395,-6.5024,-6.5084,-6.64,-6.6999,-6.6999,-6.6999,-6.6999,-6.6999,-6.6999,-6.6999,-6.6999,-6.6999,-6.6999,-6.6999,-6.6999,-6.6999,-6.6999,-3.9371,-3.9421,-3.9496,-3.9672,-3.9998,-4.0249,-4.0249,-4.0576,-4.0877,-4.1053,-4.1078,-4.1229,-4.158,-4.1304,-4.1304,0.0,-4.2057,-4.2308,0.0,-4.2886,-4.2986,-4.2986,-4.2986,-4.2986,-4.2986,-4.2986,-4.2986,-4.2986,0.0,0.0,0.0,-3.9697,-4.0425,-4.2183,-4.2183,-4.2484,-4.2986,-4.2986,-4.2986,-4.2986,-4.2986,-4.2986,-4.2986,-4.2986,-4.2986,-4.3037,-4.3413,-4.3664,-4.3915,-4.4694,-4.5196,-4.5522,-4.5723,-4.5899,-4.605,-4.605,-4.6175,-4.6301,-4.6301,-4.6301,-4.6301,-4.6301,-4.6301,-4.6301,-4.6301,-4.6301,-4.6301,-4.6301,-4.6301,-4.6301,-4.6301,-4.6301,-4.625,-4.61,-4.6527,0.0,-4.6627,0.0,-4.6803,-4.6627,-4.6024,0.0,0.0,-4.8897,0.0,0.0,0.0,0.0,0.0,0.0,0.0,0.0,-5.9817,0.0,-6.0086,-6.2061,-6.3079,-6.3079,-6.3917,-6.4814,-6.5712,-6.661,-6.6999,-6.6999,-6.6999,-6.6999,-6.6999,-6.6999,-6.6999,-6.6999,-6.6999,-6.6999,-6.6999,-6.6999,-6.6999,-6.6999,-3.9697,-3.9848,-3.9998,-3.9998,-4.045,-4.0827,-4.0827,-4.1128,-4.1404,-4.163,-4.1656,-4.1856,-4.2409,-4.2158,0.0,-4.2434,-4.2459,-4.261,-4.2961,-4.2986,-4.2986,-4.2986,-4.2986,-4.2986,-4.2986,-4.2986,0.0,-4.2986,-4.1932,-4.143,-4.143,-4.143,-4.1982,-4.2986,-4.2986,-4.2986,-4.2986,-4.2986,-4.2986,-4.2986,-4.2986,-4.2986,-4.3011,-4.3212,-4.3288,-4.3363,-4.3915,-4.4242,-4.4543,-4.5246,-4.5623,-4.5849,-4.62,-4.6301,-4.6301,-4.6301,-4.6301,-4.6301,-4.6301,-4.6301,-4.6301,-4.6301,-4.6301,-4.6301,-4.6301,-4.6301,-4.6301,-4.6301,-4.6301,-4.6376,-4.6577,-4.6627,-4.6803,-4.733,-4.7431,-4.7531,-4.7857,-4.8109,-4.7933,-4.7104,0.0,0.0,0.0,-5.0155,0.0,0.0,0.0,0.0,0.0,0.0,0.0,-5.7992,-6.0924,0.0,-6.1224,-6.245,-6.3079,-6.3079,-6.3977,-6.4964,-6.6041,-6.67,-6.6999,-6.6999,-6.6999,-6.6999,-6.6999,-6.6999,-6.6999,-6.6999,-6.6999,-6.6999,-6.6999,-6.6999,-6.6999,-6.6999,-3.9798,-4.0224,0.0,0.0,-4.1028,0.0,-4.1404,-4.143,-4.163,-4.2158,-4.2208,-4.2409,-4.2911,-4.2986,-4.2986,-4.2986,0.0,0.0,0.0,-4.2986,-4.2986,-4.2986,-4.2986,-4.2986,-4.2986,-4.2986,-4.2986,-4.2986,-4.2986,-4.2986,-4.2986,-4.2986,-4.2986,-4.2986,-4.2986,-4.2986,-4.2986,-4.2986,-4.2986,-4.2986,-4.2986,-4.2986,-4.3037,-4.3589,-4.379,-4.389,-4.4468,-4.502,-4.5497,-4.5522,-4.5874,-4.6301,-4.6301,-4.6301,-4.6301,-4.6301,-4.6301,-4.6301,-4.6301,-4.6301,-4.6301,-4.6301,-4.6301,-4.6301,-4.6301,-4.6301,-4.6326,-4.6351,-4.6376,-4.6527,-4.7079,-4.7179,-4.7355,-4.7883,-4.7958,-4.7983,-4.8008,-4.8485,-4.8058,0.0,0.0,0.0,0.0,-4.8212,-5.0524,0.0,0.0,0.0,0.0,0.0,-5.6435,-6.1014,-6.2391,-6.3079,-6.3079,-6.3079,-6.3079,-6.3079,-6.4366,-6.5293,-6.5951,-6.661,-6.6939,-6.6999,-6.6999,-6.6999,-6.6999,-6.6999,-6.6999,-6.6999,-6.6999,-6.6999,-6.6999,-6.6999,-6.6999,-6.6999,0.0,0.0,-4.1153,-4.1153,-4.1605,-4.1957,-4.1957,-4.2308,-4.2635,-4.276,-4.2785,-4.2836,-4.2961,-4.2986,-4.2986,-4.2986,-4.2986,-4.2986,-4.2986,-4.2986,-4.2986,-4.2986,-4.2986,-4.2986,-4.2986,-4.2986,-4.2986,-4.2986,-4.2986,-4.2986,-4.2986,-4.2986,-4.2986,-4.2986,-4.2986,-4.2986,-4.2986,-4.2986,-4.2986,-4.2986,-4.2986,-4.2986,-4.3037,-4.3589,-4.379,-4.394,-4.492,-4.5372,-4.5547,-4.5974,-4.62,-4.6301,-4.6301,-4.6301,-4.6301,-4.6301,-4.6301,-4.6301,-4.6301,-4.6301,-4.6301,-4.6301,-4.6301,-4.6301,-4.6301,-4.6301,-4.6426,-4.6853,-4.6928,-4.7104,-4.7631,-4.7732,-4.7908,-4.8485,-4.856,-4.8711,-4.9138,-4.9314,-4.9213,0.0,-4.8736,-4.9768,-5.2257,-5.2825,-5.343,0.0,0.0,0.0,0.0,-5.6258,-5.7839,-6.0932,-6.2391,-6.3079,-6.3079,-6.3079,-6.3079,-6.3079,-6.3857,-6.4605,-6.5293,-6.5951,-6.652,-6.6999,-6.6999,-6.6999,-6.6999,-6.6999,-6.6999,-6.6999,-6.6999,-6.6999,-6.6999,-6.6999,-6.6999,-6.6999,-4.1329,-4.153,-4.1706,-4.1706,-4.2158,-4.2534,-4.2534,-4.2785,-4.2986,-4.2986,-4.2986,-4.2986,-4.2986,-4.2986,-4.2986,-4.2986,-4.2986,-4.2986,-4.2986,-4.2986,-4.2986,-4.2986,-4.2986,-4.2986,-4.2986,-4.2986,-4.2986,-4.2986,-4.2986,-4.2986,-4.2986,-4.2986,-4.2986,-4.2986,-4.2986,-4.2986,-4.2986,-4.2986,-4.2986,-4.3011,-4.3263,-4.3363,-4.3438,-4.4267,-4.4568,-4.4694,-4.5547,-4.5874,-4.5899,-4.62,-4.6301,-4.6301,-4.6301,-4.6301,-4.6301,-4.6301,-4.6301,-4.6301,-4.6301,-4.6301,-4.6301,-4.6301,-4.6502,-4.6702,-4.6702,-4.6878,-4.7129,-4.7431,-4.7481,-4.7657,-4.8209,-4.8309,-4.8485,-4.9063,-4.9163,-4.9264,-4.9565,-4.959,-4.959,-4.959,-4.959,-5.0334,-5.1989,-5.2236,-5.2782,-5.4262,0.0,0.0,-5.7328,-5.8673,-6.0102,-6.1553,-6.254,-6.3079,-6.3079,-6.3079,-6.3079,-6.3079,-6.3707,-6.4366,-6.5054,-6.5712,-6.637,-6.6999,-6.6999,-6.6999,-6.6999,-6.6999,-6.6999,-6.6999,-6.6999,-6.6999,-6.6999,-6.6999,-6.6999,-6.6999,-4.158,-4.1957,-4.2283,-4.2283,-4.266,-4.2986,-4.2986,-4.2986,-4.2986,-4.2986,-4.2986,-4.2986,-4.2986,-4.2986,-4.2986,-4.2986,-4.2986,-4.2986,-4.2986,-4.2986,-4.2986,-4.2986,-4.2986,-4.2986,-4.2986,-4.2986,-4.2986,-4.2986,-4.2986,-4.2986,-4.2986,-4.2986,-4.2986,-4.2986,-4.2986,-4.2986,-4.2986,-4.2986,-4.2986,-4.3037,-4.3589,-4.379,-4.3915,-4.507,-4.5497,-4.5573,-4.6125,-4.6301,-4.6301,-4.6301,-4.6301,-4.6301,-4.6301,-4.6301,-4.6301,-4.6301,-4.6301,-4.6301,-4.6301,-4.6301,-4.6351,-4.6502,-4.6853,-4.7154,-4.723,-4.7581,-4.7933,-4.8033,-4.8033,-4.8209,-4.8786,-4.8887,-4.8987,-4.9289,-4.949,-4.954,-4.9364,0.0,-4.959,-4.959,-4.959,-4.9847,-5.0334,-5.0308,-5.1669,-5.4998,-5.5709,-5.728,0.0,-6.1463,-6.2151,-6.2241,-6.278,-6.3079,-6.3079,-6.3079,-6.3079,-6.3079,-6.3617,-6.4276,-6.5054,-6.5592,-6.6281,-6.6999,-6.6999,-6.6999,-6.6999,-6.6999,-6.6999,-6.6999,-6.6999,-6.6999,-6.6999,-6.6999,-6.6999,-6.6999,-4.2735,-4.2785,-4.2861,-4.2861,-4.2911,-4.2986,-4.2986,-4.2986,-4.2986,-4.2986,-4.2986,-4.2986,-4.2986,-4.2986,-4.2986,-4.2986,-4.2986,-4.2986,-4.2986,-4.2986,-4.2986,-4.2986,-4.2986,-4.2986,-4.2986,-4.2986,-4.2986,-4.2986,-4.2986,-4.2986,-4.2986,-4.2986,-4.2986,-4.2986,-4.2986,-4.2986,-4.2986,-4.2986,-4.2986,-4.3037,-4.3589,-4.379,-4.3915,-4.507,-4.5497,-4.5573,-4.6125,-4.6301,-4.6301,-4.6301,-4.6301,-4.6301,-4.6301,-4.6301,-4.6301,-4.6301,-4.6301,-4.6301,-4.6301,-4.6301,-4.6527,-4.7431,-4.738,-4.7255,-4.7682,-4.7857,-4.8033,-4.8535,-4.8636,-4.8812,-4.9364,-4.9464,-4.9188,-4.8309,-4.8962,-4.9264,-4.8309,0.0,-4.959,-4.959,-4.959,-5.0689,-5.3429,-5.367,-5.52,-5.8932,-5.9303,-6.009,-6.1732,-6.1972,-6.2361,-6.2899,-6.3019,-6.3079,-6.3079,-6.3079,-6.3079,-6.3079,-6.3169,-6.3857,-6.5024,-6.5144,-6.5832,-6.6999,-6.6999,-6.6999,-6.6999,-6.6999,-6.6999,-6.6999,-6.6999,-6.6999,-6.6999,-6.6999,-6.6999,-6.6999,-4.2986,-4.2986,-4.2986,-4.2986,-4.2986,-4.2986,-4.2986,-4.2986,-4.2986,-4.2986,-4.2986,-4.2986,-4.2986,-4.2986,-4.2986,-4.2986,-4.2986,-4.2986,-4.2986,-4.2986,-4.2986,-4.2986,-4.2986,-4.2986,-4.2986,-4.2986,-4.2986,-4.2986,-4.2986,-4.2986,-4.2986,-4.2986,-4.2986,-4.2986,-4.2986,-4.2986,-4.2986,-4.3288,-4.3413,-4.3489,-4.4367,-4.4719,-4.4794,-4.5623,-4.5924,-4.5974,-4.6225,-4.6301,-4.6301,-4.6301,-4.6301,-4.6301,-4.6301,-4.6301,-4.6301,-4.6301,-4.6527,-4.6753,-4.6753,-4.6954,-4.728,-4.7782,-4.7958,-4.8083,-4.8309,-4.8611,-4.8887,-4.9163,-4.9213,-4.9289,-4.954,-4.959,-4.9414,-4.8912,-4.9264,-4.9414,-4.8887,-4.9264,-4.995,-5.079,-5.0916,-5.1996,-5.4589,-5.4856,-5.6176,-5.9097,-5.9707,-6.058,-6.2061,-6.2421,-6.275,-6.3079,-6.3079,-6.3079,-6.3079,-6.3079,-6.3079,-6.3079,-6.3079,-6.3767,-6.5024,-6.5024,-6.5742,-6.6999,-6.6999,-6.6999,-6.6999,-6.6999,-6.6999,-6.6999,-6.6999,-6.6999,-6.6999,-6.6999,-6.6999,-6.6999,-4.2986,-4.2986,-4.2986,-4.2986,-4.2986,-4.2986,-4.2986,-4.2986,-4.2986,-4.2986,-4.2986,-4.2986,-4.2986,-4.2986,-4.2986,-4.2986,-4.2986,-4.2986,-4.2986,-4.2986,-4.2986,-4.2986,-4.2986,-4.2986,-4.2986,-4.2986,-4.2986,-4.2986,-4.2986,-4.2986,-4.2986,-4.2986,-4.2986,-4.2986,-4.3112,-4.3162,-4.3212,-4.3765,-4.3991,-4.4091,-4.507,-4.5497,-4.5547,-4.61,-4.6301,-4.6301,-4.6301,-4.6301,-4.6301,-4.6301,-4.6301,-4.6301,-4.6301,-4.6301,-4.6301,-4.6301,-4.6778,-4.733,-4.7481,-4.7707,-4.7958,-4.8234,-4.8535,-4.8812,-4.8937,-4.9289,-4.959,-4.959,-4.959,-4.959,-4.959,-4.959,-4.9515,-4.9238,0.0,-4.9515,-4.9238,-4.9414,-5.0232,-5.2049,-5.2173,-5.3251,-5.589,-5.6065,-5.7061,-5.9277,-5.9917,-6.0911,-6.2301,-6.281,-6.3079,-6.3079,-6.3079,-6.3079,-6.3079,-6.3079,-6.3079,-6.3079,-6.3079,-6.3767,-6.5024,-6.5024,-6.5742,-6.6999,-6.6999,-6.6999,-6.6999,-6.6999,-6.6999,-6.6999,-6.6999,-6.6999,-6.6999,-6.6999,-6.6999,-6.6999,-4.2986,-4.2986,-4.2986,-4.2986,-4.2986,-4.2986,-4.2986,-4.2986,-4.2986,-4.2986,-4.2986,-4.2986,-4.2986,-4.2986,-4.2986,-4.2986,-4.2986,-4.2986,-4.2986,-4.2986,-4.2986,-4.2986,-4.2986,-4.2986,-4.2986,-4.2986,-4.2986,-4.2986,-4.2986,-4.2986,-4.2986,-4.2986,-4.2986,-4.3011,-4.3514,-4.374,-4.379,-4.4317,-4.4568,-4.4618,-4.5246,-4.5497,-4.5547,-4.61,-4.6301,-4.6301,-4.6301,-4.6301,-4.6301,-4.6301,-4.6301,-4.6301,-4.6301,-4.6301,-4.6301,-4.6301,-4.7029,-4.7958,-4.851,-4.8284,-4.8159,-4.9213,-4.9113,-4.8912,-4.9414,-4.9565,-4.959,-4.959,-4.959,-4.959,-4.959,-4.959,-4.9238,-4.8209,0.0,0.0,-4.8184,-4.8937,-5.0384,-5.2628,-5.2932,-5.4364,-5.8112,-5.8404,-5.9423,-6.1714,-6.1948,-6.2246,-6.2959,-6.3049,-6.3079,-6.3079,-6.3079,-6.3079,-6.3079,-6.3079,-6.3079,-6.3079,-6.3079,-6.3767,-6.5024,-6.5024,-6.5742,-6.6999,-6.6999,-6.6999,-6.6999,-6.6999,-6.6999,-6.6999,-6.6999,-6.6999,-6.6999,-6.6999,-6.6999,-6.6999,-4.2986,-4.2986,-4.2986,-4.2986,-4.2986,-4.2986,-4.2986,-4.2986,-4.2986,-4.2986,-4.2986,-4.2986,-4.2986,-4.2986,-4.2986,-4.2986,-4.2986,-4.2986,-4.2986,-4.2986,-4.2986,-4.2986,-4.2986,-4.2986,-4.2986,-4.2986,-4.2986,-4.2986,-4.2986,-4.2986,-4.2986,-4.3338,-4.3489,-4.3514,-4.4066,-4.4317,-4.4342,-4.492,-4.5171,-4.5221,-4.5773,-4.5999,-4.6024,-4.6225,-4.6301,-4.6301,-4.6301,-4.6301,-4.6301,-4.6301,-4.6301,-4.6301,-4.6301,-4.6301,-4.6451,-4.7104,-4.7857,-4.856,-4.9138,-4.9113,-4.9063,-4.949,-4.9439,-4.9339,-4.954,-4.959,-4.959,-4.959,-4.959,-4.959,-4.959,-4.959,-4.9464,-4.9012,0.0,-4.9439,-4.9012,-4.9314,-5.0768,-5.3997,-5.442,-5.614,-6.0353,-6.0816,-6.1341,-6.266,-6.272,-6.281,-6.3079,-6.3079,-6.3079,-6.3079,-6.3079,-6.3079,-6.3079,-6.3079,-6.3079,-6.3079,-6.3468,-6.4126,-6.5054,-6.5443,-6.6131,-6.6999,-6.6999,-6.6999,-6.6999,-6.6999,-6.6999,-6.6999,-6.6999,-6.6999,-6.6999,-6.6999,-6.6999,-6.6999,-4.2986,-4.2986,-4.2986,-4.2986,-4.2986,-4.2986,-4.2986,-4.2986,-4.2986,-4.2986,-4.2986,-4.2986,-4.2986,-4.2986,-4.2986,-4.2986,-4.2986,-4.2986,-4.2986,-4.2986,-4.2986,-4.2986,-4.2986,-4.2986,-4.2986,-4.2986,-4.2986,-4.2986,-4.2986,-4.3062,-4.3237,-4.3614,-4.389,-4.4091,-4.4644,-4.4895,-4.4945,-4.5497,-4.5748,-4.5773,-4.615,-4.6301,-4.6301,-4.6301,-4.6301,-4.6301,-4.6301,-4.6301,-4.6301,-4.6301,-4.6301,-4.6301,-4.6301,-4.6426,-4.6778,-4.7857,-4.846,-4.8887,-4.9439,-4.959,-4.959,-4.959,-4.959,-4.959,-4.959,-4.959,-4.959,-4.959,-4.959,-4.959,-4.959,-4.959,-4.959,-4.959,-4.959,-4.9898,-5.0563,-5.0717,-5.2193,-5.6224,-5.6669,-5.8194,-6.2042,-6.2391,-6.26,-6.3049,-6.3079,-6.3079,-6.3079,-6.3079,-6.3079,-6.3079,-6.3079,-6.3079,-6.3079,-6.3079,-6.3079,-6.3079,-6.3707,-6.4366,-6.5054,-6.5712,-6.637,-6.6999,-6.6999,-6.6999,-6.6999,-6.6999,-6.6999,-6.6999,-6.6999,-6.6999,-6.6999,-6.6999,-6.6999,-6.6999,-4.2986,-4.2986,-4.2986,-4.2986,-4.2986,-4.2986,-4.2986,-4.2986,-4.2986,-4.2986,-4.2986,-4.2986,-4.2986,-4.2986,-4.2986,-4.2986,-4.2986,-4.2986,-4.2986,-4.2986,-4.2986,-4.2986,-4.2986,-4.2986,-4.2986,-4.2986,-4.2986,-4.2986,-4.2986,-4.3263,-4.3815,-4.3815,-4.4116,-4.4644,-4.5246,-4.5497,-4.5522,-4.6075,-4.6301,-4.6301,-4.6301,-4.6301,-4.6301,-4.6301,-4.6301,-4.6301,-4.6301,-4.6301,-4.6301,-4.6301,-4.6301,-4.6301,-4.6326,-4.6702,-4.7355,-4.846,-4.8761,-4.8887,-4.9439,-4.959,-4.959,-4.959,-4.959,-4.959,-4.959,-4.959,-4.959,-4.959,-4.959,-4.959,-4.959,-4.959,-4.959,-4.959,-4.959,-5.041,-5.2681,-5.3012,-5.4662,-5.9205,-5.9706,-6.0588,-6.2874,-6.3079,-6.3079,-6.3079,-6.3079,-6.3079,-6.3079,-6.3079,-6.3079,-6.3079,-6.3079,-6.3079,-6.3079,-6.3079,-6.3079,-6.3079,-6.3707,-6.4366,-6.5054,-6.5712,-6.637,-6.6999,-6.6999,-6.6999,-6.6999,-6.6999,-6.6999,-6.6999,-6.6999,-6.6999,-6.6999,-6.6999,-6.6999,-6.6999,-4.2986,-4.2986,-4.2986,-4.2986,-4.2986,-4.2986,-4.2986,-4.2986,-4.2986,-4.2986,-4.2986,-4.2986,-4.2986,-4.2986,-4.2986,-4.2986,-4.2986,-4.2986,-4.2986,-4.2986,-4.2986,-4.2986,-4.2986,-4.2986,-4.2986,-4.2986,-4.3162,-4.3564,-4.3564,-4.384,-4.4392,-4.4794,-4.507,-4.5246,-4.5824,-4.6075,-4.6075,-4.625,-4.6301,-4.6301,-4.6301,-4.6301,-4.6301,-4.6301,-4.6301,-4.6301,-4.6301,-4.6301,-4.6301,-4.6301,-4.6301,-4.6376,-4.6753,-4.7255,-4.7832,-4.856,-4.9038,-4.9389,-4.9565,-4.959,-4.959,-4.959,-4.959,-4.959,-4.959,-4.959,-4.959,-4.959,-4.959,-4.959,-4.959,-4.959,-4.959,-4.959,-5.0896,-5.2197,-5.286,-5.4305,-5.6454,-5.9381,-5.9706,-6.0588,-6.2874,-6.3079,-6.3079,-6.3079,-6.3079,-6.3079,-6.3079,-6.3079,-6.3079,-6.3079,-6.3079,-6.3079,-6.3079,-6.3079,-6.3079,-6.3079,-6.4186,-6.4844,-6.5054,-6.6191,-6.6819,-6.6999,-6.6999,-6.6999,-6.6999,-6.6999,-6.6999,-6.6999,-6.6999,-6.6999,-6.6999,-6.6999,-6.6999,-6.6999,-4.2986,-4.2986,-4.2986,-4.2986,-4.2986,-4.2986,-4.2986,-4.2986,-4.2986,-4.2986,-4.2986,-4.2986,-4.2986,-4.2986,-4.2986,-4.2986,-4.2986,-4.2986,-4.2986,-4.2986,-4.2986,-4.2986,-4.2986,-4.2986,-4.2986,-4.2986,-4.3237,-4.379,-4.379,-4.4192,-4.497,-4.5321,-4.5598,-4.5824,-4.6175,-4.6301,-4.6301,-4.6301,-4.6301,-4.6301,-4.6301,-4.6301,-4.6301,-4.6301,-4.6301,-4.6301,-4.6301,-4.6301,-4.6301,-4.6301,-4.6301,-4.6451,-4.7205,-4.7657,-4.8058,-4.8862,-4.9339,-4.959,-4.959,-4.959,-4.959,-4.959,-4.959,-4.959,-4.959,-4.959,-4.959,-4.959,-4.959,-4.959,-4.959,-4.959,-4.9665,-4.9891,-5.1049,-5.2537,-5.4351,-5.5203,-5.6981,-6.0646,-6.0467,-6.085,-6.2903,-6.3079,-6.3079,-6.3079,-6.3079,-6.3079,-6.3079,-6.3079,-6.3079,-6.3079,-6.3079,-6.3079,-6.3079,-6.3318,-6.3438,-6.3468,-6.4515,-6.5173,-6.5443,-6.652,-6.6999,-6.6999,-6.6999,-6.6999,-6.6999,-6.6999,-6.6999,-6.6999,-6.6999,-6.6999,-6.6999,-6.6999,-6.6999,-6.6999,-4.2986,-4.2986,-4.2986,-4.2986,-4.2986,-4.2986,-4.2986,-4.2986,-4.2986,-4.2986,-4.2986,-4.2986,-4.2986,-4.2986,-4.2986,-4.2986,-4.2986,-4.2986,-4.2986,-4.2986,-4.2986,-4.2986,-4.2986,-4.3011,-4.3062,-4.3062,-4.3313,-4.3865,-4.394,-4.4493,-4.5573,-4.5573,-4.5824,-4.6301,-4.6301,-4.6301,-4.6301,-4.6301,-4.6301,-4.6301,-4.6301,-4.6301,-4.6301,-4.6301,-4.6301,-4.6301,-4.6301,-4.6301,-4.6326,-4.6376,-4.6376,-4.6577,-4.7657,-4.7983,-4.8184,-4.9264,-4.959,-4.959,-4.959,-4.959,-4.959,-4.959,-4.959,-4.959,-4.959,-4.959,-4.959,-4.959,-4.959,-4.959,-4.959,-4.959,-4.9766,-5.0318,-5.0575,-5.2207,-5.6554,-5.5988,-5.7091,-6.2496,-6.1644,-6.1377,-6.2933,-6.3079,-6.3079,-6.3079,-6.3079,-6.3079,-6.3079,-6.3079,-6.3079,-6.3079,-6.3079,-6.3079,-6.3079,-6.3677,-6.4006,-6.4006,-6.4755,-6.5443,-6.6041,-6.67,-6.6999,-6.6999,-6.6999,-6.6999,-6.6999,-6.6999,-6.6999,-6.6999,-6.6999,-6.6999,-6.6999,-6.6999,-6.6999,-6.6999,-4.2986,-4.2986,-4.2986,-4.2986,-4.2986,-4.2986,-4.2986,-4.2986,-4.2986,-4.2986,-4.2986,-4.2986,-4.2986,-4.2986,-4.2986,-4.2986,-4.2986,-4.2986,-4.2986,-4.2986,-4.2986,-4.2986,-4.2986,-4.3187,-4.3614,-4.3614,-4.389,-4.4443,-4.4895,-4.5472,-4.6125,-4.6125,-4.62,-4.6301,-4.6301,-4.6301,-4.6301,-4.6301,-4.6301,-4.6301,-4.6301,-4.6301,-4.6301,-4.6301,-4.6301,-4.6301,-4.6301,-4.6301,-4.6376,-4.6803,-4.6954,-4.7154,-4.8234,-4.8586,-4.8711,-4.9389,-4.959,-4.959,-4.959,-4.959,-4.959,-4.959,-4.959,-4.959,-4.959,-4.959,-4.959,-4.959,-4.959,-4.959,-4.959,-4.959,-4.9766,-5.0318,-5.1871,-5.4012,-5.6858,-5.8351,-6.0215,-6.2788,-6.2817,-6.2672,-6.3079,-6.3079,-6.3079,-6.3079,-6.3079,-6.3079,-6.3079,-6.3079,-6.3079,-6.3079,-6.3079,-6.3079,-6.3079,-6.3677,-6.4006,-6.4006,-6.5233,-6.5862,-6.6041,-6.67,-6.6999,-6.6999,-6.6999,-6.6999,-6.6999,-6.6999,-6.6999,-6.6999,-6.6999,-6.6999,-6.6999,-6.6999,-6.6999,-6.6999,-4.2986,-4.2986,-4.2986,-4.2986,-4.2986,-4.2986,-4.2986,-4.2986,-4.2986,-4.2986,-4.2986,-4.2986,-4.2986,-4.2986,-4.2986,-4.2986,-4.2986,-4.2986,-4.2986,-4.2986,-4.2986,-4.2986,-4.2986,-4.3237,-4.379,-4.4066,-4.4468,-4.5045,-4.5347,-4.5773,-4.6301,-4.6301,-4.6301,-4.6301,-4.6301,-4.6301,-4.6301,-4.6301,-4.6301,-4.6301,-4.6301,-4.6301,-4.6301,-4.6301,-4.6301,-4.6301,-4.6301,-4.6476,-4.6753,-4.7029,-4.7305,-4.7657,-4.851,-4.8761,-4.8887,-4.9439,-4.959,-4.959,-4.959,-4.959,-4.959,-4.959,-4.959,-4.959,-4.959,-4.959,-4.959,-4.959,-4.959,-4.959,-4.959,-4.9816,-5.0167,-5.0745,-5.2017,-5.4104,-5.7201,-5.791,-5.9352,-6.2701,-6.2409,-6.2175,-6.3079,-6.3079,-6.3079,-6.3079,-6.3079,-6.3079,-6.3079,-6.3079,-6.3079,-6.3079,-6.3079,-6.3079,-6.3079,-6.4006,-6.4485,-6.4515,-6.5533,-6.6161,-6.649,-6.6819,-6.6999,-6.6999,-6.6999,-6.6999,-6.6999,-6.6999,-6.6999,-6.6999,-6.6999,-6.6999,-6.6999,-6.6999,-6.6999,-6.6999,-4.2986,-4.2986,-4.2986,-4.2986,-4.2986,-4.2986,-4.2986,-4.2986,-4.2986,-4.2986,-4.2986,-4.2986,-4.2986,-4.2986,-4.2986,-4.2986,-4.2986,-4.2986,-4.2986,-4.2986,-4.2986,-4.2986,-4.3062,-4.3363,-4.394,-4.4493,-4.4995,-4.5497,-4.5573,-4.5874,-4.6301,-4.6301,-4.6301,-4.6301,-4.6301,-4.6301,-4.6301,-4.6301,-4.6301,-4.6301,-4.6301,-4.6301,-4.6301,-4.6301,-4.6301,-4.6301,-4.6301,-4.6652,-4.7154,-4.7355,-4.7707,-4.8159,-4.8736,-4.8912,-4.9012,-4.9464,-4.959,-4.959,-4.959,-4.959,-4.959,-4.959,-4.959,-4.959,-4.959,-4.959,-4.959,-4.959,-4.959,-4.9615,-4.9715,-5.0117,-5.0645,-5.1297,-5.2043,-5.3812,-5.7542,-5.6956,-5.7949,-6.2555,-6.1792,-6.1525,-6.2933,-6.3079,-6.3079,-6.3079,-6.3079,-6.3079,-6.3079,-6.3079,-6.3079,-6.3079,-6.3079,-6.3079,-6.3079,-6.4366,-6.5024,-6.5054,-6.5802,-6.646,-6.6999,-6.6999,-6.6999,-6.6999,-6.6999,-6.6999,-6.6999,-6.6999,-6.6999,-6.6999,-6.6999,-6.6999,-6.6999,-6.6999,-6.6999,-6.6999,-4.2986,-4.2986,-4.2986,-4.2986,-4.2986,-4.2986,-4.2986,-4.2986,-4.2986,-4.2986,-4.2986,-4.2986,-4.2986,-4.2986,-4.2986,-4.2986,-4.2986,-4.2986,-4.2986,-4.2986,-4.2986,-4.2986,-4.3438,-4.394,-4.4493,-4.507,-4.5422,-4.5497,-4.5974,-4.6225,-4.6301,-4.6301,-4.6301,-4.6301,-4.6301,-4.6301,-4.6301,-4.6301,-4.6301,-4.6301,-4.6301,-4.6301,-4.6301,-4.6301,-4.6301,-4.6301,-4.6301,-4.6652,-4.728,-4.8234,-4.8611,-4.8761,-4.9314,-4.949,-4.949,-4.9565,-4.959,-4.959,-4.959,-4.959,-4.959,-4.959,-4.959,-4.959,-4.959,-4.959,-4.959,-4.959,-4.959,-4.9741,-5.0218,-5.0368,-5.077,-5.1825,-5.3288,-5.515,-5.7669,-5.898,-6.0629,-6.2817,-6.2933,-6.2817,-6.3079,-6.3079,-6.3079,-6.3079,-6.3079,-6.3079,-6.3079,-6.3079,-6.3079,-6.3079,-6.3079,-6.3079,-6.3079,-6.4366,-6.5024,-6.5054,-6.6281,-6.6909,-6.6999,-6.6999,-6.6999,-6.6999,-6.6999,-6.6999,-6.6999,-6.6999,-6.6999,-6.6999,-6.6999,-6.6999,-6.6999,-6.6999,-6.6999,-6.6999,-4.2986,-4.2986,-4.2986,-4.2986,-4.2986,-4.2986,-4.2986,-4.2986,-4.2986,-4.2986,-4.2986,-4.2986,-4.2986,-4.2986,-4.2986,-4.2986,-4.2986,-4.2986,-4.2986,-4.2986,-4.2986,-4.2986,-4.3514,-4.4066,-4.4618,-4.5196,-4.5648,-4.5949,-4.62,-4.6301,-4.6301,-4.6301,-4.6301,-4.6301,-4.6301,-4.6301,-4.6301,-4.6301,-4.6301,-4.6301,-4.6301,-4.6301,-4.6301,-4.6301,-4.6301,-4.6351,-4.6652,-4.733,-4.8134,-4.8611,-4.8987,-4.9264,-4.9515,-4.959,-4.959,-4.959,-4.959,-4.959,-4.959,-4.959,-4.959,-4.959,-4.959,-4.959,-4.959,-4.959,-4.959,-4.959,-4.9841,-5.0117,-5.0368,-5.0921,-5.1523,-5.2026,-5.3731,-5.5782,-5.7696,-5.9475,-6.1139,-6.2933,-6.3079,-6.3079,-6.3079,-6.3079,-6.3079,-6.3079,-6.3079,-6.3079,-6.3079,-6.3079,-6.3079,-6.3079,-6.3079,-6.3228,-6.3588,-6.4545,-6.5203,-6.5592,-6.655,-6.6999,-6.6999,-6.6999,-6.6999,-6.6999,-6.6999,-6.6999,-6.6999,-6.6999,-6.6999,-6.6999,-6.6999,-6.6999,-6.6999,-6.6999,-6.6999,-6.6999]}]]